GFSSGP_850_spd_000.txt.gz
Wind_Speed
18 14 8 1 3 4 3 4 3 5 4 3 4 2 4 3 2 3 3 3 5 3 5 10 13 14 14 10 8 7 6 6 5 7 6 7 4 5 4 5 6 7 4 5 10 7 6 8 6
17 12 2 2 4 2 4 4 2 7 5 4 3 5 1 2 1 2 2 4 4 3 5 9 13 14 12 10 8 7 7 9 6 9 7 6 4 6 4 5 3 5 6 4 8 8 7 10 7
13 8 3 3 3 4 4 3 5 5 6 5 2 2 2 2 2 1 4 4 4 4 4 6 11 13 11 9 9 8 8 8 10 7 8 7 6 5 4 2 6 6 4 5 6 8 4 7 11
10 3 2 3 3 6 4 8 16 4 4 7 3 2 2 4 2 1 3 3 4 4 5 4 10 12 11 10 9 9 6 8 9 8 9 10 9 6 7 3 4 5 6 5 6 8 9 7 7
6 2 3 2 4 4 5 12 19 6 2 7 7 4 2 5 4 2 3 3 3 4 5 5 7 10 9 11 11 10 8 9 13 11 12 10 10 10 6 6 6 7 7 6 7 8 9 9 8
2 2 3 2 5 5 8 15 19 5 7 9 7 9 4 6 5 3 3 5 3 3 4 5 6 9 11 13 12 11 10 10 11 14 14 14 14 15 11 7 7 7 7 7 8 8 9 11 10
3 3 3 4 6 5 5 27 7 9 2 8 7 5 4 10 8 5 5 7 4 4 5 6 7 10 13 15 15 14 12 11 13 15 13 14 17 13 12 9 9 8 8 9 10 9 10 11 12
1 4 1 4 3 5 7 26 16 5 3 3 4 5 5 12 12 9 8 8 7 7 7 7 8 10 11 14 15 15 12 12 13 15 8 10 12 11 12 11 10 11 11 10 11 11 11 12 13
3 3 2 5 3 4 15 9 14 13 7 4 2 2 4 11 14 12 12 12 11 11 11 10 9 9 8 11 14 13 11 11 12 13 10 9 9 10 10 11 9 10 11 12 13 14 14 14 15
5 4 7 6 3 5 17 14 19 9 19 3 3 5 7 13 14 13 14 14 14 13 13 11 10 9 9 9 10 10 10 10 10 10 11 10 10 10 10 10 9 10 12 13 14 15 15 16 16
6 6 5 14 19 17 10 16 12 6 6 7 5 10 13 14 15 15 16 16 15 13 15 14 12 12 12 10 10 10 10 9 10 11 10 10 10 9 9 9 10 11 12 13 14 15 16 17 17
3 12 15 19 25 15 6 16 10 13 15 17 19 15 15 19 19 18 19 18 18 18 18 17 16 16 15 13 12 12 13 11 10 10 10 11 10 10 10 11 12 13 14 15 15 16 16 17 18
4 7 17 26 27 22 19 12 12 15 21 16 16 13 16 18 19 19 18 19 19 22 20 19 19 19 18 17 16 15 15 14 11 13 12 12 13 13 13 14 16 16 16 18 18 18 18 18 19
6 8 15 14 20 15 7 14 7 16 26 24 18 15 15 16 15 16 18 18 19 19 19 18 20 20 21 21 20 18 17 15 16 15 15 15 15 16 17 18 19 19 19 19 20 20 21 22 22
9 6 8 14 18 7 10 8 9 25 25 26 19 14 16 18 18 18 19 19 19 19 17 18 19 21 22 22 22 22 20 19 18 18 18 18 19 20 21 22 23 24 25 25 26 26 26 27 26
2 2 2 5 5 11 8 9 13 16 12 20 18 9 9 16 21 18 20 22 21 22 20 19 20 20 22 23 23 24 23 22 22 23 22 23 24 26 27 29 30 31 31 30 31 31 31 32 32
3 3 5 9 9 3 6 7 12 12 15 11 7 3 9 9 6 3 7 12 17 21 22 21 21 21 21 21 22 22 22 24 25 26 27 27 28 29 30 32 33 34 35 35 36 37 36 37 38
5 4 5 6 4 7 6 11 9 16 9 9 10 13 12 9 8 5 4 8 11 13 13 19 22 25 25 23 22 22 24 24 25 25 26 27 29 31 32 34 36 36 38 39 39 39 40 41 42
4 3 4 8 9 8 8 6 11 6 9 14 15 14 13 11 10 10 10 9 7 4 8 7 11 18 25 27 27 26 25 24 25 25 26 27 28 30 32 34 34 34 36 37 37 38 39 41 42
5 6 9 9 4 1 1 8 7 3 6 16 17 13 11 10 10 11 12 14 15 15 13 9 6 11 11 10 21 28 29 29 27 25 25 26 27 27 28 28 29 29 30 31 33 34 36 39 39
6 8 5 6 6 4 0 6 2 2 6 11 12 12 10 9 10 11 12 13 13 15 16 15 13 8 8 8 6 12 20 24 23 22 23 24 24 24 25 25 27 27 30 30 30 31 33 36 36
8 8 8 3 2 3 2 4 3 4 5 3 11 12 11 9 8 9 11 12 14 16 15 15 13 9 6 5 4 3 6 11 13 17 18 19 20 23 22 22 22 24 25 27 28 31 33 35 37
10 6 3 0 1 3 2 1 6 6 6 7 9 13 12 9 8 10 11 13 13 13 14 13 13 13 14 13 12 10 8 10 10 11 11 11 11 12 13 15 17 17 18 23 27 30 35 36 38
6 4 7 4 2 2 7 7 5 8 11 6 6 16 15 11 9 9 9 9 10 11 11 12 13 14 14 12 12 13 13 12 12 12 13 13 13 13 13 14 16 18 19 20 22 26 29 31 34
5 6 1 1 1 6 1 3 8 8 8 15 12 21 17 12 9 8 6 6 7 9 10 11 12 12 13 13 14 15 14 13 14 15 16 18 20 20 21 21 20 20 19 20 20 22 25 29 32
6 7 5 6 4 4 1 6 6 5 4 17 28 24 19 14 8 6 5 5 6 8 8 8 8 9 10 12 13 12 12 13 14 15 18 20 21 23 23 24 25 25 26 27 28 28 28 28 29
5 4 4 2 2 2 3 6 2 7 8 17 22 23 19 14 9 7 5 5 7 5 5 5 7 8 9 12 13 14 14 16 18 19 20 21 22 23 25 27 29 29 29 28 28 29 30 31 33
4 4 2 2 3 4 4 4 4 2 7 8 10 20 18 14 12 7 6 7 6 2 2 2 5 9 12 14 15 16 18 19 21 23 24 25 26 29 32 34 35 34 32 31 31 31 31 31 30
2 1 2 3 4 4 1 5 5 8 8 11 11 22 20 17 12 8 8 8 7 4 3 2 8 12 14 15 16 18 20 23 24 26 28 30 32 34 36 37 36 35 34 34 32 31 31 30 29
3 6 5 4 3 1 3 5 3 2 7 13 20 23 17 15 13 11 10 10 8 5 3 8 12 14 15 17 18 21 23 26 27 28 29 31 33 34 33 33 34 35 36 34 33 33 28 31 37

GFSSGP_850_spd_003.txt.gz
Wind_Speed
18 20 12 2 3 4 2 4 3 6 4 3 5 4 1 1 2 3 4 3 4 2 3 7 12 11 11 10 10 8 7 6 3 6 5 4 6 6 7 8 8 5 4 6 5 6 6 4 7
18 17 4 1 4 2 4 4 3 4 9 10 2 3 2 3 2 5 4 5 3 2 2 5 10 13 13 10 8 7 7 6 6 8 5 6 6 6 7 6 5 7 6 4 8 10 12 8 7
17 12 3 4 2 4 4 4 5 9 18 6 3 4 2 2 3 5 6 5 2 1 2 4 10 13 12 9 8 8 8 7 8 8 6 9 7 8 8 8 8 9 8 5 7 11 7 8 10
13 4 3 3 3 5 4 7 7 9 11 9 4 5 3 4 1 4 6 4 2 1 2 3 7 11 9 9 8 7 7 6 10 6 8 10 9 8 10 7 7 6 8 7 6 8 10 8 10
10 4 4 3 4 4 5 10 13 8 6 7 8 5 4 5 5 4 4 3 1 1 2 2 5 8 7 8 9 8 9 8 11 9 10 11 12 11 15 8 8 9 9 8 9 9 9 11 10
4 2 3 3 5 5 7 7 14 6 5 5 5 2 5 7 6 4 3 3 2 2 2 2 3 6 8 9 9 8 8 8 10 13 11 12 11 14 17 13 12 10 9 9 9 10 10 11 12
3 3 3 4 4 6 4 20 9 7 6 4 4 2 5 9 9 5 4 5 4 3 3 3 4 5 8 11 11 10 10 10 9 11 13 14 14 16 16 15 13 11 9 9 10 11 12 12 13
1 4 2 4 3 6 4 21 13 15 5 7 3 4 5 5 10 8 7 9 8 6 4 4 5 6 8 9 11 11 12 12 10 11 12 9 14 16 15 13 12 11 11 11 11 12 13 14 14
4 2 3 5 3 5 9 8 10 15 9 12 5 6 7 5 13 11 11 12 12 10 7 6 6 7 7 8 9 11 12 11 10 11 10 9 9 10 11 11 11 11 11 12 13 14 15 16 16
6 4 7 6 4 5 14 12 22 9 18 6 7 7 9 8 15 15 13 13 14 11 9 9 8 8 9 8 8 9 10 10 10 11 11 11 10 10 11 10 10 11 11 12 13 15 16 17 17
6 6 5 9 16 14 7 16 14 6 6 13 10 17 16 12 18 17 15 16 17 13 13 13 12 11 12 11 9 9 9 10 9 10 10 11 11 11 11 10 11 12 12 14 14 16 16 17 18
3 12 15 9 17 10 8 17 11 17 23 16 17 20 19 17 19 18 18 18 19 18 16 15 15 16 15 14 14 11 11 11 11 10 11 12 12 12 12 12 12 14 15 16 17 18 18 19 19
4 7 13 21 23 19 18 14 12 19 24 24 15 21 18 18 19 17 18 18 20 22 20 19 18 18 17 18 17 16 13 13 12 13 14 14 15 15 16 17 18 19 19 20 21 21 22 23 22
7 15 18 16 25 13 8 15 7 11 19 24 25 19 16 16 20 20 20 21 20 21 20 19 20 20 19 19 19 20 17 14 15 15 15 15 17 19 20 22 23 24 24 24 25 27 27 28 27
6 4 7 13 18 9 4 10 9 30 20 23 24 19 16 16 17 20 19 19 19 18 17 18 19 20 19 18 18 19 19 18 18 17 16 17 20 22 23 25 27 28 29 29 30 32 33 33 33
4 2 3 4 3 6 11 14 13 26 18 17 8 8 8 10 11 14 14 15 18 19 20 19 19 20 19 19 18 17 19 20 20 20 20 20 22 24 26 27 29 30 31 32 33 35 36 38 38
1 3 5 8 5 1 4 7 14 10 8 16 3 5 4 3 3 1 4 8 11 13 14 17 19 20 18 19 20 19 19 20 20 20 21 22 24 25 27 29 30 31 32 34 36 37 38 39 41
5 3 5 5 4 1 3 12 14 13 7 9 6 10 9 8 8 6 5 5 7 9 11 10 10 14 17 19 20 21 21 20 20 20 22 24 24 25 27 29 30 30 31 33 34 34 34 36 38
4 4 3 5 6 5 8 10 15 10 12 7 14 13 12 11 11 11 11 11 10 10 7 7 8 8 9 12 19 21 22 22 22 24 25 25 24 25 27 28 28 27 30 30 32 34 34 34 33
3 2 5 8 4 4 3 9 10 4 5 10 17 14 11 12 11 12 12 13 15 14 13 10 9 9 8 3 6 13 18 19 18 19 18 17 20 22 24 24 26 27 29 29 29 31 34 35 28
4 4 4 6 8 4 5 7 5 2 2 9 10 11 11 10 11 12 12 15 15 16 17 16 15 13 12 10 7 4 6 8 10 12 12 13 14 16 17 18 19 22 23 26 26 26 29 34 34
11 8 3 6 4 3 3 5 5 4 4 4 9 12 12 11 10 12 13 14 15 17 15 14 14 14 14 11 8 7 7 7 9 10 10 9 9 10 13 15 16 18 19 19 20 21 24 28 33
8 6 6 5 4 3 2 2 6 3 7 8 9 13 13 12 10 12 13 13 14 13 13 12 12 13 14 13 13 12 11 11 8 7 8 9 10 12 13 15 17 19 20 20 21 23 23 24 29
3 4 5 3 2 2 7 7 5 5 11 5 6 14 15 14 12 11 11 11 11 9 9 10 11 12 11 11 11 11 10 10 9 10 13 15 17 19 21 22 23 23 24 25 25 25 25 26 28
5 5 1 2 1 5 1 3 9 4 7 11 13 20 18 14 12 11 10 8 7 7 8 8 9 9 10 10 11 12 12 12 14 16 19 21 24 26 27 28 28 29 29 30 31 31 30 29 29
8 8 5 6 4 4 4 6 5 6 11 16 29 25 19 15 12 10 9 6 5 4 5 6 9 9 10 12 13 13 13 14 16 18 20 22 24 26 27 29 31 32 32 33 32 33 32 32 32
5 4 5 3 1 1 4 7 3 6 5 13 24 25 21 16 12 11 9 6 4 3 4 6 8 9 11 13 13 14 15 18 20 22 24 26 28 30 32 34 36 36 36 35 34 34 33 32 32
6 7 3 2 3 4 4 5 5 2 3 5 10 23 22 16 13 12 10 7 5 1 1 3 6 10 12 13 14 16 18 20 23 26 29 31 32 33 34 35 35 35 35 34 33 33 32 30 29
3 2 5 4 4 3 2 6 5 5 8 12 11 26 22 16 14 12 11 9 7 4 2 4 7 10 12 14 16 19 22 25 28 29 30 31 31 32 33 34 35 35 34 33 33 32 30 26 32
2 7 6 4 4 2 3 5 4 4 7 12 18 13 12 12 14 14 13 11 9 7 5 5 8 11 13 15 19 23 26 28 28 28 29 30 32 33 33 34 34 34 34 33 33 32 29 34 38

GFSSGP_850_spd_006.txt.gz
Wind_Speed
16 19 14 2 3 5 2 5 2 5 4 3 9 4 3 2 3 4 7 4 5 3 2 5 13 13 13 11 9 8 7 7 3 4 5 3 5 3 6 5 6 4 6 5 3 5 6 6 8
17 18 6 2 4 3 4 4 4 2 8 16 6 4 3 4 3 4 5 6 5 3 1 4 10 10 10 9 6 8 8 7 4 5 4 4 4 3 4 5 6 8 9 5 6 7 9 8 6
15 14 3 4 3 3 4 3 5 14 20 8 3 4 4 3 3 3 5 6 4 3 1 2 8 10 12 9 9 8 7 7 6 6 6 7 5 7 9 8 9 9 10 8 7 10 8 9 9
12 4 4 4 2 4 4 4 5 12 9 3 5 5 5 6 3 2 5 5 4 3 1 2 6 11 11 10 9 7 6 5 5 7 6 7 7 8 6 10 8 9 9 9 7 8 10 10 10
10 3 4 3 4 4 5 9 11 5 8 8 3 4 5 5 5 3 3 3 3 3 1 1 6 8 7 8 7 6 6 6 6 7 5 6 8 9 9 10 11 12 9 9 9 9 9 11 10
4 3 3 2 4 6 7 5 8 5 9 8 3 5 4 6 6 3 2 2 2 2 1 0 2 6 6 7 7 6 5 5 6 11 8 9 10 10 12 12 13 13 11 9 10 10 11 11 11
2 3 3 2 4 6 4 13 4 8 10 3 7 3 4 6 9 6 4 4 3 2 1 1 2 4 7 8 8 8 7 6 7 8 11 10 10 13 12 15 13 13 12 10 12 12 13 13 12
2 4 2 3 3 6 4 16 14 10 6 17 4 4 4 7 9 9 6 6 6 5 4 3 3 5 6 6 8 9 9 9 9 8 9 9 10 10 8 10 11 12 12 11 12 13 13 14 15
4 3 2 4 5 5 5 8 6 17 10 19 5 7 10 14 11 12 10 8 10 8 6 6 5 6 7 7 8 9 10 11 11 10 9 9 7 9 9 10 10 10 11 12 12 15 15 16 17
5 4 8 6 5 4 9 8 20 9 20 9 11 8 13 17 13 17 14 11 12 10 8 8 8 8 8 8 8 8 9 10 10 10 10 10 10 10 10 10 12 13 13 13 14 15 17 18 18
6 6 5 7 13 12 7 15 11 6 7 8 21 19 21 21 15 19 16 14 14 13 12 11 11 11 11 10 9 9 9 10 9 9 10 10 10 11 12 13 13 14 14 15 16 17 17 19 20
3 11 10 6 11 7 5 12 10 14 19 21 19 18 22 23 19 17 19 17 16 16 15 15 15 15 15 14 14 12 11 10 10 9 10 12 12 13 13 15 15 16 16 17 18 20 20 21 21
4 4 9 16 20 19 18 17 12 22 30 27 24 23 21 23 18 17 19 18 17 18 17 16 17 17 17 17 16 16 14 12 11 11 11 12 14 15 16 16 18 19 20 22 23 24 25 26 26
7 15 19 18 26 15 8 15 6 19 15 24 24 27 24 21 16 14 16 15 15 16 16 15 17 16 16 16 16 16 16 13 14 13 13 15 16 17 18 19 21 22 23 25 26 28 29 31 32
13 3 7 9 13 8 6 12 12 36 25 19 17 26 17 14 12 11 12 14 15 16 17 16 15 15 15 14 14 15 15 14 14 14 14 16 18 20 21 22 23 24 25 26 28 30 32 34 36
6 2 3 4 2 4 6 17 11 22 15 17 15 11 3 3 2 4 6 9 11 12 14 14 16 16 15 13 13 15 14 13 14 15 16 17 19 20 22 23 24 25 27 28 30 31 33 35 37
3 4 6 7 5 3 5 8 8 4 3 8 9 2 5 6 4 4 4 5 8 9 11 11 9 9 12 14 13 13 13 13 14 15 17 19 20 21 23 24 25 27 29 30 31 32 34 36 37
6 4 3 5 2 2 5 13 17 17 6 10 6 5 6 9 10 9 8 8 7 6 6 8 8 7 5 9 13 14 14 15 17 19 20 21 22 22 23 24 25 26 28 30 31 31 31 32 33
6 4 6 4 4 2 7 8 15 15 12 8 7 8 9 12 13 12 11 11 11 12 11 13 12 12 7 4 5 9 11 12 13 15 16 16 17 17 19 22 24 24 26 28 28 29 31 31 30
3 3 5 6 1 3 7 10 12 7 7 4 11 12 10 13 12 12 12 12 13 14 15 14 14 13 12 9 6 5 6 6 7 8 10 11 12 13 15 17 18 19 21 23 23 23 25 28 26
3 5 4 5 7 3 6 8 6 2 2 6 11 11 11 12 14 14 14 14 14 16 16 16 16 16 15 14 10 7 5 5 3 7 7 9 10 11 13 14 16 18 19 21 22 22 24 25 26
9 6 3 3 4 3 5 6 6 5 4 6 11 13 13 13 13 16 15 15 15 16 15 14 15 15 16 14 14 12 11 10 12 10 9 9 10 12 13 16 18 19 21 22 23 23 24 25 26
4 6 6 3 3 2 1 2 7 1 5 6 9 14 13 14 13 16 16 14 14 12 12 12 12 14 14 14 14 13 12 12 9 8 9 12 14 17 19 21 23 24 25 26 27 28 29 28 29
6 5 2 3 2 2 6 7 5 4 6 4 5 15 16 16 16 16 15 13 12 11 9 10 11 12 12 11 12 12 11 11 12 14 16 19 21 23 25 27 29 30 30 31 31 32 31 32 32
5 7 2 1 1 6 1 2 8 4 5 8 13 21 19 18 17 16 14 12 11 9 9 9 10 11 11 12 12 12 13 13 15 18 21 24 28 30 32 33 34 35 35 35 35 35 33 32 32
7 8 5 6 4 4 3 6 5 2 9 10 24 28 22 19 17 15 13 10 9 8 6 7 9 10 11 12 13 13 14 16 19 23 26 28 30 32 32 33 33 34 34 34 34 34 33 31 30
6 9 4 5 2 1 3 7 8 4 6 4 22 29 25 20 18 15 13 9 7 5 5 6 8 9 10 12 12 14 17 21 25 27 29 30 30 31 31 32 33 33 34 34 35 34 34 31 29
7 8 2 2 3 4 4 5 5 5 2 3 8 23 23 19 18 15 12 10 8 5 3 3 4 7 10 11 13 17 21 24 26 27 28 28 29 30 30 31 31 32 32 33 34 34 34 32 30
2 4 4 4 3 4 1 5 5 5 4 8 7 21 22 19 18 15 13 11 8 6 3 0 4 7 9 12 16 20 23 25 25 26 26 27 27 28 30 31 31 32 33 34 34 33 32 33 35
4 7 6 5 4 1 3 6 2 6 5 10 10 15 17 16 17 16 14 12 11 8 4 1 3 7 11 14 19 24 25 25 25 26 27 28 28 28 29 30 31 33 35 36 36 35 36 35 37

GFSSGP_850_spd_009.txt.gz
Wind_Speed
16 17 13 1 2 3 1 4 1 2 3 3 12 5 3 4 3 2 5 4 4 4 1 5 11 11 10 13 10 9 8 6 6 2 4 3 4 5 4 4 5 3 4 3 2 3 5 8 6
16 17 5 2 3 2 3 3 1 1 11 18 8 6 4 3 6 4 4 4 4 4 3 3 11 11 10 8 4 6 9 7 6 4 4 2 2 5 3 3 5 6 8 6 5 6 6 11 7
15 13 2 3 2 2 2 1 5 11 20 5 3 4 3 2 3 2 3 4 3 4 4 2 7 9 8 5 6 8 10 7 6 5 8 5 4 7 8 9 7 7 9 8 6 8 8 8 10
10 4 4 3 1 3 3 4 4 13 4 3 4 7 5 6 2 1 2 3 3 4 5 3 6 9 8 8 10 11 8 6 3 6 6 6 5 6 9 5 5 8 8 9 6 6 10 11 10
9 3 3 2 3 4 4 6 9 4 7 9 3 3 4 4 6 4 1 1 2 4 5 4 6 8 8 9 8 5 4 4 3 5 4 4 5 7 9 8 9 11 12 9 7 7 8 8 10
2 2 2 1 3 4 7 5 6 5 8 11 5 6 4 4 4 5 3 2 2 3 4 3 4 7 6 5 5 4 3 4 3 8 7 6 7 10 11 13 11 12 12 9 9 10 11 10 10
4 3 3 2 3 5 3 6 3 7 8 2 15 4 3 6 5 6 6 4 3 2 2 2 2 3 5 5 6 5 5 5 5 4 11 8 11 10 12 13 11 12 12 10 11 11 12 13 13
4 3 4 3 3 5 3 7 8 6 6 16 4 3 4 15 13 9 9 7 6 4 3 2 1 1 1 3 6 6 7 6 7 6 7 10 10 11 10 9 11 13 13 12 11 12 13 14 13
5 2 4 4 5 4 3 4 3 9 10 15 7 8 9 15 16 10 13 11 9 7 5 4 3 3 3 4 5 6 7 9 8 7 7 9 8 8 9 10 11 13 13 12 12 12 14 15 15
5 4 9 6 4 4 6 7 11 7 9 9 10 15 14 18 16 13 14 13 11 9 7 7 7 5 6 5 5 5 6 7 8 8 7 8 8 8 10 10 11 12 13 13 14 14 15 16 17
6 5 5 5 11 10 7 7 4 4 5 10 19 22 20 21 18 18 15 16 14 12 12 10 10 9 9 8 7 6 7 7 7 7 8 8 8 9 10 12 12 14 14 15 16 17 18 19 20
3 9 7 5 7 5 5 9 9 13 19 18 26 28 26 23 18 20 15 13 15 15 14 13 12 13 12 11 9 9 9 8 7 7 8 9 9 10 12 13 15 16 17 18 19 20 21 22 23
4 4 9 16 14 16 14 17 13 18 31 23 20 15 22 23 24 19 13 11 13 15 13 13 13 13 11 12 10 9 9 9 9 9 9 11 12 12 14 15 16 16 17 19 21 22 24 25 26
9 17 20 15 19 14 8 13 2 31 27 25 21 23 20 23 17 16 11 11 12 12 12 12 13 13 11 10 8 8 8 8 9 10 10 12 13 14 15 16 17 18 18 20 22 25 26 28 30
8 2 4 6 8 7 7 8 9 29 22 19 17 15 16 8 9 10 10 8 10 11 13 13 15 15 12 9 7 6 6 7 9 9 11 12 14 15 16 17 18 19 20 22 24 25 27 29 30
8 3 9 3 3 4 6 10 7 12 4 5 5 6 2 1 1 1 2 3 4 6 8 9 8 10 12 11 8 7 7 7 8 10 12 13 14 16 18 19 20 21 24 25 27 28 29 31 31
4 5 6 7 7 5 6 7 5 1 8 11 7 3 3 4 5 5 4 3 3 3 4 5 3 2 8 10 10 8 7 8 10 12 13 14 15 17 19 20 21 22 25 26 27 28 29 31 32
7 7 4 5 2 2 4 12 14 17 9 10 5 4 6 6 7 9 9 8 8 7 8 8 9 8 5 2 3 5 6 7 9 11 13 13 14 15 15 16 17 20 22 23 24 26 26 28 30
6 6 9 2 2 1 4 6 14 11 9 10 6 11 11 10 11 12 12 12 12 12 13 15 15 16 12 9 7 4 1 2 3 5 7 8 9 10 12 13 14 15 17 19 20 23 25 26 27
5 4 4 3 1 2 6 14 13 3 6 6 14 16 15 15 13 13 14 14 14 16 17 18 18 16 15 12 11 9 8 8 8 7 6 7 8 9 10 12 14 15 17 18 21 23 26 26 25
4 5 4 4 3 1 5 6 5 2 1 4 12 19 16 17 16 14 15 16 15 16 17 17 17 17 17 16 13 11 10 11 9 9 8 9 9 10 12 15 17 19 21 23 25 26 27 29 30
10 4 3 3 4 2 4 6 5 5 2 4 12 18 19 19 17 15 15 15 15 17 15 15 16 16 17 14 13 11 11 10 11 9 9 9 11 14 17 20 22 24 26 27 28 28 29 30 31
4 6 3 1 3 1 1 2 6 2 3 6 10 15 18 19 17 16 15 15 15 13 12 13 13 14 14 12 12 11 11 11 9 8 10 14 18 21 24 26 28 29 30 30 30 30 29 28 28
9 7 5 4 2 3 5 6 5 3 4 5 6 16 19 21 19 17 16 15 14 13 11 11 11 13 12 11 11 11 10 10 11 14 17 22 26 29 31 31 32 31 31 31 31 30 29 28 28
4 6 2 1 4 5 2 1 8 3 4 7 15 25 23 24 22 19 17 15 14 12 10 9 9 11 11 10 10 11 12 13 16 19 23 25 28 31 31 31 30 30 30 29 29 30 29 29 28
6 6 5 5 4 2 3 5 5 2 4 7 18 28 27 26 23 20 17 15 13 12 10 8 8 9 9 9 10 11 13 16 19 22 25 27 28 28 28 28 28 27 27 28 29 30 31 31 29
4 5 3 4 2 1 3 5 7 1 3 3 17 30 30 27 24 21 18 16 14 12 9 7 6 7 7 8 9 11 15 20 23 24 25 26 26 26 25 24 24 24 26 29 31 33 33 33 33
7 8 3 2 4 3 3 4 4 4 4 3 8 20 28 25 24 22 19 18 15 11 8 6 4 3 5 7 9 13 18 20 22 24 24 24 23 22 22 23 24 27 29 31 33 34 35 35 35
4 2 2 3 2 3 1 4 4 5 3 6 11 24 28 26 25 22 20 18 15 12 9 5 2 2 3 6 10 15 19 21 23 23 22 21 22 22 23 25 27 30 32 33 35 36 36 37 36
5 8 9 4 3 1 2 5 1 5 6 10 16 25 25 22 22 21 20 19 16 12 9 6 3 0 3 9 14 18 21 23 22 21 21 21 21 23 25 28 30 32 34 36 37 38 37 36 36

GFSSGP_850_spd_012.txt.gz
Wind_Speed
14 16 16 3 4 5 7 4 1 1 2 2 9 7 7 9 5 4 5 3 4 2 2 6 10 10 8 8 9 9 9 8 7 5 1 2 9 5 3 3 6 4 4 3 7 8 6 5 7
13 15 8 2 5 7 6 2 4 3 10 15 8 4 6 2 3 1 3 2 3 3 3 7 10 11 9 8 7 7 7 8 7 2 3 2 2 7 8 3 5 4 7 8 6 5 7 8 9
12 12 4 2 2 6 2 1 6 11 13 5 3 4 3 1 1 1 2 1 2 3 4 5 10 11 10 6 3 6 7 9 6 4 5 5 5 7 7 10 8 7 9 8 7 6 10 7 8
8 4 1 4 5 3 4 5 8 11 2 3 6 7 3 4 0 2 2 1 3 3 4 4 9 11 10 7 7 9 10 8 5 5 7 3 5 5 10 13 5 7 9 9 7 6 7 9 11
7 4 5 4 4 4 6 7 9 8 7 8 6 2 3 3 5 5 2 2 3 3 4 5 8 10 10 9 7 8 6 4 3 4 4 2 3 6 8 15 9 12 12 11 6 7 8 8 9
5 3 7 8 4 5 7 4 5 7 7 6 7 9 1 7 5 4 3 3 4 4 4 4 7 8 7 6 5 5 3 2 1 5 6 4 7 8 9 13 15 13 12 11 9 9 10 13 13
8 6 11 9 9 7 3 2 4 9 9 1 12 5 2 8 12 4 4 4 4 4 4 4 5 6 6 5 5 4 3 3 2 2 8 5 8 11 9 10 12 10 12 11 8 10 10 13 14
6 5 9 8 8 6 1 3 7 7 7 11 4 2 1 9 18 6 6 6 6 5 4 5 5 6 7 7 4 5 6 5 4 4 4 10 9 7 12 10 12 12 12 12 11 10 10 11 15
5 7 12 14 9 3 3 4 6 7 11 8 7 5 8 13 16 10 6 8 8 6 6 5 5 6 8 7 7 5 6 8 7 4 4 5 7 8 8 9 10 10 11 11 11 12 13 13 15
12 10 16 9 10 7 4 10 11 9 12 13 10 7 9 11 13 9 6 8 9 7 7 7 6 7 9 7 6 6 7 6 6 7 6 5 7 8 9 10 10 11 11 12 12 13 13 14 13
13 17 12 11 10 7 8 13 8 12 11 8 14 15 16 16 12 10 9 9 10 10 9 8 9 9 11 9 7 7 6 6 6 6 5 5 6 7 9 10 11 12 13 13 14 15 15 15 16
13 18 16 13 10 8 12 11 15 19 26 20 20 19 18 11 12 13 12 9 10 11 10 10 10 11 12 11 10 8 7 6 5 5 5 6 7 8 9 11 12 12 13 14 15 15 16 18 19
19 18 16 16 15 14 14 16 19 24 29 24 22 18 13 15 15 13 13 12 11 11 11 12 12 13 11 12 11 8 7 7 6 6 6 7 8 9 10 11 12 13 14 15 16 17 17 19 20
14 22 19 17 17 15 15 21 6 26 21 23 19 16 14 15 16 12 11 10 11 11 10 11 12 12 12 12 10 8 7 7 7 6 7 8 8 9 11 13 14 15 16 17 19 21 23 24 23
29 12 13 16 19 15 11 18 19 27 17 19 13 10 7 9 8 7 9 8 8 9 9 10 12 14 14 13 11 10 8 7 7 7 8 9 10 10 12 13 15 15 17 20 21 22 22 21 21
18 17 17 18 17 14 10 18 11 8 2 2 3 2 1 0 1 2 3 3 3 3 4 7 9 10 14 14 13 10 9 9 9 8 8 9 10 11 12 14 15 17 20 20 19 18 20 20 20
16 15 22 18 14 13 13 12 7 6 14 16 11 4 4 4 4 4 4 3 2 1 1 1 1 5 8 11 11 9 9 8 7 6 7 8 9 10 11 12 13 15 15 16 17 18 18 21 21
18 16 12 17 9 11 14 16 14 15 12 12 7 7 7 7 6 7 8 9 8 9 9 8 8 8 8 8 8 6 5 4 3 1 1 3 4 6 7 9 11 13 14 15 17 17 17 18 20
19 18 15 13 6 6 13 16 14 20 13 13 10 11 10 9 8 11 12 14 13 13 14 16 16 15 12 11 9 8 8 8 6 6 6 6 7 8 9 11 13 15 18 20 22 22 23 21 19
17 15 15 10 5 6 13 17 17 16 13 10 12 15 15 13 11 13 15 17 17 18 19 19 18 17 15 12 12 10 10 11 9 9 8 9 10 11 13 14 16 18 20 21 23 24 25 20 20
15 15 14 9 4 7 9 18 11 5 5 4 9 14 16 17 16 14 17 18 18 19 19 19 18 16 16 15 13 12 11 12 10 9 8 9 11 12 15 17 19 21 22 22 23 22 22 21 21
16 11 7 7 2 5 3 5 9 8 6 7 14 17 18 18 16 15 16 18 18 19 18 17 16 15 15 14 12 10 10 9 10 9 10 11 13 16 19 21 22 23 22 22 23 22 22 19 19
15 11 10 4 6 4 9 6 5 3 7 9 14 19 18 17 17 16 16 19 19 17 16 15 13 14 13 11 10 9 9 10 9 9 11 14 17 20 22 24 25 24 23 23 23 23 22 20 19
13 12 7 3 1 7 11 9 5 4 2 9 15 19 20 19 18 17 19 19 18 16 14 13 11 12 11 9 9 9 9 9 10 13 16 19 21 23 26 25 24 23 22 22 23 24 25 24 24
15 15 3 5 4 6 3 7 11 4 2 9 17 22 22 21 19 19 19 18 17 15 13 12 10 11 10 8 7 8 9 10 13 16 19 21 23 24 24 23 22 21 22 22 24 25 25 23 24
12 16 4 5 6 5 3 6 1 5 3 6 16 23 22 21 19 19 18 18 17 15 13 11 10 9 8 7 6 6 7 10 14 17 19 21 22 22 21 21 20 20 21 23 25 25 24 22 22
5 6 2 2 1 3 5 4 4 2 2 6 15 23 23 23 21 19 19 18 17 15 14 11 9 8 7 5 4 5 8 12 15 18 20 20 20 20 19 19 19 21 23 25 27 26 26 27 22
8 12 5 3 5 5 4 4 2 2 0 5 14 24 25 22 21 19 18 18 18 16 14 12 9 7 5 3 2 6 10 13 16 19 19 19 18 18 18 19 21 22 25 27 28 27 27 23 23
10 7 4 3 3 3 3 3 3 4 5 5 12 24 24 24 22 20 18 19 18 17 14 12 9 6 4 1 5 9 12 16 18 18 18 17 17 18 19 20 22 24 27 28 28 28 25 24 25
12 10 11 6 5 1 4 2 3 4 5 5 13 22 22 22 21 19 19 20 20 18 15 12 9 6 3 2 6 10 14 17 18 18 17 17 17 18 20 22 24 26 29 30 30 26 24 25 26

GFSSGP_850_spd_015.txt.gz
Wind_Speed
12 15 16 4 5 6 12 11 4 5 4 4 9 10 11 11 8 4 1 3 3 5 7 5 9 10 8 7 7 6 7 7 8 4 3 2 10 5 9 6 7 8 5 3 4 9 10 6 7
12 12 10 4 5 9 10 10 9 2 7 12 10 7 7 1 4 5 3 1 4 6 7 9 8 9 6 6 6 8 6 6 6 2 3 2 2 3 8 4 6 6 8 8 5 8 12 10 9
13 10 11 4 4 10 7 3 5 9 12 6 5 4 5 5 5 4 3 2 5 6 8 10 6 9 8 7 5 3 7 7 5 3 4 3 2 2 6 9 9 7 9 9 7 5 6 9 8
7 8 8 8 12 5 10 6 6 10 6 3 7 9 3 6 2 3 3 3 7 6 7 2 9 9 8 7 4 6 8 8 5 2 6 3 2 3 6 9 10 10 12 10 7 6 6 6 8
8 10 9 11 11 5 7 7 7 7 8 10 6 4 3 6 4 3 3 5 6 7 7 3 8 11 9 7 7 8 6 5 3 2 6 3 3 5 6 11 11 13 13 12 7 7 7 9 9
9 7 11 12 13 5 7 7 8 9 7 8 6 10 4 8 5 1 3 4 5 7 7 4 6 8 8 6 7 6 4 3 1 3 7 6 5 6 8 10 13 13 9 11 9 9 6 9 12
13 10 15 17 14 10 8 1 10 7 11 4 8 7 8 8 9 2 3 5 6 7 6 7 4 6 7 7 6 6 4 2 2 2 4 6 8 7 6 8 11 10 9 11 11 11 9 8 11
13 10 19 16 12 16 3 5 6 10 11 7 4 4 4 7 8 5 2 5 6 7 7 8 8 6 6 5 3 5 6 4 3 2 3 5 6 4 9 11 12 9 10 10 10 10 10 10 10
10 11 14 19 16 12 3 8 6 8 14 13 10 9 4 6 6 4 2 6 7 8 8 9 9 9 8 7 11 9 6 6 4 2 3 4 3 4 8 9 9 9 9 9 10 10 11 11 12
15 13 21 16 12 12 11 8 11 11 14 13 13 9 7 7 9 7 6 7 9 10 10 10 10 10 9 8 8 4 5 5 6 4 5 4 4 6 9 10 8 8 9 9 10 11 12 13 13
21 20 18 21 13 15 14 14 18 12 15 16 10 11 13 14 12 9 7 8 10 11 11 11 11 10 11 9 8 6 6 6 5 7 6 5 5 5 6 6 8 9 10 11 11 13 14 12 14
22 25 28 24 15 13 15 17 19 19 21 19 18 19 18 15 11 11 10 8 9 11 11 11 11 11 12 10 9 8 7 6 6 5 5 5 5 6 5 6 7 8 8 9 11 11 12 15 16
23 23 26 25 21 18 18 21 20 26 24 23 21 19 19 17 15 13 10 8 7 10 10 10 11 12 12 12 10 8 7 6 5 5 4 5 5 5 6 7 7 9 9 10 11 12 14 15 17
14 29 27 22 22 22 18 22 22 24 23 23 21 21 18 16 13 12 9 7 7 7 8 8 10 12 12 11 10 8 7 6 5 4 4 5 5 6 7 8 8 9 9 11 12 14 16 16 17
28 21 19 27 22 22 22 22 24 26 25 21 20 19 12 10 9 7 7 5 6 5 7 7 11 12 12 11 10 8 6 6 4 2 3 4 6 7 7 8 9 9 10 12 13 14 15 17 18
24 18 18 18 21 24 16 22 16 12 8 11 6 6 6 6 4 3 3 4 4 3 2 7 8 9 11 10 9 7 6 3 2 1 1 3 4 6 7 7 7 9 10 11 12 13 14 15 16
15 18 25 21 24 20 19 19 17 22 9 14 14 10 7 4 3 2 2 4 4 3 2 1 3 6 10 11 9 8 6 5 3 4 3 3 3 4 4 4 6 8 8 8 11 12 13 16 18
21 25 19 23 20 17 20 22 18 19 15 14 13 15 10 8 5 4 6 7 7 8 7 8 10 11 12 12 11 10 10 9 7 5 5 3 5 6 6 7 10 11 11 13 16 17 18 20 18
22 20 22 21 19 17 17 21 20 22 21 19 14 13 13 11 7 7 9 10 11 13 14 14 14 14 13 13 13 11 10 8 7 7 7 6 7 8 9 11 12 14 15 16 18 19 21 22 19
23 22 22 14 15 11 14 17 19 17 20 22 16 17 16 14 12 11 12 13 13 15 16 17 16 15 14 13 15 13 12 12 10 9 8 8 9 10 12 13 15 17 19 19 20 20 22 20 20
26 24 19 16 13 11 13 18 21 19 26 12 15 17 18 18 16 15 15 14 15 17 18 18 18 17 16 15 15 14 13 12 9 8 7 8 9 11 14 16 18 19 19 19 19 19 19 20 19
19 17 16 15 8 8 9 7 12 14 13 12 14 19 20 19 17 17 17 15 16 19 19 18 17 16 15 14 14 12 10 9 8 7 7 9 11 15 18 20 20 19 18 18 18 17 18 18 17
12 22 16 12 8 4 12 6 14 11 15 13 14 20 21 21 20 19 17 17 18 19 18 17 16 15 14 13 12 10 10 9 7 6 8 11 15 18 21 22 21 20 19 18 19 20 21 20 19
9 19 13 7 3 7 13 13 11 12 14 16 15 20 22 22 21 18 16 17 18 18 17 16 15 15 13 11 11 10 9 7 6 7 10 13 15 18 22 22 20 19 19 20 21 21 22 21 20
13 17 6 5 4 6 5 11 13 10 6 7 16 22 24 23 22 20 18 16 16 16 16 14 13 13 12 10 9 7 6 5 6 9 12 15 17 20 22 22 20 19 20 21 22 23 23 22 22
12 17 8 7 9 12 7 7 4 8 4 10 18 23 24 23 21 20 18 17 15 14 13 13 12 11 10 8 7 5 4 4 7 11 14 16 18 19 21 20 19 20 21 21 22 23 20 20 24
7 10 2 3 7 8 8 10 7 5 6 8 18 24 26 25 22 21 19 16 15 14 13 12 11 10 8 6 4 3 3 6 10 13 15 17 18 19 19 19 19 20 21 22 22 24 25 24 25
8 8 7 3 7 5 8 6 6 10 8 10 14 24 25 24 22 21 19 17 15 14 14 12 10 9 7 5 3 2 5 8 11 14 16 18 18 18 18 18 19 21 23 24 25 27 26 25 24
6 3 5 3 2 3 6 4 11 5 2 8 13 24 26 25 24 22 19 17 15 15 14 12 11 9 7 4 1 3 6 9 12 15 16 17 17 17 17 19 22 23 25 25 26 25 24 23 27
10 9 13 6 5 5 4 5 5 4 2 5 14 22 25 24 23 22 20 18 16 15 14 12 11 9 7 4 2 4 8 11 13 15 16 16 15 17 19 21 23 25 25 25 25 24 23 27 28

GFSSGP_850_spd_018.txt.gz
Wind_Speed
14 13 17 11 2 2 6 9 7 4 3 9 13 8 9 14 5 3 8 2 3 1 4 5 9 10 7 4 3 2 6 7 7 5 6 4 7 4 7 6 4 6 7 5 2 5 8 7 10
14 13 13 5 2 3 5 12 5 1 10 10 12 8 6 3 12 10 7 5 6 4 2 7 11 9 7 5 5 5 4 5 6 2 4 4 4 4 3 8 5 5 7 7 4 6 9 12 12
13 11 9 3 4 5 4 7 10 14 13 6 6 3 5 7 11 6 3 6 7 8 2 2 4 10 9 7 5 2 5 6 5 1 5 3 4 1 2 8 10 8 11 10 7 4 4 8 9
8 8 8 4 11 12 5 6 9 7 14 5 10 8 8 6 4 5 4 9 5 7 6 4 6 10 10 7 3 2 6 6 3 1 6 3 2 4 3 5 9 9 12 11 8 5 4 4 6
6 7 4 6 11 9 3 7 7 3 7 8 8 8 7 9 5 5 6 9 6 8 4 2 7 11 11 8 6 4 4 4 2 2 8 5 4 3 4 7 9 11 13 10 11 10 8 7 8
9 8 5 8 12 15 3 8 3 7 14 7 0 10 5 4 3 3 6 10 8 11 6 4 6 10 9 7 6 4 2 1 1 3 9 8 7 5 4 8 10 9 9 10 10 10 9 7 8
11 5 10 11 14 15 2 8 2 8 9 8 4 3 9 6 9 7 6 6 10 7 6 3 5 6 7 5 4 3 2 2 1 1 7 8 7 6 6 8 9 7 7 8 8 8 8 7 8
17 6 14 11 10 14 11 4 3 4 8 12 3 3 5 3 6 4 5 6 8 8 7 6 3 4 5 3 1 2 3 5 4 2 1 3 5 3 4 8 9 6 7 7 8 8 8 9 9
12 6 11 15 14 14 11 3 7 2 8 12 15 13 3 4 8 8 3 6 9 9 10 9 7 6 4 5 5 6 7 4 2 1 4 6 1 3 8 8 8 9 8 8 8 9 9 11 12
13 8 15 11 12 11 12 5 6 9 11 16 14 14 9 4 1 6 7 8 9 11 10 11 12 11 10 8 11 8 4 5 3 7 6 5 7 3 7 11 10 8 8 8 10 9 12 13 13
22 17 12 20 26 23 8 12 12 11 8 13 16 16 10 11 11 9 8 8 11 11 12 11 12 14 11 13 10 4 4 4 4 2 5 4 7 6 5 8 10 10 11 11 12 15 15 16 19
19 26 24 25 27 14 5 12 15 20 17 17 21 17 18 17 14 12 10 8 7 11 14 13 14 14 14 12 10 7 8 7 5 7 7 6 4 5 4 6 8 10 11 12 13 14 15 15 18
21 17 27 25 27 28 15 11 16 21 22 22 22 23 23 20 18 14 11 12 10 11 16 17 14 15 14 15 10 9 8 9 6 8 6 6 6 5 6 6 7 8 11 13 13 13 14 16 17
10 25 25 28 25 24 18 17 21 22 19 22 22 27 20 18 15 15 14 10 7 9 12 10 13 15 13 13 14 10 10 6 8 6 6 7 5 6 6 5 6 7 8 9 12 15 17 17 16
23 19 15 26 25 17 20 19 18 25 24 30 26 24 22 14 12 13 12 14 15 13 16 17 17 14 14 12 11 11 9 9 5 4 3 4 4 5 5 4 5 8 11 13 12 12 13 13 15
7 13 16 19 12 22 18 18 16 24 28 32 25 11 4 5 7 9 14 11 12 14 10 16 14 16 16 12 13 11 9 7 7 5 4 5 4 5 0 3 7 8 7 6 8 9 12 14 16
10 12 23 14 18 14 18 19 15 29 31 11 13 15 13 10 7 9 6 7 7 9 10 7 7 11 17 15 16 15 13 12 11 9 7 4 3 4 3 2 2 2 5 8 11 14 17 20 22
13 14 15 16 15 17 20 17 13 24 13 16 19 15 17 13 11 6 6 7 7 7 8 9 12 17 21 20 19 17 17 14 13 9 5 4 5 4 3 3 6 8 10 13 16 18 20 21 21
16 18 15 17 15 21 21 22 12 16 22 18 20 13 17 18 11 8 9 9 13 12 12 13 15 15 17 18 19 17 14 11 9 9 8 6 6 5 6 8 10 12 14 16 18 20 21 21 22
20 22 21 11 20 19 21 19 13 11 19 23 23 20 18 21 13 12 12 13 14 18 19 21 21 21 22 20 16 12 12 12 11 9 7 6 6 8 9 12 14 16 17 18 18 19 20 20 20
24 20 17 15 20 7 7 10 11 11 20 25 22 25 24 26 21 17 16 16 17 19 20 21 20 19 18 15 14 16 15 13 10 8 6 7 8 10 12 15 17 18 18 19 18 18 19 21 21
23 23 22 20 16 9 10 4 16 23 17 13 17 17 29 28 23 20 19 18 18 19 20 20 21 20 17 15 14 12 12 11 9 7 6 7 9 12 16 19 20 20 19 18 18 18 19 20 21
20 13 23 24 15 6 6 4 9 12 18 14 10 20 31 29 27 25 21 19 20 21 21 21 20 20 19 17 13 12 12 10 7 4 4 7 12 16 19 22 22 21 20 18 18 19 20 20 21
17 15 21 23 6 5 11 7 6 7 12 12 11 21 31 30 29 25 21 20 21 20 20 19 19 19 17 15 14 12 10 8 6 4 5 8 13 17 20 22 22 21 20 19 20 21 22 23 23
25 16 7 6 3 4 16 7 9 4 7 15 14 26 31 31 29 26 24 22 22 21 19 18 17 18 16 15 14 11 9 6 4 4 7 10 14 18 21 23 21 20 19 20 22 23 25 25 26
24 8 4 5 8 5 8 7 4 6 9 22 26 30 31 30 29 26 23 22 21 20 19 18 17 16 15 13 11 9 6 3 3 6 9 13 16 19 22 21 19 19 20 22 24 26 27 27 27
7 12 20 8 8 6 5 3 4 8 6 10 20 28 31 31 30 26 24 22 21 20 18 17 16 15 13 11 9 6 3 1 5 8 11 14 17 20 19 18 18 20 22 24 26 28 30 29 30
8 7 9 4 7 7 6 8 5 9 8 7 13 22 28 30 30 28 26 23 21 19 18 16 15 13 12 9 7 4 1 3 6 10 13 16 19 19 18 18 19 22 24 27 29 30 31 30 28
7 3 11 4 2 4 5 2 9 9 11 11 11 26 30 31 31 30 26 22 22 22 19 18 15 13 11 9 6 3 2 5 9 12 15 17 18 17 17 20 22 25 27 29 31 31 32 30 29
12 4 5 1 2 1 3 2 6 8 7 10 14 27 32 30 30 29 27 25 24 21 20 17 15 14 11 9 6 3 3 7 11 14 16 16 16 16 19 21 24 27 29 31 31 32 32 28 34

GFSSGP_850_spd_021.txt.gz
Wind_Speed
15 14 16 8 4 4 3 6 1 8 3 2 5 1 3 4 3 2 9 7 2 4 7 7 13 11 9 8 5 3 3 5 4 4 6 8 8 3 4 3 2 4 5 4 2 6 9 5 7
14 13 9 4 3 2 5 3 7 5 4 5 8 3 3 1 6 12 9 5 1 5 6 7 14 11 10 8 8 6 5 2 3 1 5 5 7 5 1 7 6 6 8 6 2 3 7 10 11
13 9 5 2 2 4 4 0 3 7 14 5 5 6 3 3 8 9 7 8 4 4 7 8 12 12 12 10 9 6 3 3 1 2 7 6 6 2 0 6 8 7 9 9 6 3 3 4 7
8 5 4 1 9 11 5 7 2 2 7 10 9 5 5 8 3 6 8 9 4 3 5 4 6 11 12 11 7 5 2 3 0 3 7 8 4 4 4 4 7 9 11 9 9 6 4 4 5
7 5 0 2 7 8 6 4 3 3 2 3 5 2 4 5 4 5 10 7 4 5 3 2 6 9 12 10 6 2 3 2 1 5 8 9 7 5 5 6 8 11 8 8 9 9 6 5 5
4 3 1 4 7 9 8 6 5 2 5 11 1 3 3 5 4 7 13 9 7 5 4 5 8 8 10 7 5 3 3 1 1 4 9 7 7 7 6 5 7 7 7 7 7 8 7 8 7
4 1 5 5 7 8 5 3 6 3 3 4 7 3 5 4 5 8 12 11 9 9 7 6 8 8 9 5 4 3 3 2 1 2 7 5 5 5 5 4 6 7 8 8 8 7 7 7 8
8 3 5 5 8 11 6 5 2 4 3 7 5 3 5 5 5 6 10 9 12 10 8 6 6 7 6 4 3 1 2 3 3 1 1 1 4 3 0 2 4 5 7 8 8 8 8 9 10
15 3 8 10 9 11 18 4 4 4 2 4 9 15 8 4 5 4 4 7 11 12 10 8 6 6 5 3 3 1 4 2 1 2 4 6 4 2 1 4 6 9 9 8 8 8 9 10 10
8 5 9 4 9 7 21 9 4 1 2 5 13 11 9 6 2 3 5 5 9 10 12 11 10 7 5 6 4 3 3 1 1 3 3 5 2 2 5 8 9 7 8 7 8 8 10 11 12
7 10 5 8 23 24 15 6 4 1 3 7 10 14 6 6 4 6 9 13 11 10 11 12 14 12 10 10 7 6 2 1 1 1 2 4 3 5 7 5 6 8 8 9 10 11 12 12 15
10 17 19 20 30 25 7 11 5 9 9 12 17 21 18 14 12 13 9 9 11 14 13 12 11 17 16 14 12 7 4 2 1 2 3 4 6 4 3 4 6 8 9 11 12 12 12 13 14
15 15 21 27 31 32 27 17 15 12 16 15 20 24 22 19 20 17 14 12 11 10 15 16 15 16 18 16 11 8 8 6 8 7 8 9 8 8 7 7 5 5 6 8 9 11 14 16 14
12 16 22 29 25 24 19 13 14 12 15 16 22 27 23 24 21 22 18 19 14 13 19 19 19 18 17 19 15 10 12 10 9 9 8 9 9 9 9 6 3 6 7 9 12 15 14 15 15
13 13 15 20 19 17 21 17 14 27 22 24 31 31 27 28 15 18 22 21 18 17 20 20 18 16 18 15 18 13 12 11 9 6 5 4 3 5 6 5 3 6 10 13 14 14 13 12 14
5 6 14 7 14 13 16 21 9 26 16 26 33 35 27 17 17 16 17 18 20 19 20 21 20 19 17 15 15 14 14 15 12 10 8 6 5 5 5 4 5 8 11 10 9 11 13 15 17
4 8 7 10 8 7 9 15 11 26 22 30 32 27 25 18 14 15 16 16 19 22 24 22 21 22 20 18 21 18 18 16 13 12 8 7 7 8 5 5 5 4 6 8 11 14 17 20 21
13 7 6 7 6 10 14 18 11 19 21 28 27 22 18 21 18 14 11 11 12 15 14 13 15 24 26 26 25 22 18 17 15 13 10 7 6 4 1 1 4 7 10 13 15 17 17 19 21
5 8 11 6 9 10 18 18 20 21 25 19 20 21 16 25 20 12 11 11 11 10 12 15 19 24 26 27 27 25 21 16 15 11 7 7 6 3 3 6 9 12 14 16 18 19 20 19 22
13 14 20 15 14 11 14 19 23 17 16 25 26 27 24 27 22 17 15 16 16 15 17 20 24 24 25 23 21 19 17 14 12 11 9 6 4 4 6 10 13 16 17 17 18 19 18 18 19
15 16 16 15 14 16 10 16 23 15 26 28 32 32 31 36 29 25 21 21 21 20 20 21 21 22 20 18 18 17 17 16 13 11 8 5 4 6 9 13 16 18 18 18 17 17 18 20 20
16 13 15 17 11 10 3 8 16 17 14 9 24 24 36 36 31 31 28 24 23 24 22 22 23 22 16 13 15 16 16 16 12 9 6 3 4 7 12 15 18 19 19 17 16 16 17 19 22
18 5 11 12 14 14 19 8 7 8 20 19 17 22 37 40 37 34 30 26 24 24 24 24 24 23 21 19 16 16 16 14 11 7 3 1 5 9 14 18 20 20 18 17 17 17 18 20 21
2 1 12 8 9 12 20 14 6 8 20 20 13 30 36 40 37 34 29 26 27 27 27 24 23 22 19 18 16 15 14 12 10 7 2 3 8 12 15 18 19 18 17 17 18 19 20 21 22
5 4 3 6 6 13 10 13 15 5 11 13 16 31 38 42 42 37 32 30 29 28 27 25 23 23 21 19 18 16 13 11 8 5 1 5 9 13 17 20 18 16 16 17 19 21 23 24 25
13 15 7 7 8 8 10 8 7 19 8 19 32 40 42 43 41 36 32 31 30 28 27 26 24 23 21 19 18 15 12 9 5 2 3 7 11 15 18 18 16 16 17 19 21 23 25 27 27
10 13 25 6 5 5 5 8 4 2 8 17 25 33 34 41 41 35 31 30 30 28 26 25 24 22 20 18 16 14 10 6 2 1 6 10 13 16 17 16 15 17 19 21 24 26 28 28 28
13 15 10 5 5 5 9 5 5 6 10 15 18 25 30 38 38 33 31 31 29 27 25 23 20 19 18 17 14 11 8 4 1 4 8 12 15 16 15 15 16 18 21 24 27 28 28 29 30
9 4 8 3 7 4 5 5 5 13 15 17 17 28 34 40 38 34 32 29 29 27 25 23 21 19 18 16 13 10 6 3 3 7 10 13 15 15 15 16 18 21 24 26 28 28 30 31 30
10 12 13 7 10 5 4 3 3 9 9 13 18 27 34 39 37 34 32 31 30 28 25 23 21 19 17 15 12 9 6 3 5 9 12 14 14 14 15 18 21 23 26 27 28 30 31 30 33

GFSSGP_850_spd_024.txt.gz
Wind_Speed
14 13 16 7 3 4 3 4 3 7 5 4 2 3 4 2 3 3 8 3 2 7 11 11 16 16 13 10 10 7 5 3 2 1 9 16 15 5 1 3 1 2 3 1 1 9 10 8 5
14 13 9 2 3 1 4 4 1 3 5 11 2 7 3 2 2 6 9 7 5 6 10 12 15 14 12 12 11 9 5 3 1 3 7 11 11 7 2 3 4 5 6 5 2 4 8 9 9
10 10 4 3 3 4 4 3 5 4 5 7 0 9 4 2 5 7 5 7 6 7 10 11 15 14 14 13 11 7 4 3 2 4 8 6 9 5 6 3 6 7 8 6 3 0 3 5 5
6 3 1 2 8 7 5 7 6 5 3 4 4 6 5 2 4 5 7 7 6 8 10 10 12 13 14 12 10 6 3 2 2 6 8 9 8 5 5 5 5 8 7 5 6 3 0 1 2
6 3 0 3 7 6 3 8 11 5 1 4 7 3 5 4 5 6 8 9 5 8 8 8 11 13 14 12 9 6 2 0 2 7 9 10 8 6 6 6 6 7 5 6 7 7 6 5 5
3 1 2 6 7 7 6 13 11 4 1 6 3 2 3 7 5 7 9 9 5 5 7 7 10 11 12 11 8 6 2 0 2 7 9 8 8 6 6 6 6 4 4 5 6 7 7 7 7
5 3 5 5 6 7 6 7 3 4 5 1 5 2 3 9 9 11 11 11 8 6 5 7 10 11 12 10 8 5 2 2 2 3 6 5 5 6 6 5 3 4 5 6 7 7 7 7 8
4 4 4 5 6 10 5 5 7 5 3 2 2 3 3 10 11 14 14 11 11 10 9 9 11 10 11 8 6 4 2 1 1 1 2 3 5 3 3 2 1 3 6 7 7 7 6 6 7
4 2 6 9 8 8 6 3 16 8 6 4 2 4 9 8 13 14 15 15 15 15 13 12 11 11 10 8 7 4 1 1 2 4 4 5 6 5 3 1 3 5 5 5 5 4 6 6 6
7 7 10 6 10 9 5 5 14 5 2 2 1 8 5 9 12 11 14 13 14 14 14 14 13 12 11 10 8 5 1 2 4 6 5 4 4 2 0 2 3 3 4 4 4 6 6 6 7
6 12 6 7 19 18 10 8 18 6 5 8 5 3 1 8 7 11 12 14 15 12 15 14 14 14 13 11 9 6 4 5 5 4 3 1 1 2 3 3 4 4 5 6 6 7 8 9 11
7 10 17 11 17 16 4 9 10 13 12 8 9 9 9 11 14 16 16 14 15 20 19 17 14 15 15 12 10 6 7 5 4 4 3 2 2 3 3 3 5 6 7 6 8 9 9 10 13
5 7 16 20 21 26 28 18 14 21 23 19 17 16 18 21 19 19 18 18 16 15 19 22 18 16 16 15 11 9 9 5 4 6 5 4 6 6 7 7 7 5 6 6 6 10 14 16 18
10 11 12 18 19 18 14 16 12 21 22 19 16 18 21 23 22 22 24 22 24 21 17 20 22 19 17 16 15 11 9 7 7 6 5 7 10 11 10 10 7 6 6 10 13 14 16 17 17
7 7 8 8 7 6 15 21 21 23 25 25 23 24 28 25 28 28 25 26 28 26 23 21 24 22 20 18 17 12 11 12 11 12 10 7 9 10 11 8 6 6 9 11 15 16 16 15 16
4 4 4 3 6 6 8 26 10 17 18 22 24 26 32 29 33 29 27 26 27 25 22 22 25 24 20 19 19 18 17 17 17 14 11 9 7 6 4 5 7 10 11 13 12 13 15 17 19
3 4 6 4 11 5 12 23 10 24 24 22 23 31 34 32 28 26 25 23 22 20 21 25 26 24 23 24 22 21 19 19 18 14 11 7 8 8 7 8 9 8 8 10 13 15 18 20 20
12 6 6 5 4 8 16 19 10 23 19 24 30 36 34 30 30 27 24 21 20 22 23 23 23 24 27 27 25 24 21 20 18 13 12 10 9 6 5 4 5 8 10 13 15 16 17 18 20
7 5 7 3 8 7 11 16 17 19 22 20 29 31 29 23 27 23 20 17 16 17 18 20 25 28 30 31 29 27 22 18 18 15 13 8 6 4 2 3 7 10 13 15 16 16 16 16 20
11 13 15 8 9 9 11 16 13 16 17 25 29 29 33 22 27 23 20 18 17 16 16 18 20 25 30 30 28 28 25 19 17 13 12 10 7 3 1 5 9 13 15 16 17 16 16 15 18
14 17 11 12 11 15 12 22 14 15 18 27 33 33 32 30 34 28 24 21 19 18 18 19 21 24 27 28 27 25 23 18 15 16 14 10 5 1 4 8 12 15 16 16 16 15 16 18 17
15 11 11 9 7 5 4 10 10 6 16 15 30 29 30 34 36 33 29 26 23 21 22 24 25 25 24 23 23 22 21 20 19 16 12 8 3 1 6 11 15 17 17 15 14 14 15 18 19
9 5 5 3 8 8 16 8 6 9 11 16 21 27 36 39 41 38 33 29 27 25 26 26 24 23 21 18 17 19 21 20 19 15 10 6 1 4 8 13 16 17 15 14 14 14 16 18 19
3 4 3 2 1 9 22 11 11 10 16 16 18 27 36 38 42 40 36 33 30 28 28 28 28 26 22 20 21 20 19 19 16 12 8 4 1 6 10 14 16 15 13 13 14 16 18 19 20
11 6 3 4 6 12 10 11 22 8 13 13 16 23 34 39 46 43 40 36 33 33 31 30 28 27 25 23 21 19 18 15 12 9 6 3 4 7 11 14 14 13 13 14 16 18 20 22 23
13 15 4 7 4 6 6 10 10 14 26 29 20 30 36 42 48 47 42 38 36 34 33 31 30 28 26 23 21 20 17 14 12 8 5 3 6 9 12 14 13 13 14 16 18 21 23 24 24
6 10 22 5 4 4 5 6 10 9 9 7 14 28 34 39 48 47 41 38 37 36 34 31 30 28 26 24 23 20 17 14 11 7 3 4 7 10 12 13 13 14 16 19 21 23 24 24 26
14 7 5 5 6 10 7 5 10 13 13 6 15 22 30 34 41 44 40 38 36 34 32 30 28 27 26 24 21 18 16 13 9 4 3 5 8 11 12 13 14 16 18 21 23 24 24 26 26
9 11 10 6 6 5 4 7 10 15 12 13 13 26 35 38 45 43 39 37 35 33 31 30 28 27 26 23 20 17 14 10 6 3 4 7 10 11 13 13 15 18 20 22 24 24 26 26 27
15 17 19 7 13 4 2 8 1 8 15 17 18 24 28 36 44 41 38 37 35 33 31 29 27 25 23 21 18 16 12 8 5 3 5 8 10 12 13 14 17 20 22 23 25 26 26 27 29

GFSSGP_850_spd_027.txt.gz
Wind_Speed
12 12 13 7 3 4 2 5 1 5 4 1 8 5 3 3 2 3 10 8 3 6 11 13 15 14 12 9 9 6 5 5 4 5 10 12 12 8 4 2 1 3 2 1 2 9 8 8 9
11 11 6 1 3 2 4 4 1 4 4 8 1 2 2 0 1 3 7 7 7 6 10 11 15 15 12 10 10 7 5 6 4 4 12 14 13 6 3 3 5 5 4 2 2 7 9 9 8
8 8 3 3 3 5 5 5 4 11 16 4 2 4 2 1 2 8 4 8 9 9 10 11 15 15 12 12 10 8 6 5 4 3 7 10 9 6 4 5 5 6 5 3 1 3 5 5 6
4 2 2 3 8 6 5 3 4 9 7 3 3 3 1 2 2 4 6 8 9 9 9 11 14 15 14 13 11 8 6 4 4 6 8 7 8 3 3 2 5 7 5 5 6 4 2 2 3
5 1 1 2 7 4 4 5 6 6 6 0 1 3 2 3 4 5 7 9 7 9 9 10 13 13 13 13 10 7 5 4 5 8 8 9 6 3 6 3 4 5 5 5 6 6 6 6 6
4 2 1 6 8 3 5 9 6 3 9 2 4 3 3 5 4 4 7 8 7 6 9 10 12 13 14 13 10 8 5 4 4 7 9 8 8 6 4 6 5 4 4 4 5 6 6 5 5
5 3 5 4 5 5 6 4 4 5 5 3 6 4 2 8 6 6 6 7 7 7 8 8 10 11 13 12 9 8 5 3 2 4 7 7 7 6 6 5 4 2 2 3 4 4 4 4 5
4 3 3 6 6 10 3 2 5 4 6 3 2 3 2 6 9 11 9 8 9 9 9 8 10 12 12 12 10 8 5 3 3 3 5 7 6 7 6 5 2 0 3 4 4 4 3 4 4
5 1 7 9 7 6 1 1 4 9 6 3 2 0 4 5 11 14 13 13 14 14 13 10 11 12 13 12 10 8 5 4 4 5 4 5 8 6 4 3 0 2 3 3 4 3 4 4 4
6 5 8 4 5 5 1 6 8 7 10 3 4 5 2 12 13 12 11 12 14 14 15 15 13 13 14 14 12 9 5 5 5 7 6 6 7 6 4 2 1 1 2 3 4 5 5 5 6
4 12 9 4 11 15 5 7 12 5 6 10 6 8 8 12 13 12 11 12 13 12 15 16 14 15 15 14 12 10 6 6 6 8 6 5 4 3 2 1 1 2 3 4 5 5 6 8 9
5 4 10 5 11 7 4 4 5 9 10 16 14 7 7 10 11 13 15 16 18 19 19 18 17 17 16 14 13 9 7 7 7 7 7 4 3 2 2 1 2 3 5 5 7 8 7 10 14
4 3 11 16 20 20 22 18 12 19 26 27 23 22 17 15 15 16 17 18 17 23 23 25 22 19 18 17 14 12 9 8 6 7 7 5 4 4 5 5 5 4 5 6 7 11 14 15 17
4 8 10 9 14 17 13 16 12 10 15 21 22 24 24 21 23 21 20 22 21 23 23 21 25 22 19 18 15 11 9 9 8 7 7 6 6 6 7 8 7 5 8 8 12 15 16 19 20
6 6 6 6 7 6 6 20 22 23 26 25 27 27 24 25 27 25 22 24 25 25 26 25 23 25 22 18 15 13 10 12 13 11 9 7 6 7 8 8 4 6 8 10 15 18 19 18 19
3 2 2 2 10 8 9 23 1 19 30 29 28 28 28 28 29 28 24 26 26 25 29 28 24 27 24 20 18 18 17 16 16 14 12 10 9 8 6 4 6 9 10 12 14 15 18 20 22
4 5 3 5 6 4 10 12 5 24 23 25 30 29 28 26 29 28 27 26 26 25 27 27 25 27 26 24 25 21 20 19 18 16 13 11 9 8 7 7 8 7 8 11 14 18 20 22 22
7 4 3 4 2 4 11 18 12 23 22 21 26 28 30 33 36 29 27 24 22 22 20 21 24 30 30 28 26 24 21 20 20 16 14 12 10 10 7 6 4 6 9 13 15 17 18 20 22
5 4 4 4 6 5 9 15 12 14 20 25 26 33 34 35 31 24 20 23 23 22 22 22 25 31 31 32 31 27 23 22 20 16 13 12 10 7 5 4 5 8 12 15 17 17 17 17 20
8 12 16 6 7 6 10 21 17 15 19 22 23 29 35 39 34 25 23 26 23 21 21 24 26 28 31 34 32 27 27 21 18 15 13 10 9 7 4 4 6 10 14 16 17 16 15 15 19
11 16 16 16 11 10 11 24 18 14 25 27 30 32 36 37 36 27 28 29 25 23 21 21 25 29 32 34 33 30 25 23 19 16 13 13 10 7 4 4 8 12 15 15 15 15 15 15 15
16 8 11 10 5 7 3 9 7 5 15 19 26 31 34 36 33 28 32 31 27 23 19 19 21 22 28 32 31 27 26 24 19 17 17 14 10 6 3 6 10 13 14 14 13 14 15 17 18
7 5 8 7 5 6 14 6 6 8 16 15 8 26 34 39 35 30 35 34 28 23 21 20 21 23 27 28 26 25 24 23 21 20 18 14 9 5 5 8 11 14 14 14 13 14 15 17 18
2 5 7 3 3 10 9 10 11 10 13 8 9 26 29 34 38 34 37 33 30 25 24 24 25 26 26 24 22 22 23 23 24 21 17 11 7 5 6 10 12 14 14 13 14 15 17 18 20
13 6 3 5 6 8 6 10 23 9 6 5 10 21 29 35 36 39 39 36 32 29 29 28 28 28 25 23 21 20 21 21 20 18 13 9 6 5 8 10 12 13 13 14 15 17 18 20 21
16 13 4 6 5 4 11 11 13 14 24 36 39 32 25 30 37 41 44 41 36 33 32 33 32 29 26 23 24 23 22 20 18 14 10 7 5 6 9 11 12 13 14 15 17 19 21 22 22
6 11 17 5 3 3 5 8 8 13 13 10 15 21 27 30 36 42 47 43 40 36 35 35 33 30 28 27 26 24 21 18 14 12 9 6 6 8 9 11 13 14 15 17 19 21 22 23 24
9 6 4 5 5 6 9 8 11 5 17 23 12 13 23 29 35 41 48 46 40 36 35 33 31 30 29 27 24 22 19 16 14 11 7 5 6 8 10 12 13 14 16 19 21 23 23 24 24
9 7 5 2 4 4 5 8 9 15 18 17 10 16 28 34 40 43 46 42 38 35 34 33 31 31 29 26 24 21 19 17 13 9 6 5 7 9 11 12 14 16 19 22 23 24 24 25 26
16 17 16 7 7 9 8 16 5 8 12 9 8 20 24 27 33 41 44 40 38 35 34 33 31 29 27 25 23 20 18 15 11 7 5 5 7 10 11 13 16 18 21 22 24 25 25 26 27

GFSSGP_850_spd_030.txt.gz
Wind_Speed
11 11 12 6 3 4 3 5 1 5 2 1 4 4 4 3 4 4 11 10 7 9 12 17 16 12 11 9 7 4 1 4 4 4 7 9 8 12 5 3 2 3 3 4 6 7 8 11 12
10 9 6 1 4 2 5 4 4 3 9 12 4 6 1 2 2 3 10 9 10 9 12 13 15 12 11 8 7 5 2 4 4 2 13 9 11 4 3 3 5 4 3 2 3 9 7 7 6
8 6 2 4 3 6 5 4 4 7 16 4 2 2 3 1 2 8 5 8 10 13 12 12 15 14 11 9 7 5 4 4 3 2 15 12 8 4 6 6 6 7 5 5 3 2 2 3 5
3 2 3 3 8 6 5 2 4 10 8 1 2 2 1 2 3 4 4 8 9 13 13 11 15 14 11 9 7 5 3 3 2 2 6 7 8 4 3 2 5 7 6 7 8 6 4 3 3
4 1 1 2 6 4 4 5 7 5 6 5 4 2 1 2 5 4 5 7 8 12 12 12 14 14 12 10 8 5 3 3 3 5 8 7 6 5 3 2 3 5 6 6 6 7 6 5 5
4 3 2 5 6 3 5 7 5 4 8 8 4 5 3 3 3 5 7 6 7 8 9 11 14 13 12 11 8 5 4 3 2 5 7 9 6 4 4 5 3 3 4 5 6 6 5 5 5
5 4 5 4 4 5 5 6 4 5 6 5 4 3 2 5 5 5 8 8 6 7 8 8 10 11 12 11 8 6 4 2 1 3 7 7 7 6 4 4 4 2 2 3 3 3 3 3 4
3 3 3 6 6 7 3 4 3 2 4 4 3 3 1 4 8 7 9 10 9 8 8 7 8 10 11 10 9 7 5 3 2 3 6 7 7 7 7 6 3 0 1 2 3 3 3 3 3
4 1 5 5 7 5 1 1 2 6 5 6 3 4 3 4 9 10 10 11 11 12 11 10 9 10 11 10 10 8 6 4 4 4 5 8 8 6 5 4 2 1 1 2 3 3 3 3 3
5 4 6 5 6 3 2 4 6 5 11 6 5 5 7 9 12 12 10 10 11 11 12 13 11 11 12 13 12 10 8 5 5 7 5 5 7 7 6 4 2 1 1 1 2 3 4 4 6
4 7 3 4 7 8 5 7 7 3 4 14 5 11 3 12 15 13 10 11 9 8 10 10 12 13 14 14 13 11 9 7 7 9 7 6 6 5 4 3 3 3 2 3 3 4 6 7 8
3 6 6 6 11 7 3 4 7 9 12 9 12 12 13 9 13 12 11 11 12 13 14 14 14 15 15 15 14 12 10 8 9 9 8 5 5 4 4 3 3 3 4 4 5 4 5 9 12
4 3 7 7 11 16 18 15 13 18 25 27 27 23 19 18 16 15 15 15 16 16 18 20 20 20 18 17 15 13 11 9 9 9 7 5 4 5 5 4 4 4 3 4 5 8 10 12 15
2 5 8 8 10 11 10 17 14 19 17 24 22 22 22 21 22 20 19 20 20 19 21 20 23 24 23 20 18 14 12 11 10 9 8 8 7 6 7 6 6 6 5 6 9 11 12 16 16
5 5 6 7 10 7 9 15 17 28 31 32 36 34 30 26 23 25 22 20 19 24 25 24 23 24 26 24 19 17 14 15 13 11 10 7 6 6 5 5 5 6 9 10 12 14 14 14 16
3 1 3 4 6 8 11 19 8 16 29 30 37 36 32 32 28 28 28 25 23 24 27 23 24 24 27 26 22 20 19 16 16 14 12 9 8 5 6 4 6 9 10 10 11 13 16 19 21
4 8 5 6 3 4 10 5 2 7 12 19 24 30 30 31 31 28 28 24 23 25 25 24 24 25 26 28 25 25 22 18 17 17 15 11 8 8 10 8 8 9 8 10 13 16 19 21 21
4 7 10 8 3 5 9 15 14 20 24 23 26 30 29 29 34 29 29 26 25 25 22 20 22 23 26 31 29 27 24 20 20 19 16 13 11 11 10 8 7 7 8 11 14 17 19 21 21
4 3 9 4 7 7 12 17 18 19 21 21 26 28 31 34 31 27 25 24 23 22 20 19 20 22 27 34 32 30 28 25 24 21 18 15 11 10 9 7 6 6 9 13 16 17 18 19 20
8 13 19 13 12 10 13 24 19 17 22 27 25 31 29 36 37 34 28 24 22 22 21 20 20 22 29 35 34 33 30 27 23 21 18 13 10 9 9 7 6 7 11 15 17 18 17 18 20
6 11 8 14 9 12 12 25 17 18 26 36 35 36 38 34 37 36 31 26 24 25 23 20 20 23 28 32 33 33 31 28 25 20 16 13 12 11 10 7 6 8 12 16 17 17 17 16 17
13 7 14 13 6 7 3 10 5 4 10 11 22 26 32 38 36 37 30 25 27 26 23 20 20 25 27 32 34 34 31 26 25 20 16 15 15 12 9 6 6 10 13 15 16 16 17 17 18
4 6 8 10 8 6 8 6 5 5 8 9 9 24 30 34 37 38 35 27 26 28 25 21 20 24 28 31 33 33 30 26 23 19 17 17 15 11 7 5 8 11 13 14 15 15 16 18 19
3 4 4 3 4 11 11 9 13 7 9 8 10 24 29 31 31 31 31 27 29 29 24 22 21 23 26 29 32 29 26 23 23 21 20 18 14 9 5 6 9 12 13 14 14 15 17 18 19
9 3 3 5 6 7 6 11 22 6 9 8 10 22 23 25 29 29 31 30 32 31 27 24 23 25 26 29 29 27 24 21 21 21 20 16 11 7 5 7 10 12 13 14 15 16 18 19 20
17 10 5 5 5 4 5 8 9 9 17 28 29 32 28 20 20 28 30 32 36 34 31 28 27 28 29 29 27 24 20 20 21 20 17 13 8 5 6 8 10 12 13 14 16 18 19 20 21
5 11 14 5 3 3 5 8 11 9 10 12 11 24 29 28 29 24 26 33 39 38 35 32 32 31 30 28 25 24 23 23 22 19 15 10 6 5 6 9 11 13 14 16 18 19 20 21 21
8 1 4 6 5 5 6 7 12 9 17 14 11 13 27 25 22 26 30 36 42 40 37 34 33 31 30 27 26 26 24 22 19 15 11 8 6 6 7 10 12 14 16 17 19 20 21 21 22
8 9 6 3 4 4 4 6 6 11 7 9 16 21 27 28 29 28 33 40 43 40 37 36 35 32 30 28 27 26 24 20 17 13 10 7 6 6 8 11 13 14 16 19 20 21 22 23 24
18 13 17 7 6 4 3 17 6 5 6 7 13 22 19 23 27 31 36 40 41 39 36 37 35 32 29 28 26 24 21 18 15 12 8 6 6 7 10 12 14 16 18 20 22 23 24 25 26

GFSSGP_850_spd_033.txt.gz
Wind_Speed
10 9 10 6 1 2 2 3 1 3 1 2 8 4 3 2 3 2 7 12 9 13 15 18 17 13 11 7 5 4 2 1 1 3 6 10 8 10 4 4 2 3 5 7 9 7 12 11 9
8 7 4 2 2 1 3 3 4 2 6 10 3 4 1 2 2 2 11 9 11 13 14 16 18 13 11 8 5 3 1 4 3 3 12 9 8 6 3 5 5 5 3 2 6 7 6 8 9
7 4 1 2 3 5 4 4 4 5 10 2 2 4 2 2 2 8 6 10 11 14 14 15 16 13 10 7 6 3 1 3 3 7 13 8 8 5 8 8 6 6 6 4 3 4 3 3 4
2 1 3 2 9 4 4 1 2 7 4 3 3 4 3 4 4 8 6 10 11 15 15 14 15 12 10 7 6 3 1 3 3 6 14 11 8 8 4 5 7 7 7 8 8 6 5 3 2
5 2 2 2 6 3 4 5 4 4 5 7 6 2 2 4 6 5 7 9 11 14 15 14 16 14 11 8 5 3 0 2 1 3 8 9 8 4 2 3 5 5 5 6 6 6 5 4 5
5 4 2 8 7 3 5 9 4 2 7 7 3 3 3 3 6 7 10 9 9 11 13 14 16 14 12 9 6 4 1 0 1 4 7 10 5 3 4 4 4 3 3 4 4 4 3 3 3
6 4 4 4 4 5 5 7 5 5 3 5 3 2 2 5 6 8 11 10 10 11 11 12 14 15 13 10 7 4 2 1 2 4 8 10 7 6 5 5 3 1 1 2 2 3 3 4 4
6 3 5 5 8 8 3 6 3 4 2 3 3 3 2 3 8 8 11 11 10 10 11 10 12 14 13 12 9 6 4 3 3 5 9 10 10 8 7 7 4 2 0 1 2 2 2 2 2
6 2 6 7 8 5 0 3 4 4 4 5 3 5 4 3 9 9 11 11 11 11 11 11 11 12 13 12 11 9 6 5 5 6 8 10 9 9 9 7 6 3 1 1 1 1 1 2 3
4 3 8 6 6 3 2 1 5 4 7 5 11 4 8 10 12 13 11 9 10 10 12 12 11 11 13 13 13 10 8 6 6 7 7 8 9 9 8 6 4 4 3 1 1 3 3 4 5
4 5 3 2 2 4 3 5 4 4 5 13 11 11 4 6 13 14 12 10 7 7 10 11 12 12 12 13 13 12 10 8 8 9 8 8 8 8 7 6 5 4 3 3 3 4 5 6 7
2 7 6 6 10 8 4 4 6 9 17 14 12 10 11 11 9 14 13 11 9 8 8 10 12 13 14 14 14 13 12 9 10 11 9 8 8 6 6 5 4 4 3 3 3 4 4 8 11
3 3 6 8 8 10 13 16 14 21 28 24 22 24 24 21 16 14 14 14 14 13 11 12 13 16 16 15 15 15 13 12 11 12 10 8 7 5 5 5 4 4 3 3 4 7 9 11 13
2 3 8 10 12 13 12 20 13 18 23 29 31 30 30 27 22 19 20 18 17 16 15 15 15 16 20 20 17 17 16 14 14 11 10 9 8 7 5 6 6 6 5 6 8 11 12 13 13
3 4 6 9 11 8 9 15 16 27 27 29 31 31 30 31 29 25 22 23 19 17 16 20 20 19 21 24 21 19 18 17 14 13 11 9 8 7 6 7 7 7 8 9 9 11 12 13 15
3 2 3 3 2 8 13 15 9 14 15 26 31 35 37 40 38 33 28 25 24 21 22 22 25 26 22 24 25 23 21 19 17 16 14 12 11 9 6 7 7 6 7 8 8 11 14 17 18
4 4 6 5 2 4 10 6 2 5 8 11 14 22 29 34 37 40 34 30 29 25 23 25 25 27 23 24 27 26 25 23 20 19 18 18 14 11 7 7 9 7 6 7 9 13 16 18 17
4 4 4 6 1 4 14 19 16 22 22 23 19 25 28 28 26 24 29 32 28 24 25 26 27 26 25 24 29 31 29 27 23 21 20 20 16 11 7 8 7 6 6 8 10 13 15 16 17
1 3 10 7 6 11 16 22 19 24 25 24 27 29 29 35 34 27 26 28 29 28 27 27 26 26 25 26 32 35 34 31 25 24 23 21 17 13 8 9 7 7 6 7 10 12 14 15 17
9 14 16 15 14 11 17 27 18 18 24 29 31 31 32 39 38 35 31 28 27 23 24 24 24 22 22 24 32 38 36 32 28 28 27 22 16 13 9 10 9 7 6 8 10 12 14 16 17
7 11 10 13 10 13 17 25 17 15 23 29 34 36 35 36 39 40 37 33 28 26 24 23 24 22 22 24 31 35 34 30 30 30 26 22 16 13 11 11 9 6 7 9 11 13 13 14 16
13 8 12 12 7 6 3 11 9 6 12 11 18 25 32 37 39 41 41 35 31 27 25 24 24 23 22 25 31 36 38 34 34 31 26 20 15 14 13 11 8 7 8 10 11 13 15 15 15
6 5 8 8 8 11 13 7 8 2 5 8 11 25 28 32 32 36 40 36 31 28 26 26 26 24 23 26 31 36 37 34 33 30 25 21 18 16 13 10 7 7 8 10 12 14 15 16 16
2 3 6 4 7 9 11 11 19 7 7 5 11 20 23 26 29 32 34 34 33 29 28 27 26 25 25 28 32 35 35 32 33 29 24 20 18 17 13 9 6 6 8 10 12 14 15 16 17
11 4 2 4 6 8 5 11 21 8 18 16 12 21 25 22 21 24 27 28 31 33 30 28 26 26 27 29 32 33 35 32 28 26 24 21 21 17 12 8 6 7 9 11 13 14 15 16 17
13 11 5 6 5 5 2 9 10 13 19 23 20 20 25 28 26 20 20 26 30 33 32 30 28 27 28 30 31 34 35 30 27 25 23 22 18 13 9 6 6 8 10 12 13 14 16 17 18
5 10 8 8 13 10 8 13 11 14 11 9 10 16 22 27 27 23 24 25 29 35 35 33 31 29 29 29 31 35 31 26 27 25 23 20 16 11 7 6 6 9 11 12 14 15 17 17 18
8 2 4 5 5 9 5 7 11 7 10 10 4 9 20 28 24 23 20 23 26 34 37 36 32 31 31 30 30 30 27 28 27 25 22 17 13 8 6 5 7 9 11 13 15 16 17 18 19
8 8 7 3 5 6 9 10 7 10 10 6 4 12 21 27 23 23 25 27 29 36 39 36 34 33 34 32 31 30 31 29 26 22 18 14 10 7 5 6 8 10 12 14 15 16 17 19 20
16 12 17 8 10 6 5 20 3 6 5 3 9 16 21 24 17 15 23 27 31 37 38 36 36 35 33 33 32 32 31 28 24 20 16 11 8 5 5 6 8 11 13 15 16 17 19 20 22

GFSSGP_850_spd_036.txt.gz
Wind_Speed
8 7 7 4 5 5 6 4 2 3 4 2 3 6 4 7 2 1 3 13 12 15 18 17 15 12 11 9 8 7 5 2 2 4 10 8 8 6 5 5 1 2 9 8 8 6 9 7 5
6 4 3 2 6 8 7 5 8 1 5 7 7 7 8 2 1 2 10 10 14 16 17 17 16 13 11 8 7 5 3 2 3 6 12 11 8 9 7 4 4 3 4 7 10 6 10 11 9
4 2 5 4 7 12 5 6 6 2 4 3 3 4 3 1 1 5 5 10 15 17 18 17 17 14 11 9 8 5 3 3 5 13 14 10 7 7 8 7 6 6 5 4 5 6 5 6 6
5 3 3 9 15 8 7 3 4 3 2 1 3 5 2 3 3 6 6 9 14 17 16 16 17 14 12 9 7 5 2 3 7 14 14 9 9 9 7 6 7 6 6 8 7 5 4 3 2
8 5 8 11 18 12 9 6 6 6 5 4 5 1 2 1 5 7 6 10 14 16 15 15 16 13 11 9 7 4 2 3 6 9 11 10 10 7 4 4 5 5 5 5 5 5 4 3 3
9 7 8 15 17 10 11 13 11 11 7 6 4 5 2 3 4 7 10 11 13 15 15 13 16 13 11 9 6 4 2 2 4 8 12 14 8 5 4 2 2 2 2 3 3 3 3 3 2
14 9 15 17 15 14 13 10 13 12 11 7 3 5 1 2 5 8 12 12 14 15 14 13 15 16 13 9 7 5 3 2 3 6 10 11 8 6 5 6 4 2 1 1 2 1 2 2 2
9 6 14 12 16 18 6 9 8 9 8 2 3 6 5 1 8 10 12 12 13 15 14 14 14 14 13 12 9 6 4 3 4 6 11 11 10 8 8 8 5 4 1 1 1 1 1 1 2
6 7 12 19 15 10 5 9 12 5 8 4 5 4 2 3 11 11 12 14 13 14 14 14 14 14 13 13 11 9 7 5 5 7 11 10 8 11 8 10 7 5 3 2 1 1 1 3 4
11 10 15 7 11 7 6 9 4 6 12 13 9 5 3 6 11 12 12 12 13 14 15 14 14 14 14 13 13 11 9 8 6 7 8 9 9 9 11 9 7 6 4 3 3 2 2 3 2
10 13 9 6 8 4 9 11 10 12 14 15 14 9 3 1 6 11 13 12 12 13 14 15 15 14 15 14 13 13 12 10 10 10 10 9 11 10 9 8 6 5 5 3 3 2 4 5 6
8 12 12 9 11 7 10 10 15 18 24 12 9 9 10 9 8 10 13 12 12 13 13 13 14 14 14 14 15 14 13 13 11 12 11 10 9 10 7 6 7 5 4 3 4 4 6 7 10
9 9 10 12 12 14 16 22 23 24 23 22 21 19 19 18 15 13 12 14 14 14 13 14 15 16 15 17 16 16 16 15 13 14 14 12 11 9 7 6 5 6 6 5 5 6 9 11 13
2 7 10 11 16 16 17 24 23 23 23 29 31 31 29 27 23 18 16 16 16 16 15 15 15 16 18 19 18 18 18 16 15 15 15 12 10 9 8 7 7 7 8 7 8 9 11 12 12
7 11 13 16 15 14 12 21 21 27 29 32 30 29 29 31 30 26 22 19 17 18 16 17 17 18 19 20 21 20 19 18 17 16 15 13 11 9 7 7 9 10 10 10 9 11 10 11 14
5 6 6 3 1 5 9 16 6 12 17 20 25 29 31 31 32 32 28 24 19 17 18 18 18 19 21 22 22 22 21 21 19 19 17 15 13 11 10 7 8 12 10 9 9 8 10 13 15
8 8 9 10 4 4 10 12 3 3 11 15 16 17 20 24 29 32 32 29 25 21 20 23 22 22 21 21 22 23 23 22 22 23 20 18 17 15 13 9 7 10 9 8 6 8 11 14 14
5 12 9 11 2 9 17 22 20 25 26 26 24 24 25 25 24 23 26 29 28 29 27 26 25 23 25 22 22 23 23 24 28 26 23 21 20 18 16 12 8 9 8 6 6 9 12 13 13
5 7 11 10 9 17 19 22 21 26 30 31 32 32 34 33 29 27 25 23 23 27 31 27 28 26 26 26 25 27 29 36 32 29 26 24 24 22 19 13 10 10 8 5 6 9 11 13 14
14 16 17 15 13 14 19 32 24 25 32 35 33 35 36 37 35 34 30 29 26 24 27 30 29 28 27 26 26 24 33 37 34 31 28 27 26 22 20 14 13 11 8 6 6 8 11 13 14
16 16 15 17 16 18 21 27 15 8 16 22 29 36 36 36 35 34 35 33 30 27 26 28 28 29 27 26 26 34 38 39 35 32 30 31 28 23 18 16 13 11 8 6 6 8 9 12 13
14 8 12 13 8 6 3 12 18 16 15 14 18 21 24 25 28 32 33 33 33 30 32 30 29 28 28 29 28 32 37 41 34 33 33 31 27 23 18 15 14 11 8 7 7 8 9 10 11
7 5 7 8 11 14 15 7 14 5 13 12 16 22 19 19 22 27 28 31 29 29 35 32 31 30 30 27 27 29 32 37 36 35 34 30 25 18 19 16 14 10 7 7 7 9 10 11 11
2 6 9 10 6 8 17 16 20 14 12 10 9 10 12 13 15 20 22 22 26 26 33 34 33 32 30 28 27 30 35 39 36 35 34 29 24 23 20 17 13 9 7 7 8 9 11 12 12
10 3 3 4 6 8 2 10 22 10 5 13 20 25 18 18 18 19 18 20 22 26 32 33 33 33 31 28 28 32 33 36 31 35 34 30 25 23 20 17 12 8 7 7 8 10 11 12 13
15 9 5 6 6 8 4 11 10 11 11 19 22 16 14 16 17 19 18 16 21 27 32 33 35 33 31 30 30 31 31 35 32 35 32 29 25 21 19 15 10 7 6 7 8 10 11 13 14
5 9 12 14 20 15 11 22 24 25 22 20 24 22 13 12 17 16 17 16 18 22 31 35 35 34 32 31 31 30 32 34 38 34 30 28 24 21 17 12 8 6 6 7 9 10 12 13 14
12 3 4 6 6 10 13 20 14 14 9 7 9 10 10 15 19 17 14 15 17 21 28 31 32 32 32 31 31 31 32 33 35 31 29 25 22 18 14 10 7 5 6 7 9 11 12 14 16
10 8 7 8 9 6 14 9 2 10 10 15 4 5 11 15 20 19 12 12 15 19 25 30 31 32 31 32 32 32 32 33 31 30 28 25 20 15 11 8 5 5 7 9 10 12 14 16 18
15 15 19 9 13 11 16 23 7 12 9 4 4 11 11 16 17 15 7 12 16 21 24 28 31 31 33 34 33 32 32 31 32 29 27 22 17 13 9 6 5 6 8 10 11 13 16 17 18

GFSSGP_850_spd_039.txt.gz
Wind_Speed
7 8 7 7 6 6 12 8 10 6 5 10 3 6 7 12 7 1 10 5 12 18 18 16 16 13 9 8 7 7 6 4 4 7 8 6 4 4 3 6 2 4 8 8 5 5 8 5 2
6 6 7 10 7 11 11 12 8 7 2 4 9 10 9 7 5 5 11 9 15 18 17 16 16 13 10 9 8 6 4 3 5 8 12 11 7 6 6 1 3 3 6 9 8 7 8 6 5
4 5 10 5 12 14 12 6 8 3 5 6 5 6 3 2 4 8 6 12 16 16 15 17 15 13 10 8 7 5 3 2 6 12 14 9 5 3 6 5 5 5 4 5 8 8 8 9 8
5 8 9 10 17 16 16 1 3 7 5 3 2 5 5 2 4 6 11 13 16 16 15 18 15 13 10 8 7 4 2 3 9 14 14 7 6 8 7 7 7 7 7 6 5 4 3 2 2
11 12 11 15 21 20 7 10 7 7 2 6 3 8 2 4 7 7 12 13 16 16 14 15 16 13 10 8 7 4 2 3 7 12 10 8 12 8 7 6 6 5 5 5 5 5 4 3 2
13 13 12 16 21 19 15 12 12 12 10 8 8 10 3 6 6 9 11 12 15 16 14 13 15 12 10 8 7 4 3 4 6 10 11 12 9 7 4 2 3 3 3 3 3 3 2 2 2
16 11 16 20 18 18 15 13 13 14 15 12 8 8 6 6 6 9 10 12 14 14 14 12 15 13 11 8 6 5 4 3 6 9 13 12 8 6 5 5 3 1 0 1 1 2 2 2 2
19 14 21 19 19 21 12 11 13 15 15 4 5 8 6 8 6 9 10 11 13 15 15 13 14 15 15 12 10 7 5 4 5 10 13 10 8 6 4 8 8 3 2 1 1 1 1 2 2
12 14 16 21 22 15 6 7 15 10 12 8 11 13 3 3 7 9 10 10 12 14 15 15 15 15 13 13 11 10 9 7 6 8 11 9 6 5 6 8 6 4 2 1 0 1 2 4 5
12 14 20 16 15 16 13 13 13 10 18 19 13 11 2 2 7 11 11 12 13 14 16 16 17 16 16 14 15 13 11 10 8 8 10 10 8 8 10 9 7 5 4 2 2 3 3 6 4
15 20 14 11 10 10 13 13 16 12 15 18 21 16 10 5 9 13 14 13 14 15 16 17 17 17 17 17 14 14 14 9 9 10 10 10 11 13 11 6 6 3 3 4 6 5 1 4 4
15 18 23 12 8 11 12 17 19 22 21 17 14 10 6 9 11 13 15 16 15 16 17 17 17 18 17 15 16 13 12 12 11 13 13 12 11 10 8 7 7 6 2 5 4 3 5 6 7
13 16 13 16 17 17 17 20 20 22 21 21 23 19 19 18 17 15 14 17 17 17 17 18 18 19 19 18 16 16 14 15 15 13 14 12 11 10 10 9 6 6 8 5 2 3 3 6 9
2 12 16 17 18 19 19 22 23 20 26 29 29 28 27 26 23 20 18 17 19 19 18 17 19 19 18 19 18 16 16 17 17 15 16 15 12 11 9 9 11 8 6 6 6 6 8 10 10
9 13 15 20 22 15 12 19 24 33 30 32 29 28 30 32 30 29 25 22 20 20 19 19 19 19 19 19 19 17 17 18 21 17 17 16 17 14 11 8 7 9 9 10 10 9 9 9 11
8 11 13 3 6 10 11 16 7 9 22 24 29 30 32 31 31 33 30 28 24 21 21 20 20 21 21 20 19 18 18 20 23 20 19 20 16 14 13 11 9 8 13 13 10 8 8 9 11
12 9 14 10 7 7 13 12 8 3 11 17 18 21 23 27 31 32 32 32 29 26 23 22 21 21 21 22 21 20 20 22 24 23 21 21 18 16 15 13 10 8 9 11 8 7 7 8 10
12 15 13 11 5 8 15 21 20 25 25 24 24 23 24 26 25 27 31 33 34 31 28 25 24 22 20 21 22 21 21 25 26 26 23 24 22 20 20 16 13 10 9 9 7 6 7 8 10
9 9 12 10 7 15 20 23 20 22 26 27 28 29 31 32 28 28 27 28 32 35 34 31 28 26 22 23 23 25 26 27 29 29 29 26 25 23 21 18 15 12 11 10 7 6 7 9 11
13 14 15 14 13 12 17 29 24 25 28 30 31 34 36 35 34 34 33 32 32 34 35 33 31 27 26 24 24 24 28 31 36 34 33 31 29 26 23 20 17 14 12 10 7 6 7 10 11
13 14 13 14 16 18 22 26 19 15 19 27 31 33 36 37 35 35 36 37 36 36 36 35 34 30 28 26 23 25 32 38 42 41 35 32 29 27 24 21 18 15 13 10 7 6 7 10 11
11 9 10 11 9 6 5 11 16 16 17 15 18 20 22 24 27 31 35 35 37 38 36 36 33 32 31 30 29 34 37 42 44 41 36 35 31 30 25 22 18 17 13 10 8 7 7 8 9
6 3 5 8 10 14 15 9 13 9 11 13 15 18 18 18 18 21 24 29 34 32 36 33 32 30 30 33 31 35 31 26 34 38 36 33 31 28 24 23 19 17 13 10 7 7 8 8 8
4 3 6 7 6 8 16 16 19 8 9 6 6 6 7 7 13 15 18 21 26 31 28 33 32 31 28 32 33 31 27 31 34 38 36 33 31 29 26 22 20 17 13 9 8 8 8 9 10
8 1 2 4 5 8 2 10 17 16 10 7 8 14 19 12 11 18 19 19 21 26 32 28 30 30 31 31 29 26 29 31 31 35 36 35 33 30 26 23 19 16 12 9 7 8 9 10 11
12 8 4 5 7 11 5 10 8 10 5 6 14 22 21 15 16 10 17 22 20 25 29 31 30 30 30 29 28 25 33 29 31 34 33 35 32 28 24 22 19 15 11 8 7 8 10 11 12
6 8 10 11 16 11 9 20 24 21 21 14 19 20 24 22 13 13 13 17 22 22 27 31 32 31 29 28 27 31 30 30 33 33 33 34 31 27 24 21 17 13 9 7 7 9 11 12 13
12 0 2 4 5 10 10 19 14 13 12 7 13 12 12 9 11 13 13 16 19 20 24 29 28 29 28 27 29 29 29 31 33 30 34 34 29 25 22 19 14 11 7 6 7 9 11 12 14
11 9 7 8 7 6 12 9 10 10 12 13 14 16 3 10 14 18 17 15 14 18 21 26 27 27 28 30 30 30 30 30 32 31 32 29 23 22 19 15 11 8 6 6 8 10 12 14 15
14 14 17 7 8 8 11 21 12 13 13 9 13 6 11 12 17 16 17 10 10 15 20 25 25 27 30 29 28 29 29 30 31 32 30 25 23 20 16 13 9 6 5 7 9 11 13 15 16

GFSSGP_850_spd_042.txt.gz
Wind_Speed
8 4 7 8 2 4 8 11 1 3 2 7 6 5 7 13 3 3 15 9 14 14 17 15 15 13 10 10 11 10 9 8 8 8 6 4 3 2 1 6 4 7 10 10 8 8 7 7 3
8 2 7 7 4 6 9 15 6 2 5 8 9 6 8 1 10 11 14 14 17 13 18 17 15 12 10 10 11 9 7 6 8 12 9 8 4 0 3 3 5 6 8 8 6 7 7 6 5
7 1 9 4 5 10 9 6 7 8 6 3 8 14 10 5 10 13 8 19 18 12 14 17 15 11 10 9 9 7 5 5 8 14 12 7 2 2 4 6 7 6 5 5 7 5 7 4 5
3 6 10 5 13 13 17 12 5 6 3 3 7 4 6 7 6 9 12 19 20 12 12 15 15 13 10 8 7 6 6 7 12 12 10 7 5 8 7 8 8 8 8 6 5 4 3 3 3
9 7 6 8 14 16 15 9 5 1 4 3 6 8 9 7 7 9 16 19 18 19 15 12 13 13 11 9 8 6 6 8 13 15 10 6 11 8 7 8 8 8 8 8 7 6 5 4 4
8 6 5 12 15 14 15 18 5 4 13 10 1 11 6 10 12 12 16 20 19 18 16 15 16 13 11 9 8 6 6 7 11 12 10 12 11 8 6 6 6 6 6 5 5 4 4 4 4
11 6 9 13 13 12 11 19 8 9 10 11 10 4 13 16 12 13 14 17 19 14 13 13 17 15 13 10 8 7 6 6 9 12 13 13 10 6 5 3 2 3 3 2 3 3 4 4 4
12 5 14 12 12 14 14 12 13 11 12 13 1 2 6 9 11 14 14 17 17 18 12 9 17 17 16 13 11 9 7 7 8 10 13 11 9 8 5 6 5 0 1 1 3 3 3 3 3
16 6 10 15 14 13 20 3 5 6 12 15 5 13 7 10 12 14 15 16 18 17 17 11 10 15 15 14 13 11 9 8 9 11 11 9 9 5 6 9 7 3 1 1 2 2 3 4 6
7 8 11 10 12 10 16 5 8 7 13 15 13 10 3 6 11 13 16 16 17 19 19 18 14 13 13 14 12 11 11 9 9 10 11 11 10 6 7 6 6 3 2 1 1 2 4 5 5
10 13 10 16 22 7 13 16 4 8 6 11 17 16 15 8 11 14 14 15 18 16 19 19 20 15 14 19 13 14 14 12 10 8 10 13 13 15 11 8 7 4 2 3 4 3 2 1 5
16 15 20 22 18 5 7 12 14 14 17 17 21 12 3 13 11 13 15 16 18 19 18 20 21 21 21 20 16 16 17 13 11 9 10 15 16 15 14 8 5 4 5 3 2 5 6 2 3
12 16 17 16 16 12 12 13 13 22 19 22 25 23 12 10 11 12 14 16 17 19 20 21 22 24 23 24 20 16 13 12 15 17 16 15 18 13 9 9 8 7 10 12 11 8 5 4 5
7 10 16 22 12 14 14 15 20 15 23 29 27 25 22 20 19 18 17 17 18 20 21 22 23 25 28 25 23 18 12 17 20 19 16 16 13 12 15 14 13 16 15 13 9 8 7 7 6
5 7 11 15 15 10 9 15 17 31 32 30 28 29 31 30 26 26 25 22 21 21 24 24 24 26 26 27 25 19 22 20 21 19 16 19 17 16 15 16 14 12 12 12 10 9 8 6 6
4 9 7 9 19 19 17 14 11 19 29 32 32 30 31 30 31 33 32 31 25 24 24 23 26 26 26 25 26 25 24 23 23 20 19 22 22 23 18 13 11 10 13 14 12 10 7 6 6
9 6 12 10 6 5 7 6 10 10 8 12 20 28 29 31 32 31 31 35 34 28 27 27 28 30 26 24 24 24 25 26 23 22 22 20 26 22 18 17 15 13 11 13 12 9 7 6 6
8 13 11 9 6 4 8 14 13 23 24 21 20 21 21 22 25 26 32 35 33 35 33 31 27 30 29 28 29 26 26 27 25 24 25 26 26 23 22 21 18 15 12 10 11 9 7 5 6
13 9 9 10 8 7 9 16 15 19 23 25 27 27 30 33 29 28 28 30 33 36 35 37 36 34 33 35 33 32 31 30 28 26 26 30 32 26 26 23 20 16 13 12 12 10 7 5 6
8 9 10 9 10 8 11 19 17 20 23 28 30 29 30 31 32 34 33 30 35 37 36 35 33 32 33 33 35 36 33 31 29 29 32 33 31 31 28 26 22 19 14 13 12 9 7 5 6
8 7 8 10 11 11 14 18 12 11 26 33 35 36 33 31 32 35 37 35 35 37 40 36 33 35 35 33 34 35 33 33 35 36 36 38 38 33 30 28 24 20 16 15 12 9 7 6 6
7 3 6 6 6 4 8 7 6 9 8 8 19 24 25 28 31 34 36 34 33 40 36 37 38 36 37 38 38 41 41 41 43 42 41 42 36 33 32 30 25 21 17 16 13 10 7 8 8
5 5 4 5 6 7 5 4 6 3 6 6 7 11 18 18 19 22 24 25 31 36 27 39 37 37 40 38 41 42 43 43 41 42 43 41 34 34 33 30 25 21 20 17 14 11 8 7 8
6 3 4 4 1 4 11 9 5 3 1 1 5 7 27 15 7 11 11 15 18 22 30 31 32 39 36 38 41 44 44 42 41 41 42 39 34 34 32 29 26 23 19 17 14 10 8 7 8
6 3 2 2 3 6 3 8 11 14 13 11 6 3 8 12 10 11 10 15 19 21 25 26 29 36 39 36 40 41 42 40 36 38 39 39 37 36 33 30 27 23 19 16 13 9 8 8 9
9 5 3 5 2 4 6 7 6 11 15 6 5 10 15 18 12 10 13 13 20 20 23 27 30 30 36 37 38 39 40 33 33 29 31 34 37 35 33 28 25 21 19 15 11 9 8 9 10
5 5 2 4 5 2 5 6 9 19 14 9 7 8 11 19 19 11 6 13 19 20 24 26 28 31 32 36 37 35 32 32 30 28 31 36 36 35 31 28 24 21 17 12 9 8 9 10 11
7 4 2 1 2 5 5 8 6 6 7 8 9 12 24 9 7 4 9 13 20 22 22 21 27 32 32 35 33 34 35 33 27 28 36 36 35 33 30 26 22 19 15 11 8 8 9 9 12
7 5 3 3 4 3 5 4 5 3 2 7 8 13 10 7 7 8 14 20 22 15 17 21 26 28 29 31 36 38 37 32 28 30 33 34 35 32 27 23 19 15 12 9 8 8 9 10 12
7 7 9 4 5 5 3 11 21 6 6 7 15 15 16 9 6 15 7 17 16 11 13 20 24 28 34 35 38 38 32 29 29 32 33 33 31 27 24 20 17 13 8 7 6 7 10 12 14

GFSSGP_850_spd_045.txt.gz
Wind_Speed
8 5 2 5 3 4 4 7 3 7 3 5 9 6 3 2 2 2 12 14 9 18 21 19 19 16 16 16 16 14 13 12 11 9 6 5 4 3 0 3 8 13 13 11 12 11 9 7 5
8 5 3 2 4 1 5 9 12 7 4 7 8 6 3 2 6 14 14 12 14 18 22 20 20 17 16 16 15 14 12 12 12 11 8 8 5 2 1 6 8 11 12 10 9 10 9 6 4
9 5 1 4 4 6 5 4 9 4 9 7 4 7 2 3 9 21 11 16 13 19 21 20 18 16 15 15 15 13 11 12 15 16 14 10 4 4 7 8 9 9 9 8 7 5 8 5 4
8 5 4 2 8 8 11 7 7 2 6 4 2 3 7 7 9 13 20 15 16 15 18 20 18 16 15 15 13 12 11 13 17 18 14 9 6 9 9 9 10 10 9 8 7 5 4 3 3
8 3 2 4 9 7 8 12 19 3 4 5 4 2 6 6 8 15 23 16 16 14 15 18 16 16 14 13 11 10 11 15 16 16 13 10 10 10 9 10 10 10 10 10 9 8 7 7 7
4 3 2 9 6 6 10 24 16 4 4 1 3 1 4 10 10 19 25 19 15 13 15 15 15 15 14 12 10 10 11 14 16 14 11 13 13 11 10 10 10 10 9 9 8 8 7 8 8
6 3 6 4 5 6 11 25 9 10 5 6 5 3 10 14 10 18 25 20 17 16 15 14 15 15 14 12 11 10 10 12 15 14 13 15 12 10 8 7 7 8 7 7 7 7 8 7 7
8 4 4 6 8 7 12 9 14 16 10 9 2 3 6 16 13 16 22 21 20 18 16 14 20 19 18 16 13 11 10 11 13 14 13 12 10 8 8 7 6 5 5 6 6 7 7 6 5
14 2 5 7 7 5 22 4 7 3 8 6 3 8 20 14 16 18 22 21 20 19 17 14 18 20 19 16 15 13 11 11 12 12 14 13 11 9 8 10 7 5 5 5 6 6 6 6 6
7 6 6 4 8 5 9 5 8 4 4 2 5 13 18 15 20 20 23 25 22 21 18 16 14 17 19 18 16 15 13 12 11 12 14 12 13 9 9 9 8 5 5 5 4 5 6 5 5
5 5 5 15 20 7 5 8 8 5 1 10 9 11 12 16 18 21 22 24 27 22 19 19 16 14 13 18 17 16 15 14 13 12 14 15 14 11 9 7 8 6 6 6 5 6 5 3 2
5 7 19 19 26 11 3 8 8 4 5 11 10 11 12 20 20 24 21 22 23 24 24 24 20 18 16 16 17 15 16 16 16 14 16 19 15 12 11 9 8 7 8 7 6 6 4 5 6
6 6 20 20 20 10 9 6 7 14 16 13 18 15 11 11 13 18 21 22 24 26 24 27 26 23 22 19 19 18 15 17 16 16 14 19 17 15 13 13 10 10 9 9 8 8 9 6 5
7 6 5 9 15 13 8 8 8 4 19 25 25 28 22 17 17 21 19 20 24 24 28 26 29 28 26 24 24 21 16 13 16 15 12 17 17 16 16 16 12 12 12 12 14 15 10 7 7
4 2 6 8 11 6 12 7 8 22 26 29 33 32 35 30 26 24 27 22 18 23 25 32 29 27 32 30 29 25 19 16 18 18 16 16 18 18 18 16 16 16 18 17 16 12 10 9 8
3 3 1 7 11 14 12 13 5 20 21 28 37 38 40 38 31 32 30 31 26 22 27 32 33 30 31 34 33 27 23 22 22 22 21 18 20 18 21 21 18 19 20 18 15 12 11 10 8
1 3 6 7 10 6 12 3 14 23 27 18 29 34 38 40 41 37 32 35 38 34 28 28 35 33 29 32 34 34 28 26 26 27 24 20 24 24 23 20 18 20 18 15 15 13 12 10 7
5 4 3 6 5 5 6 8 8 20 21 25 26 24 25 31 37 35 36 36 34 37 38 32 34 36 35 31 31 32 32 30 29 26 25 25 25 28 27 23 22 21 18 15 14 14 12 10 7
5 4 4 5 6 3 8 10 10 18 23 24 27 31 37 37 34 26 26 25 35 38 37 39 35 34 40 40 35 32 34 35 33 31 29 29 28 25 30 28 27 24 19 16 14 15 13 10 8
6 4 5 7 4 5 12 20 17 18 22 28 34 30 37 40 42 39 35 31 29 28 35 37 39 38 36 40 36 34 36 37 35 32 32 30 31 32 29 31 29 26 23 19 16 16 15 12 8
2 2 3 5 7 5 9 10 8 8 21 30 34 36 34 40 39 36 36 35 35 33 30 35 32 26 39 41 40 40 39 38 37 35 34 35 34 33 32 33 31 29 24 20 17 17 15 12 9
1 4 2 3 4 3 6 7 6 9 9 6 21 28 34 37 39 37 34 34 35 35 37 31 35 36 27 40 41 43 44 43 42 40 40 39 38 38 36 35 33 30 25 22 19 18 16 12 9
3 5 5 4 4 5 3 3 8 7 5 8 6 19 26 25 25 24 26 25 21 28 34 32 36 36 36 34 40 44 47 44 44 43 41 42 40 40 36 33 34 31 27 23 21 19 16 12 9
6 5 4 3 3 3 8 7 5 3 4 1 1 9 6 18 12 7 6 12 12 14 19 28 31 29 42 37 38 47 47 47 45 46 43 42 43 39 34 34 35 32 28 24 21 19 15 12 10
5 5 3 0 2 6 2 4 7 9 11 9 8 14 7 4 5 6 10 11 9 9 10 17 25 27 30 40 45 44 45 47 45 45 45 43 44 40 35 35 36 31 26 23 21 19 15 12 10
4 5 4 4 3 4 5 7 6 11 17 15 10 4 5 10 14 9 10 9 9 13 14 16 20 27 27 33 44 42 45 46 45 42 44 44 42 38 33 33 33 29 27 22 21 17 14 11 10
3 3 5 1 2 3 5 7 9 7 8 9 9 13 18 16 12 10 9 10 9 10 14 21 22 25 25 30 38 44 44 41 39 38 40 40 37 35 30 32 32 29 24 22 19 16 13 10 9
5 5 2 2 2 5 6 5 8 4 5 7 9 15 23 18 7 9 8 7 9 14 18 20 22 24 25 30 36 41 40 37 35 36 34 32 34 34 33 33 32 26 24 21 19 15 11 9 9
3 3 3 2 4 4 4 5 5 6 1 4 4 11 19 27 21 9 8 10 12 16 17 19 18 23 26 31 36 36 33 31 32 31 28 30 35 37 35 32 27 25 23 19 13 10 8 8 9
5 5 5 4 4 4 3 6 9 12 6 18 24 32 25 23 21 13 7 9 12 19 18 15 17 25 29 30 32 31 30 30 32 28 28 33 36 34 33 28 24 23 20 14 9 10 8 9 10

GFSSGP_850_spd_048.txt.gz
Wind_Speed
9 7 5 3 3 4 4 6 3 8 7 3 5 6 4 3 2 3 10 14 10 19 20 20 21 20 21 20 19 18 15 13 10 8 7 6 5 3 1 4 12 14 13 11 15 15 10 7 4
8 7 5 1 4 1 5 4 9 8 14 8 7 5 3 1 2 8 17 14 6 16 21 21 21 20 19 18 17 15 14 13 12 10 8 7 7 4 2 7 13 15 14 12 12 12 10 8 5
10 8 5 4 4 6 5 4 3 6 5 5 2 5 4 4 5 12 7 16 15 17 20 22 20 18 18 18 17 16 15 14 13 11 10 9 5 4 8 9 11 13 12 10 9 10 10 8 5
9 6 3 3 7 8 7 4 3 12 8 1 4 5 3 7 11 9 9 15 15 19 21 22 20 18 18 17 17 16 14 15 15 15 14 8 5 9 9 9 9 10 10 9 8 7 8 5 5
12 5 2 4 8 6 6 7 17 8 10 3 4 4 2 11 5 9 11 15 17 20 21 21 19 18 18 17 15 14 14 16 18 17 14 9 9 10 10 10 10 11 10 9 8 8 7 8 9
6 3 2 7 7 5 7 19 11 10 19 3 4 7 3 8 11 11 14 16 16 17 20 20 18 18 17 15 14 13 13 15 16 16 14 12 11 10 10 10 10 10 10 9 9 8 8 9 10
5 4 5 5 5 6 10 4 6 15 17 7 5 4 7 13 17 13 16 16 16 15 18 20 18 17 16 16 14 12 13 14 14 16 14 14 13 11 9 9 9 9 8 8 8 9 9 9 10
6 3 3 5 5 7 5 3 10 11 18 8 6 7 6 17 20 22 19 17 18 16 15 15 17 18 18 17 15 14 13 13 12 13 14 15 14 11 9 8 8 8 8 7 8 9 9 8 9
10 3 4 5 8 5 6 4 9 9 6 5 4 13 9 20 21 26 24 23 22 20 17 16 16 20 19 18 17 15 14 15 14 14 15 15 12 12 11 10 8 8 7 8 8 7 7 7 7
6 5 8 5 5 3 6 3 8 6 4 1 8 11 17 21 23 28 27 27 27 25 22 18 16 20 21 20 19 17 16 16 15 15 16 15 13 11 10 12 10 7 7 8 8 8 8 8 7
6 5 8 5 11 7 6 9 6 3 4 2 5 18 20 23 25 27 27 27 27 25 23 21 18 17 21 22 20 19 17 16 16 16 17 16 17 14 13 13 13 9 9 9 9 9 8 7 6
3 10 10 5 19 6 4 7 3 8 7 4 4 9 8 16 24 28 30 30 28 27 25 23 21 19 19 20 22 21 20 18 18 18 19 20 19 17 15 12 11 10 10 11 9 9 8 5 5
3 3 7 13 18 8 11 8 8 12 18 17 16 10 10 10 22 27 28 29 29 27 26 26 24 24 22 21 20 22 21 19 19 20 21 23 21 18 16 13 11 13 14 13 11 10 7 5 7
4 13 14 12 10 6 6 8 13 4 14 24 27 23 18 14 15 18 24 28 31 29 29 27 28 26 25 24 22 22 20 17 19 22 22 23 22 19 17 14 15 15 15 14 12 9 7 9 10
3 5 2 5 5 4 6 15 8 18 27 29 34 33 31 28 23 24 23 23 22 23 34 36 32 30 29 26 26 24 22 19 20 24 23 20 22 20 18 16 19 16 16 15 14 12 12 13 12
5 4 1 4 3 8 9 20 3 14 22 29 32 35 35 35 34 32 31 31 30 25 22 35 38 36 33 30 28 28 26 23 22 22 23 21 20 20 20 21 20 18 17 16 15 16 16 14 12
1 3 5 6 8 6 9 3 9 30 28 22 29 32 32 31 32 37 41 38 39 35 30 27 32 44 39 36 31 30 29 27 27 24 23 21 20 22 22 24 20 18 19 19 20 18 16 14 12
6 4 3 5 4 2 7 9 10 13 13 23 24 27 34 30 32 32 31 37 42 43 39 36 32 34 42 38 34 34 33 31 29 29 26 24 24 24 26 24 22 22 22 23 21 19 18 15 13
3 2 2 4 4 5 7 6 12 16 17 20 28 32 38 39 37 30 25 26 31 37 40 36 35 35 38 43 40 37 36 35 34 32 30 27 27 26 28 26 27 26 26 23 21 19 18 17 15
1 3 4 6 1 3 7 15 14 14 16 26 34 37 35 40 42 39 34 31 27 24 26 36 40 35 35 43 45 44 39 39 37 35 33 30 32 30 26 30 31 29 28 26 24 19 19 19 16
4 3 2 4 5 1 7 9 6 6 12 20 32 36 34 39 44 43 40 38 37 36 32 27 27 33 37 37 46 47 41 39 39 39 36 37 37 35 30 29 31 32 31 29 25 21 20 20 17
2 1 3 3 4 4 5 6 5 8 12 7 15 18 25 28 30 30 30 32 36 34 33 35 33 28 28 26 41 48 47 44 41 40 41 40 39 39 33 30 33 34 33 30 26 23 22 21 19
3 4 4 2 3 4 3 2 8 5 7 6 6 9 14 18 21 21 21 21 23 26 28 30 35 38 31 28 31 38 48 49 46 44 43 40 41 41 37 34 34 35 36 31 28 26 23 22 20
7 5 6 4 3 2 4 4 6 3 4 2 4 15 20 10 12 12 13 17 20 23 24 21 23 29 28 28 34 36 38 47 47 43 44 42 42 42 39 37 38 37 34 33 31 26 23 22 19
5 6 2 4 2 6 3 3 9 9 12 4 8 15 15 11 2 5 8 9 12 15 16 17 17 19 25 28 31 33 40 40 46 46 42 43 43 43 42 39 39 37 34 33 29 25 24 22 19
4 6 4 4 3 4 3 5 6 4 8 5 12 17 24 26 23 16 10 11 14 15 16 17 19 21 24 26 29 34 35 40 41 45 46 40 42 43 39 40 38 34 32 31 29 26 23 20 18
3 2 4 3 4 3 4 6 9 3 5 9 14 23 26 30 31 28 14 12 12 12 14 16 19 22 27 31 32 31 34 37 39 42 46 41 38 38 38 38 33 32 32 31 28 23 22 20 16
4 6 3 3 1 4 4 4 5 5 4 2 7 14 23 31 36 34 29 17 10 9 12 15 19 21 25 28 30 29 31 34 38 42 41 40 38 36 36 33 32 32 29 28 26 22 19 17 14
3 2 1 3 4 3 4 5 6 4 4 4 7 18 27 34 32 30 21 20 14 11 13 16 19 23 24 25 26 27 29 33 38 37 36 35 33 32 32 33 32 30 30 25 22 18 17 13 12
4 6 6 3 3 2 3 7 6 5 3 8 23 26 29 32 27 25 28 22 14 14 15 16 19 23 25 23 24 25 27 28 30 32 30 29 28 30 30 32 31 30 26 23 20 16 11 12 9

GFSSGP_850_spd_051.txt.gz
Wind_Speed
9 6 4 3 3 4 3 6 3 4 4 1 5 3 5 2 3 4 8 11 15 19 21 20 21 20 19 19 19 18 15 12 10 9 9 8 5 3 2 5 9 9 8 10 16 11 9 5 2
10 7 4 2 4 1 5 4 5 6 8 13 3 6 3 1 3 4 18 11 11 16 19 20 21 20 19 18 18 16 14 12 10 7 6 4 3 1 0 9 15 11 10 13 14 12 6 6 5
11 8 5 4 4 6 5 5 4 5 14 5 3 2 4 3 6 8 6 14 16 18 17 19 21 21 20 18 17 15 14 12 10 8 7 5 3 2 5 9 13 14 12 10 10 9 7 5 2
9 5 2 4 8 6 7 4 2 10 10 2 4 4 2 3 4 11 8 14 16 18 18 18 19 19 19 18 16 15 14 13 11 8 8 6 2 6 6 7 9 10 9 8 7 7 8 4 3
12 4 2 3 7 5 3 13 7 7 8 14 12 5 3 6 5 7 11 14 16 19 19 19 18 18 18 16 15 13 13 14 13 12 9 6 6 7 7 7 8 8 7 7 6 5 5 6 7
6 3 2 6 8 4 5 11 7 4 14 18 6 8 5 9 7 8 12 14 14 17 19 19 18 17 16 15 14 13 13 14 15 12 11 8 9 8 8 8 9 9 8 8 9 8 9 9 9
7 4 5 3 11 6 5 6 4 8 11 23 8 6 4 11 9 8 13 12 15 17 18 20 16 16 15 15 13 13 13 14 14 13 12 10 11 10 9 9 9 9 9 8 9 9 9 10 10
6 4 5 5 5 7 2 7 10 7 14 13 8 6 5 16 13 13 16 14 14 15 15 17 16 16 16 16 15 13 15 15 15 16 13 12 13 11 10 10 9 8 8 7 8 9 9 10 10
7 3 5 6 7 4 1 2 2 6 12 7 4 8 4 20 19 19 19 19 18 17 18 19 17 15 16 17 17 15 16 17 16 16 14 15 13 11 10 9 8 8 8 8 9 9 9 8 8
6 5 9 6 5 1 5 3 6 6 10 4 5 7 8 26 23 22 24 24 24 23 22 21 18 15 18 19 19 17 16 17 16 15 15 16 14 13 12 12 10 9 9 10 9 9 9 7 6
6 5 5 5 8 3 2 7 3 4 5 4 3 6 21 25 26 25 24 23 21 23 22 22 18 17 19 22 20 20 18 17 17 17 17 17 16 16 15 16 15 12 11 11 10 10 9 8 7
3 8 5 10 20 5 1 8 5 8 12 3 6 2 10 20 24 27 27 26 24 24 23 22 20 18 19 21 23 21 21 20 19 18 19 20 19 18 15 16 16 13 12 12 11 10 10 8 7
4 2 8 17 14 8 6 8 9 12 20 17 18 15 9 10 16 23 27 28 28 27 26 24 21 21 21 22 23 24 24 22 19 19 21 22 21 20 17 16 15 13 14 13 12 11 10 7 7
3 11 15 11 11 7 5 8 13 4 8 20 20 21 19 17 15 13 24 29 31 28 28 26 25 24 23 25 24 24 23 22 22 22 22 23 23 21 20 17 15 14 15 15 13 10 10 8 8
7 3 2 6 5 5 1 10 9 20 24 28 34 30 28 28 25 23 18 22 28 29 28 29 29 27 27 28 26 25 24 22 23 21 22 25 25 24 21 20 18 15 16 17 16 15 14 11 11
6 3 3 3 7 5 7 20 1 10 25 28 32 36 35 35 35 33 28 26 24 25 25 28 34 35 34 33 30 27 25 24 24 22 21 25 25 25 23 22 19 18 19 19 17 17 15 14 14
2 4 4 5 7 4 8 3 4 16 27 27 30 33 34 31 34 37 35 33 33 31 29 26 24 26 38 37 35 32 29 28 28 24 22 24 26 23 25 23 20 21 22 19 19 18 17 16 16
5 5 3 5 2 3 7 8 15 22 14 15 25 30 32 31 35 33 30 28 31 39 38 35 29 28 25 35 41 35 34 33 33 30 27 25 27 25 24 23 22 24 24 22 21 20 19 18 18
5 3 3 3 1 3 6 5 13 15 16 19 28 34 40 41 37 33 32 29 25 27 38 44 40 33 28 31 38 41 40 37 37 35 31 29 29 28 25 24 24 26 26 24 21 22 22 21 20
3 1 3 5 0 2 6 11 17 15 14 25 30 36 39 41 42 39 37 34 32 27 23 31 43 38 31 30 32 41 44 42 37 38 36 34 33 31 29 27 28 29 28 27 27 25 24 22 21
1 3 3 3 3 3 7 7 6 4 7 14 24 30 33 36 39 39 40 39 38 37 32 28 24 25 29 35 32 40 45 46 44 42 39 39 35 34 30 29 29 30 31 32 30 28 26 24 23
4 3 2 2 3 2 4 5 6 7 9 6 11 11 16 22 23 21 21 20 20 28 33 29 28 29 28 23 31 39 41 46 49 44 41 39 39 36 34 32 31 33 31 33 34 31 28 25 24
3 4 4 3 4 2 1 2 8 4 6 4 6 24 23 17 13 15 15 14 12 12 17 25 27 29 30 30 29 28 35 42 46 46 44 43 41 39 38 37 33 34 33 34 37 33 30 28 26
8 5 6 4 2 2 2 4 6 2 2 5 7 22 29 29 21 18 13 12 13 13 12 14 18 21 24 29 29 31 30 34 38 43 42 42 42 39 40 40 38 35 34 37 37 33 31 29 27
5 6 3 4 3 4 3 2 9 9 9 4 4 15 24 27 27 28 23 13 11 10 14 17 19 19 19 21 30 28 26 29 34 35 38 42 44 44 43 42 42 39 36 38 36 33 31 30 27
1 5 4 4 1 3 2 5 5 3 3 10 9 15 26 28 30 28 24 22 16 13 12 16 19 20 20 20 22 25 27 29 29 34 35 35 41 45 45 44 41 40 38 35 33 32 31 30 25
3 2 3 5 3 2 3 7 8 5 4 4 13 21 28 33 35 30 27 21 19 18 16 16 19 22 24 26 27 29 33 31 28 29 34 37 39 42 43 43 37 36 33 31 30 32 31 29 25
3 7 3 3 2 3 4 5 4 3 2 5 10 20 24 31 32 29 26 23 16 19 19 16 19 22 25 26 27 30 31 31 28 27 32 37 40 41 43 39 35 33 30 29 31 31 28 25 23
2 1 5 4 3 3 3 6 5 3 2 5 9 19 22 33 31 28 23 24 19 18 16 14 14 19 22 24 27 29 27 27 26 29 33 36 39 37 36 34 29 28 29 31 32 28 25 22 19
3 5 5 3 3 1 2 6 2 4 5 9 21 24 26 26 29 21 30 30 21 17 16 20 24 21 21 22 24 25 24 22 23 27 29 32 32 29 27 27 26 29 31 30 28 25 22 18 14

GFSSGP_850_spd_054.txt.gz
Wind_Speed
10 7 4 2 3 4 3 6 2 3 2 1 3 4 5 3 4 4 3 17 17 21 21 20 19 18 18 18 17 15 13 11 11 12 11 10 7 5 4 3 7 9 9 13 13 9 7 4 5
11 7 4 2 4 2 5 4 6 4 7 15 6 3 1 1 2 2 12 12 16 16 19 20 21 19 19 19 17 15 13 12 10 10 9 9 6 5 5 13 10 9 13 15 13 12 5 4 3
12 8 4 4 4 6 5 6 5 3 11 2 3 3 2 1 3 6 8 11 18 17 16 18 19 19 18 18 17 16 14 11 10 8 7 5 4 3 8 14 14 11 13 14 12 7 4 4 1
11 7 2 3 8 6 7 2 3 8 4 7 11 6 2 4 1 7 5 12 15 18 17 18 19 19 18 17 17 14 12 11 11 8 5 4 2 5 7 10 11 10 8 8 8 6 5 4 3
14 5 2 2 6 4 4 7 4 3 7 10 12 5 4 5 6 6 4 13 15 18 18 18 19 20 19 17 16 15 14 12 11 7 7 4 3 5 6 7 7 7 7 6 6 5 6 4 6
6 5 2 7 7 1 4 13 4 3 6 10 3 2 4 6 5 5 6 10 14 15 18 17 17 17 17 17 15 14 14 13 11 11 7 5 6 6 6 7 7 7 7 7 7 7 8 7 8
7 4 5 4 10 6 4 6 5 5 3 5 4 4 4 8 8 7 9 11 12 16 17 17 15 14 15 15 14 13 13 13 14 13 10 7 7 7 7 8 8 9 9 9 9 9 9 9 8
5 4 6 5 4 5 4 7 8 5 6 4 4 5 5 11 11 12 13 12 13 14 15 14 15 15 14 14 14 13 13 14 15 13 10 9 9 8 8 9 9 9 8 8 9 9 9 8 6
6 3 5 6 7 4 2 2 2 2 7 5 4 7 7 10 15 16 18 16 16 16 16 17 17 14 13 14 14 14 13 15 15 14 13 12 12 11 9 9 8 8 8 8 10 9 9 7 6
5 4 9 5 5 4 2 3 3 3 7 2 3 4 10 14 20 20 21 21 21 20 19 18 18 16 14 15 16 16 15 15 16 16 15 13 14 12 10 10 9 8 8 9 9 9 8 7 6
6 5 4 4 3 1 3 2 1 1 3 3 3 6 6 20 21 21 21 19 17 17 18 19 20 17 16 16 17 18 17 16 17 16 15 14 15 14 13 13 11 10 10 9 9 10 8 7 6
3 7 5 8 6 3 1 2 3 6 8 2 3 7 1 13 18 20 20 17 18 17 17 18 19 19 17 16 19 19 19 18 18 17 17 17 18 16 15 14 15 12 11 10 10 9 10 9 7
5 2 13 12 7 6 5 6 7 13 14 13 14 14 9 6 14 18 20 21 21 21 19 19 19 20 19 18 20 21 21 20 17 18 19 20 20 19 17 15 16 16 13 12 11 11 11 9 7
6 13 12 6 8 6 5 7 7 6 7 12 17 20 18 15 11 11 17 23 25 27 25 22 23 22 20 21 21 21 20 20 21 21 21 21 21 21 19 17 17 18 15 14 13 11 11 11 8
6 4 3 8 6 5 2 8 8 24 24 28 30 27 25 23 22 21 18 17 24 29 29 29 27 27 25 23 23 23 21 21 22 23 22 22 23 23 22 20 19 17 16 16 17 15 14 13 11
6 3 1 3 9 6 7 8 3 7 14 27 30 30 31 32 30 29 27 25 23 24 29 30 29 30 29 28 27 25 24 23 22 23 23 23 24 25 25 24 22 19 17 19 18 17 16 16 13
2 4 4 5 8 4 8 2 3 6 8 18 27 31 29 30 28 29 32 30 30 29 27 26 27 30 31 33 34 31 29 26 26 25 25 25 24 26 26 27 24 22 21 21 21 19 19 17 16
8 5 3 6 1 2 4 7 8 19 17 17 21 25 27 29 29 28 28 27 28 29 33 32 30 28 27 25 25 33 35 32 31 31 29 27 25 25 26 26 26 25 24 25 23 22 21 19 18
6 4 3 2 1 2 5 4 12 17 16 18 23 28 33 36 34 32 32 30 28 26 24 32 35 36 32 32 31 30 33 38 37 35 32 31 29 27 27 26 27 28 28 27 25 25 24 23 21
5 5 2 2 1 1 5 9 16 14 10 23 26 31 33 35 37 38 38 35 31 30 28 25 29 32 35 37 35 33 32 34 36 38 34 32 33 31 28 30 29 30 30 30 30 28 27 25 23
3 3 2 3 3 2 7 7 5 3 3 7 10 14 15 18 25 25 22 21 21 27 31 29 26 23 20 30 34 35 34 36 36 40 40 37 34 33 33 32 33 31 32 32 32 32 30 27 24
2 4 2 3 2 2 4 5 6 4 7 6 15 19 20 21 23 16 11 9 9 10 15 26 33 30 27 21 24 29 37 40 38 36 39 40 39 35 35 34 34 35 33 33 34 35 33 31 28
3 5 5 3 4 2 2 2 7 2 4 3 9 17 22 26 28 25 21 14 11 7 7 10 19 28 24 24 25 25 26 29 36 38 38 43 43 41 39 36 37 37 36 34 34 34 34 34 31
9 5 6 4 3 1 2 3 5 1 2 4 5 15 22 29 30 27 22 15 13 11 9 8 9 13 17 20 23 27 31 31 29 29 32 35 41 44 43 39 38 38 36 36 35 35 37 35 33
4 5 2 3 3 4 1 0 8 3 5 2 2 15 25 28 32 30 27 23 20 15 12 9 7 9 13 16 19 22 26 28 30 31 31 33 34 42 43 44 41 35 39 39 36 37 39 37 34
2 5 4 4 1 3 3 5 4 3 3 6 6 15 30 28 30 26 24 24 22 17 13 13 13 12 12 14 16 17 17 22 26 29 32 35 34 32 39 43 43 42 42 41 38 38 37 34 32
3 2 3 6 3 3 3 6 6 4 2 3 14 29 31 26 30 27 25 22 22 21 18 16 17 18 17 18 21 22 22 24 25 26 29 33 33 35 34 39 44 46 43 35 39 33 33 32 32
3 7 3 3 2 2 4 4 4 0 1 5 9 21 26 29 27 28 23 21 21 25 20 19 16 16 18 22 25 27 27 28 28 26 27 29 31 33 35 37 39 41 40 38 33 29 30 32 32
2 1 5 4 3 3 2 4 5 4 2 4 11 22 24 25 27 26 24 24 23 22 18 15 14 15 15 15 19 23 26 27 25 23 25 27 29 31 32 32 31 32 32 29 26 28 31 30 28
2 5 4 4 3 1 1 6 3 6 3 4 15 18 15 23 23 25 24 22 25 18 18 15 17 20 21 20 17 19 23 24 21 19 20 23 25 26 25 24 24 26 26 24 27 29 28 25 23

GFSSGP_850_spd_057.txt.gz
Wind_Speed
10 7 3 2 1 2 2 4 1 2 2 2 4 4 3 3 4 2 3 14 20 23 21 21 18 17 18 15 14 13 12 9 9 9 9 8 6 4 3 2 6 12 11 12 13 10 6 4 7
11 8 4 2 3 3 3 3 4 5 5 13 5 5 3 2 1 2 6 14 22 21 20 20 18 18 18 17 16 14 11 9 8 8 10 8 5 3 4 7 8 11 15 14 14 8 4 4 5
14 10 6 3 3 6 4 5 4 2 6 3 3 2 2 3 1 4 8 15 19 20 17 19 19 19 20 17 15 13 12 10 9 8 6 8 6 6 13 10 10 13 15 15 12 6 3 3 3
15 8 4 3 7 5 5 0 4 3 0 5 10 3 3 2 0 5 5 13 18 19 18 18 19 19 20 18 15 13 11 10 11 8 4 7 5 9 14 15 12 14 12 10 9 6 4 2 2
18 7 3 3 7 3 5 4 5 4 5 8 7 2 4 3 2 6 1 10 15 19 18 19 18 18 17 17 16 13 12 11 10 9 5 4 5 8 11 13 8 8 10 9 8 6 6 4 6
6 6 3 11 7 3 5 9 3 3 5 9 4 3 3 4 5 5 5 8 14 17 17 18 19 18 17 16 16 15 11 12 11 8 7 4 5 7 8 9 8 8 8 8 7 7 7 7 8
6 4 7 4 9 5 5 7 5 6 7 5 4 2 2 6 8 8 7 9 12 15 17 17 17 18 16 17 14 13 14 13 11 10 8 5 5 5 7 9 9 9 9 9 9 8 8 8 8
5 3 7 5 7 6 5 9 7 8 4 3 3 3 1 4 9 11 12 11 11 13 14 15 15 14 14 14 13 13 13 13 13 13 10 7 7 7 7 8 9 10 10 9 9 8 8 8 7
7 2 5 9 8 4 6 5 5 3 4 3 3 5 7 3 12 15 15 15 14 15 16 16 15 13 13 14 13 12 11 12 14 16 13 9 9 9 8 9 9 8 8 9 9 9 7 7 6
5 4 8 4 5 4 7 5 4 3 2 2 3 5 9 7 16 18 19 19 18 17 18 17 16 15 14 14 14 13 12 12 15 16 14 11 12 11 10 9 9 9 9 10 10 9 8 7 6
6 5 4 3 6 7 8 4 3 4 2 4 2 4 4 10 16 17 17 17 16 15 15 16 16 17 16 15 14 15 14 14 15 15 15 14 14 15 13 12 11 10 10 10 10 9 9 8 6
4 7 6 4 8 5 5 4 0 6 4 3 3 4 4 5 13 15 15 15 15 16 17 16 17 18 17 15 16 16 17 16 16 16 16 17 16 17 15 14 13 12 11 11 11 10 9 8 8
3 2 11 6 6 2 4 4 5 13 11 10 10 10 6 3 6 13 16 16 16 17 17 17 17 19 20 18 17 17 18 17 16 17 18 18 17 18 16 15 15 15 13 12 12 11 11 10 10
8 10 3 6 7 4 3 5 7 7 6 11 15 17 16 12 10 9 13 16 20 20 20 18 18 19 19 20 18 18 17 17 18 19 19 19 19 19 19 17 17 18 17 15 14 13 12 12 10
7 3 4 11 6 3 2 5 6 22 21 23 23 23 21 20 18 18 15 16 16 20 22 24 23 21 22 21 20 20 19 19 20 20 20 21 20 20 21 20 19 18 19 18 17 17 15 14 13
5 1 3 2 10 8 6 6 3 3 7 17 20 21 23 27 27 26 24 25 22 23 23 26 28 27 27 26 25 24 23 22 22 21 21 22 23 22 23 23 22 20 20 20 20 19 18 16 15
4 4 7 3 9 3 11 2 4 4 5 12 16 18 17 21 25 28 28 29 29 27 28 28 27 31 30 28 28 27 27 26 24 24 23 24 26 25 25 25 24 23 24 23 21 22 21 19 17
7 4 3 9 3 2 3 6 7 18 12 15 18 22 23 24 23 21 23 26 27 26 25 27 30 30 30 31 31 32 32 34 32 30 29 27 25 28 26 25 26 27 27 27 25 24 23 20 19
9 5 4 2 2 2 4 4 9 17 18 20 26 27 28 27 25 25 25 26 26 26 26 27 27 31 33 33 33 33 33 32 36 34 33 29 27 28 27 25 26 29 32 30 27 27 26 25 23
6 6 4 1 3 2 2 8 14 12 9 12 15 17 16 16 18 20 22 23 27 28 28 25 27 25 29 37 38 36 36 36 33 32 35 33 31 31 29 29 28 29 33 33 32 30 30 28 27
2 5 3 3 1 2 5 5 2 1 5 11 12 10 13 15 16 12 7 6 11 17 22 27 28 28 27 26 30 38 37 37 36 36 33 33 35 36 33 32 31 31 34 36 34 33 34 33 31
4 2 4 4 2 1 4 3 3 3 7 7 14 19 20 21 21 19 17 12 8 5 8 15 24 31 29 26 26 29 38 41 40 39 35 34 36 36 36 34 34 34 34 34 35 36 36 35 35
1 3 4 3 4 2 2 2 3 3 2 4 6 13 18 22 21 20 18 17 15 11 7 6 10 17 28 31 28 27 27 28 28 32 35 36 35 36 40 39 37 36 36 36 37 38 40 39 39
10 5 6 4 2 0 1 2 3 2 3 2 1 13 17 22 22 19 17 16 14 12 10 7 5 7 11 20 21 23 26 27 29 29 30 29 32 36 39 41 42 42 37 37 39 40 39 39 41
1 3 2 2 1 3 2 2 5 3 1 4 2 13 17 19 21 21 20 18 16 14 11 9 7 5 6 11 16 19 22 25 28 30 32 33 32 32 33 36 40 43 41 40 39 38 39 38 41
2 2 4 4 3 1 1 5 2 3 1 7 3 14 18 20 19 20 18 15 16 15 14 13 13 11 10 10 11 12 13 15 18 19 24 28 30 32 32 33 34 38 40 41 37 32 36 41 40
3 2 2 6 2 1 2 5 5 2 4 5 10 19 20 20 19 22 18 16 17 16 16 16 15 15 15 15 16 15 16 18 19 20 21 22 25 28 31 33 34 34 39 40 40 38 44 39 35
2 6 2 2 2 3 3 4 3 3 5 2 8 15 19 19 23 22 21 19 18 17 16 16 14 12 14 15 17 20 21 21 23 24 24 23 25 27 29 30 30 33 33 36 37 36 35 30 31
2 1 4 3 1 3 1 3 6 8 6 1 7 15 12 19 20 22 21 16 17 17 13 12 12 12 13 13 14 15 16 19 21 23 23 23 24 26 27 27 26 25 26 27 31 31 29 28 29
1 4 4 3 3 2 1 4 2 5 3 7 15 16 13 16 18 18 14 15 15 14 11 10 11 12 16 18 19 19 19 17 16 19 21 21 21 22 22 21 19 19 20 22 25 27 26 26 28

GFSSGP_850_spd_060.txt.gz
Wind_Speed
12 9 5 2 5 5 7 4 3 2 4 2 3 5 3 8 3 2 1 13 15 20 19 19 17 17 18 16 16 15 12 11 11 9 7 6 4 3 2 1 6 9 11 11 10 7 7 4 4
13 10 6 3 6 9 8 7 4 4 3 8 5 6 7 1 2 2 4 13 19 20 20 21 18 19 18 15 16 15 12 8 9 8 6 4 2 0 5 9 8 10 11 13 12 5 5 5 5
15 13 8 4 8 12 6 7 7 2 3 3 1 2 2 2 2 3 4 14 21 19 17 17 18 20 19 18 15 14 10 7 7 5 5 4 3 6 7 8 10 13 14 16 8 4 2 3 4
11 8 3 9 15 15 11 3 6 5 1 2 5 3 1 1 1 3 6 16 19 17 16 17 19 20 18 17 15 12 9 7 5 7 7 6 5 10 12 9 9 13 11 11 7 3 1 1 4
14 10 10 14 20 13 11 4 7 2 4 5 8 1 1 1 0 7 7 13 18 16 15 17 19 20 19 15 14 12 10 8 8 6 8 6 8 12 13 11 9 11 9 9 7 5 3 3 6
13 13 11 17 20 17 13 9 9 9 5 5 4 3 1 1 2 7 10 13 16 16 16 16 18 16 15 15 13 12 10 9 9 7 4 6 8 9 12 13 8 11 10 9 7 6 5 6 8
15 11 19 20 18 16 15 14 16 12 10 9 3 4 2 3 6 7 12 12 14 14 15 14 16 16 15 13 14 13 11 11 9 8 7 4 6 7 8 10 10 9 9 9 8 7 7 8 8
15 10 20 17 17 20 16 11 7 10 9 3 3 4 6 1 8 9 12 12 13 14 14 14 14 15 15 14 13 12 12 13 12 9 8 6 6 7 8 9 9 9 10 10 9 8 8 8 8
9 9 16 22 20 16 12 12 8 6 10 6 4 2 3 3 9 12 14 14 14 14 15 15 15 14 13 13 14 14 13 12 13 12 12 7 7 8 8 10 10 9 9 9 9 8 8 8 7
14 14 19 9 9 11 13 13 13 9 11 10 7 2 6 7 10 14 15 15 16 16 16 15 15 14 14 15 14 14 14 13 13 15 15 9 10 10 10 11 10 10 9 9 8 8 7 6 6
15 15 7 7 9 9 13 10 8 10 9 8 7 1 1 5 11 15 14 13 15 14 15 17 15 15 15 15 14 13 13 12 13 14 14 13 12 13 12 11 12 11 10 9 10 9 8 8 8
9 15 9 6 8 7 11 9 7 10 4 7 8 3 2 3 9 13 14 14 13 15 16 17 17 16 16 15 15 13 14 14 13 16 16 15 14 14 13 12 12 12 11 11 11 9 10 10 10
13 5 9 7 7 6 7 7 8 10 8 5 6 7 3 2 6 11 13 13 15 16 17 17 17 19 19 18 16 16 15 17 15 16 17 17 17 16 16 14 14 13 13 12 12 11 11 11 12
14 7 9 12 8 5 7 8 5 5 7 12 12 13 11 9 9 8 12 15 15 15 16 17 18 19 19 22 20 17 16 16 18 18 18 19 19 18 18 16 15 17 15 14 13 12 12 13 13
4 12 13 8 10 10 7 13 13 18 16 14 13 13 12 14 12 14 13 13 13 15 15 16 17 18 19 20 21 22 19 18 19 19 20 20 21 21 20 18 17 17 17 17 16 15 15 16 16
12 6 9 11 17 6 8 14 3 6 13 16 16 18 18 21 20 20 19 20 17 18 17 16 18 21 23 24 23 22 22 21 22 20 21 21 23 23 22 21 21 20 18 21 18 19 19 19 18
14 10 17 5 12 13 16 8 7 7 5 9 10 11 12 16 17 22 24 24 26 25 25 26 24 22 23 27 27 26 25 25 24 25 24 24 24 24 25 24 22 21 20 22 21 21 21 21 20
17 16 14 14 7 10 10 16 6 9 8 13 14 14 14 15 17 15 16 20 23 26 27 27 27 26 24 24 29 31 30 29 28 29 28 28 27 26 26 28 26 23 23 24 24 24 25 24 22
8 16 9 7 6 7 12 11 12 15 16 18 19 19 16 14 15 19 22 22 24 24 25 26 26 28 28 25 32 33 37 35 36 35 35 34 32 30 30 28 29 27 29 27 28 28 28 28 27
12 13 10 5 5 6 5 8 12 15 16 12 13 14 11 7 5 10 16 20 23 25 27 28 29 27 29 29 29 36 34 39 39 37 35 36 37 34 35 33 32 30 30 32 29 32 34 30 32
9 12 10 4 6 1 4 7 6 3 4 5 6 6 5 5 5 7 6 1 6 13 20 27 30 30 30 32 27 25 27 30 33 38 38 36 35 37 41 38 36 36 33 35 37 36 37 37 34
11 4 8 8 7 3 2 3 4 7 9 9 11 10 9 8 8 8 8 9 6 4 4 9 17 25 31 32 32 27 27 30 37 39 40 40 39 39 39 41 39 41 38 37 38 38 39 40 39
4 7 6 5 3 1 4 4 6 9 10 9 9 8 8 9 8 9 10 10 9 8 7 3 5 9 16 27 31 27 25 24 25 26 32 37 40 41 39 40 40 44 43 40 39 39 41 42 42
11 10 7 4 1 4 4 4 8 9 11 9 5 7 6 7 8 9 8 8 8 8 7 6 5 5 8 13 21 29 28 24 21 25 27 30 31 32 34 36 39 40 46 44 41 42 42 42 43
3 9 4 3 3 2 1 4 3 8 6 9 6 5 6 7 7 10 10 9 9 9 9 9 8 7 7 7 10 16 23 25 23 22 22 24 27 34 33 33 34 35 38 43 45 44 43 43 43
7 4 2 3 4 3 3 5 3 7 9 11 2 4 4 6 8 9 10 11 12 12 11 12 13 13 12 11 10 11 12 16 19 21 23 23 23 27 28 34 34 33 34 37 41 43 45 43 43
3 4 2 4 2 2 4 3 4 4 9 8 3 3 4 6 10 10 11 12 12 12 12 12 12 14 14 14 14 14 14 15 16 18 19 21 22 23 24 26 29 30 31 31 34 39 41 41 39
2 8 3 0 4 4 4 3 4 11 14 6 2 5 3 5 7 9 11 10 11 12 12 11 10 10 11 12 12 13 15 17 19 20 21 22 24 26 27 29 30 29 29 29 29 30 35 37 36
4 3 2 1 2 2 2 3 8 15 13 5 4 4 3 5 7 9 8 9 9 9 6 5 5 6 8 11 13 14 14 15 15 15 17 20 24 26 28 29 28 26 24 23 24 24 28 32 34
1 2 3 2 3 1 3 3 5 9 10 2 6 2 3 4 6 6 7 7 7 8 7 8 8 8 8 9 11 14 16 17 16 17 18 19 18 22 25 24 24 21 19 19 20 22 25 27 28

GFSSGP_850_spd_063.txt.gz
Wind_Speed
12 6 5 5 6 6 11 10 3 5 5 3 3 5 3 9 4 1 6 6 14 18 18 18 18 17 15 13 12 11 9 7 6 6 5 2 1 3 3 1 3 7 8 8 8 8 8 4 2
8 8 6 8 7 11 10 10 7 6 4 3 5 7 6 3 6 4 5 9 16 17 16 17 16 16 15 13 12 12 8 7 8 7 6 3 1 2 5 6 10 10 8 11 6 5 7 6 4
12 11 12 5 11 13 10 7 7 5 2 1 3 5 3 4 5 2 3 13 18 16 16 16 17 18 15 12 13 12 10 6 6 6 6 4 5 7 7 8 11 8 11 10 4 3 4 4 4
11 9 12 11 15 17 16 6 7 7 3 2 0 5 5 5 2 3 9 17 17 15 14 14 17 18 15 14 12 10 8 6 5 4 5 6 7 10 6 8 11 10 11 8 5 0 2 3 5
16 15 10 14 20 16 13 4 5 7 4 3 2 6 5 5 8 9 13 16 16 15 14 13 17 18 16 15 11 10 8 6 5 5 5 5 7 11 9 7 9 8 7 7 4 2 1 3 6
13 18 12 18 20 20 12 11 10 8 5 2 5 2 8 8 9 10 12 14 14 14 11 15 18 18 15 12 11 10 8 6 6 5 4 4 7 8 8 6 5 8 7 6 5 3 2 4 6
20 13 19 20 18 19 18 16 14 13 11 6 2 8 10 8 7 11 11 12 13 13 13 12 15 17 14 12 11 10 9 9 7 5 5 5 6 7 9 8 7 7 8 7 6 4 5 6 6
17 13 22 21 18 20 17 15 17 17 13 4 3 6 8 5 5 10 14 11 12 12 13 12 12 14 13 12 11 12 10 10 9 7 5 5 5 6 8 9 9 9 8 7 7 6 6 7 7
12 14 18 24 24 19 14 18 16 11 14 7 7 3 4 5 6 9 13 12 11 11 12 12 11 10 10 7 12 13 13 13 11 11 9 5 5 6 7 9 9 9 8 7 6 6 6 6 6
15 15 23 19 19 10 15 12 18 9 15 16 11 3 3 4 6 9 12 13 14 13 12 12 13 12 12 12 12 12 11 13 12 10 11 7 7 6 7 9 9 9 9 8 8 7 7 6 3
16 18 19 12 4 0 9 16 17 16 13 16 16 12 4 6 7 9 10 10 13 11 14 14 13 13 12 12 11 9 10 9 10 12 15 9 10 12 11 12 12 11 10 10 10 10 9 6 7
11 25 14 8 4 4 11 14 11 15 5 5 5 5 5 5 8 10 11 11 10 13 15 14 16 13 13 11 11 10 11 10 11 13 12 11 12 12 11 10 10 10 10 8 8 6 6 10 9
16 10 15 6 9 12 17 19 13 13 5 6 7 4 4 3 6 9 11 11 12 12 13 15 16 18 13 14 11 12 12 12 12 13 16 15 14 13 12 12 11 12 12 12 12 12 11 11 10
15 15 12 12 12 9 10 14 10 13 13 12 11 10 9 8 6 7 11 13 13 12 13 12 15 16 18 18 15 13 12 12 13 14 16 18 16 15 15 15 17 17 14 13 13 13 13 12 12
3 17 7 16 15 7 10 13 18 16 11 14 13 14 13 13 11 11 11 12 14 14 13 13 14 17 18 19 21 18 14 13 14 14 15 18 19 18 18 18 18 16 19 16 14 14 14 14 14
13 11 15 16 13 15 13 14 17 23 20 21 19 17 17 18 17 17 15 14 13 13 13 15 15 15 18 19 20 20 21 17 16 15 16 18 19 21 21 22 21 19 17 20 19 17 17 16 16
14 13 17 13 25 10 16 9 13 11 11 15 17 17 17 18 18 19 19 18 18 17 17 16 16 18 18 18 22 23 22 23 19 16 17 19 20 22 23 22 22 20 21 24 24 20 20 18 18
19 21 19 18 11 20 17 15 6 11 11 13 13 13 14 15 15 15 15 16 17 18 19 20 19 19 19 20 21 29 25 25 25 22 21 21 22 24 26 25 22 21 24 24 26 25 23 20 19
16 17 12 14 9 11 16 15 18 14 14 15 16 17 17 18 14 12 13 15 16 17 18 18 19 21 22 22 24 30 32 28 30 31 29 25 25 24 27 28 26 25 27 27 30 28 25 26 21
9 16 13 3 9 9 14 15 12 12 17 18 17 15 16 14 12 10 10 11 16 16 17 18 20 21 22 27 26 29 33 35 35 36 37 37 36 33 33 33 33 30 31 29 28 29 28 28 27
12 14 16 6 7 10 4 12 14 10 4 6 7 8 6 6 5 2 1 2 1 6 15 20 23 24 23 23 24 26 24 24 23 31 36 39 39 38 34 36 35 33 35 33 33 35 33 34 34
12 7 9 8 11 6 9 3 10 11 7 8 10 8 6 6 4 3 2 3 4 1 3 7 13 19 25 27 28 26 24 25 27 25 24 26 31 34 35 36 35 36 33 35 37 37 39 38 37
3 9 10 8 8 1 7 5 9 11 11 10 10 9 7 6 5 4 4 5 4 3 4 3 3 6 11 17 24 27 28 26 25 25 23 24 26 29 36 36 34 39 36 37 40 40 40 43 39
10 12 8 4 2 4 10 8 10 11 12 12 9 9 6 5 4 4 3 4 5 5 5 4 4 6 7 9 12 17 24 20 22 21 23 23 23 27 30 32 32 33 36 39 40 43 44 45 43
4 13 4 4 4 4 3 5 4 9 14 12 10 8 4 3 2 3 4 4 6 7 7 7 6 6 8 8 9 10 14 20 24 22 22 22 24 26 30 31 32 32 31 33 35 39 43 45 44
7 3 3 5 7 7 5 7 2 10 11 14 7 4 2 1 2 3 5 6 7 8 8 8 8 7 8 9 10 9 10 12 14 18 22 21 21 21 21 26 28 29 31 31 31 35 39 41 42
4 4 2 2 2 2 7 4 5 8 13 12 5 3 2 0 2 5 6 7 7 8 9 9 9 8 9 10 8 8 9 12 12 14 14 15 16 18 20 20 23 26 25 25 28 31 35 37 38
1 6 3 2 3 5 5 5 4 16 15 10 6 3 3 2 3 6 6 6 6 7 8 7 6 6 8 9 9 9 10 11 13 14 16 18 19 20 22 25 27 28 29 26 25 27 29 30 31
3 2 2 3 3 3 4 4 8 15 16 10 4 3 3 3 4 5 4 5 5 6 5 4 5 6 6 7 7 9 10 12 12 13 14 15 17 19 22 24 26 28 28 26 23 23 24 27 29
6 6 8 3 5 1 4 4 10 16 13 8 3 4 3 2 3 2 2 2 3 4 5 5 5 6 6 7 7 8 10 11 12 13 14 15 16 17 18 19 19 21 21 20 19 22 23 23 25

GFSSGP_850_spd_066.txt.gz
Wind_Speed
12 9 7 12 3 3 7 9 3 3 2 5 8 4 6 9 6 5 16 6 16 16 22 19 20 18 16 16 14 11 11 9 6 5 5 4 2 2 3 5 8 10 8 8 10 12 11 7 5
11 4 9 9 4 6 6 11 6 4 13 7 4 6 5 8 13 12 14 15 13 15 22 20 18 18 17 15 13 12 10 9 7 5 4 3 3 5 8 10 11 11 9 7 8 9 10 9 7
11 6 10 4 6 9 7 10 8 13 7 5 4 7 7 10 11 8 7 21 15 11 15 19 18 18 17 14 12 11 9 6 5 4 5 5 7 7 8 11 11 11 11 7 4 7 8 9 9
11 2 7 6 9 14 15 5 10 12 7 3 3 4 9 7 5 7 18 22 19 14 18 16 18 18 15 14 13 10 8 6 5 5 8 8 10 8 10 11 10 12 9 5 0 4 6 7 9
15 6 7 9 14 12 13 12 3 5 7 10 1 5 10 11 10 12 23 20 17 17 14 15 18 17 15 13 12 11 8 4 3 6 9 8 12 9 9 9 9 10 8 5 1 2 4 6 9
9 7 6 13 13 14 11 15 8 4 9 4 3 6 8 13 12 15 19 19 16 15 12 10 18 17 14 13 10 9 7 5 6 8 6 7 10 10 7 7 7 6 4 3 1 2 4 7 8
6 3 13 13 17 14 15 8 11 8 6 8 2 4 17 16 16 13 16 16 16 8 6 14 19 16 14 11 10 9 8 6 5 5 7 5 6 7 8 6 5 4 4 2 2 3 4 7 8
17 3 7 15 14 11 13 16 15 11 12 5 4 6 8 12 20 21 14 15 16 13 5 6 17 17 13 11 10 10 10 8 7 6 5 6 6 6 6 6 6 3 3 3 3 4 5 6 6
18 8 12 18 19 11 12 6 11 6 10 2 4 12 10 9 16 22 18 16 14 13 12 7 6 15 13 12 13 12 11 11 11 8 6 6 6 6 7 7 6 6 5 5 5 5 4 5 5
12 9 16 20 15 7 15 6 15 7 7 8 8 6 7 5 11 21 22 20 15 14 16 9 6 4 8 9 7 8 12 11 11 11 10 6 3 5 8 7 7 7 7 7 7 7 7 6 5
10 12 16 17 4 8 8 2 3 7 5 17 13 14 10 5 7 9 14 21 22 17 14 15 12 7 9 12 8 9 10 9 10 9 7 7 7 9 9 8 8 9 9 8 8 8 8 7 4
8 23 21 14 2 1 2 1 8 12 10 3 12 18 9 6 5 8 8 5 12 15 18 17 15 16 15 18 16 7 8 8 6 8 12 8 13 14 11 11 9 11 10 10 8 8 9 10 9
17 14 22 9 2 3 4 4 8 6 3 5 7 11 7 4 6 7 10 10 7 10 18 20 23 19 17 16 11 13 12 12 11 13 15 10 13 18 14 12 10 9 9 8 7 7 4 8 12
14 20 9 9 5 2 3 6 14 12 7 7 3 2 5 6 5 5 6 13 13 11 10 15 22 23 21 16 16 12 14 13 13 16 19 15 17 19 17 13 13 13 11 10 13 12 14 17 14
3 10 10 9 12 3 4 8 17 17 9 12 12 11 11 11 9 8 7 8 12 12 12 14 12 15 23 23 22 18 15 16 15 15 17 19 23 22 20 18 19 21 18 18 16 17 17 19 16
4 4 7 8 13 10 11 7 12 17 18 14 14 11 12 13 12 11 10 10 9 13 11 14 14 13 14 19 23 24 22 16 15 16 15 18 18 22 23 23 21 21 21 17 21 20 20 21 21
8 6 13 10 11 5 10 3 18 24 24 19 19 20 18 16 15 15 14 14 14 15 17 16 14 12 16 16 17 19 22 23 22 18 19 20 21 21 22 25 24 22 24 24 22 24 23 25 25
15 14 13 15 17 14 12 10 8 6 6 11 14 15 13 13 14 14 12 14 16 17 16 17 18 20 19 17 19 21 24 23 23 24 23 23 23 24 25 25 26 25 25 29 28 27 25 26 27
12 13 13 14 10 17 17 12 12 10 11 12 16 15 13 13 12 13 15 19 18 18 20 20 21 20 20 25 22 25 29 29 27 26 27 25 26 27 28 28 29 29 28 29 30 28 27 28 27
7 12 16 3 12 9 11 14 13 10 14 19 17 17 17 13 9 7 11 15 19 20 18 18 21 21 22 25 27 27 28 31 33 32 30 30 31 30 30 32 32 32 31 32 33 32 33 30 30
14 12 13 5 5 3 3 8 11 7 7 4 7 9 8 7 3 1 1 2 4 12 18 23 25 25 25 24 24 25 28 25 26 32 34 33 32 35 35 31 33 35 33 32 35 35 36 33 34
11 9 8 10 6 3 8 3 14 15 5 5 8 9 9 6 5 6 3 3 5 4 4 8 13 18 25 29 30 29 26 21 22 25 27 28 28 29 28 29 37 34 32 33 34 33 38 37 36
4 7 8 8 7 1 8 1 2 12 7 6 11 11 10 8 8 6 3 2 2 2 1 1 1 3 6 10 19 26 31 30 26 19 21 23 25 27 26 27 25 31 34 35 35 36 35 39 41
7 8 9 2 1 2 7 6 4 7 12 10 12 14 11 10 8 4 3 3 3 4 3 3 2 4 6 6 7 10 15 20 24 24 21 22 21 20 24 27 28 27 27 32 36 36 39 39 41
6 9 3 2 2 4 2 6 5 12 13 8 10 16 12 10 7 4 1 0 5 7 6 5 6 4 7 8 7 7 9 12 16 23 22 19 18 21 22 25 25 26 28 28 29 31 36 40 41
3 2 3 5 5 4 2 5 4 8 20 19 17 14 9 8 5 2 1 3 5 8 10 9 9 7 10 11 9 8 10 11 11 12 18 24 22 18 17 17 19 19 22 21 23 26 29 33 35
3 3 2 3 3 4 5 3 3 2 9 14 14 13 10 7 4 1 2 5 7 9 9 8 8 8 10 11 10 12 13 13 13 14 15 17 19 22 26 25 23 23 21 23 21 22 25 29 32
1 3 2 1 2 3 5 6 4 11 12 9 10 11 12 7 4 1 2 6 5 6 6 5 5 5 5 5 5 7 8 9 10 12 13 14 16 18 19 20 23 24 25 27 23 22 23 25 27
3 1 3 2 1 1 2 3 4 15 12 9 10 10 10 7 5 2 3 4 4 4 3 2 1 2 2 2 3 6 8 9 11 13 14 14 15 16 17 17 20 20 21 22 20 19 20 22 24
3 3 7 3 3 2 3 2 7 10 9 12 10 9 8 7 5 4 3 2 4 4 2 2 2 3 3 3 5 7 8 8 9 10 12 13 14 14 15 16 17 19 18 18 17 17 18 20 20

GFSSGP_850_spd_069.txt.gz
Wind_Speed
10 10 4 9 2 4 3 6 3 3 3 3 8 8 5 2 2 5 16 14 10 18 23 22 21 20 19 17 14 12 13 10 7 8 7 5 3 4 6 11 13 10 10 11 13 13 10 7 7
11 7 4 3 2 2 5 5 5 3 7 7 4 6 7 2 7 17 14 13 14 19 24 23 23 21 20 17 15 15 15 11 8 8 6 5 6 9 12 14 14 11 9 8 11 11 11 11 12
12 5 2 3 3 5 5 3 5 7 12 8 1 1 5 4 10 16 12 16 10 22 23 23 22 21 20 17 16 14 14 12 10 8 9 7 8 9 13 14 14 11 9 6 9 9 10 12 15
8 2 4 1 5 12 6 6 4 7 8 6 2 6 9 2 9 14 20 14 12 18 22 22 21 21 19 16 15 13 12 9 8 9 11 10 10 11 13 12 12 11 6 3 5 7 9 12 15
20 2 3 3 8 9 4 12 9 5 9 6 3 4 7 7 11 25 22 16 13 14 16 19 20 19 17 17 15 13 11 5 6 10 12 12 11 11 12 11 11 12 7 2 2 5 8 11 13
9 8 4 8 8 11 3 12 10 5 8 7 10 5 6 10 25 30 22 16 8 12 12 17 20 19 17 16 15 12 7 5 7 11 11 12 11 11 10 10 8 7 5 3 3 5 8 10 12
8 6 9 7 14 13 6 10 6 7 2 2 4 5 12 17 21 24 20 16 14 12 10 12 21 18 15 13 12 11 8 4 10 11 10 10 11 9 9 8 7 6 5 4 4 5 8 9 11
10 3 7 5 8 19 13 12 14 12 4 4 10 5 8 20 22 24 18 16 15 10 6 15 21 19 17 14 12 11 8 6 7 6 7 8 8 8 7 7 6 5 5 4 4 5 6 8 9
14 3 5 6 8 11 16 13 10 13 8 7 10 21 17 23 23 21 23 16 13 10 7 11 18 19 17 14 13 12 10 10 9 5 4 5 5 5 6 7 7 7 6 6 6 7 7 7 8
9 8 19 25 22 10 21 2 18 3 7 17 19 15 12 19 25 24 23 23 16 11 11 7 6 15 17 14 13 12 12 11 8 8 7 6 6 6 6 6 6 7 7 8 8 8 8 8 9
9 8 13 14 31 10 11 11 22 9 2 4 20 16 12 15 25 23 25 20 19 15 10 8 5 5 8 12 9 8 9 11 12 11 8 9 11 9 7 7 7 8 8 9 9 10 10 10 10
7 15 7 14 9 18 10 11 2 3 6 5 8 16 14 11 17 20 24 23 20 20 16 9 9 10 9 10 10 8 8 11 10 10 8 5 11 11 8 7 10 10 10 10 10 10 10 11 12
8 2 21 19 9 3 12 4 2 5 12 14 21 16 11 10 6 7 13 16 18 21 23 20 16 13 11 13 14 13 9 7 7 9 5 6 12 14 11 11 11 9 10 12 11 10 10 12 12
12 18 13 5 7 1 1 3 3 6 7 8 8 7 10 9 6 5 9 11 11 15 22 24 24 24 23 19 17 14 12 10 9 12 12 11 12 15 14 16 13 12 10 11 10 12 10 12 13
9 13 7 4 8 2 4 6 6 9 5 2 5 6 6 6 7 5 5 6 13 13 11 10 18 24 23 22 20 17 17 16 15 13 15 16 16 15 19 19 17 15 16 13 13 13 13 14 15
5 5 4 4 10 4 6 6 10 22 11 12 6 7 11 10 10 10 10 6 10 12 16 14 11 12 21 24 22 23 21 21 19 17 16 17 19 23 24 23 21 18 19 19 20 19 20 20 22
4 4 6 4 13 5 4 4 11 13 21 17 14 11 10 11 12 13 12 13 12 10 10 10 12 14 13 14 16 21 24 23 21 19 20 19 19 18 21 23 23 22 23 25 23 23 23 25 25
8 4 4 7 8 7 7 8 4 4 20 25 19 17 18 20 20 16 14 16 16 18 19 17 13 14 15 14 14 16 18 23 25 24 23 22 22 22 22 23 23 26 27 26 27 27 25 27 27
9 8 5 7 7 7 14 8 9 14 7 15 16 15 11 11 12 15 16 18 19 19 20 23 24 20 16 19 21 20 23 23 24 24 24 27 26 25 27 28 27 27 30 30 28 29 30 29 29
4 3 8 3 7 14 10 14 9 15 12 18 19 18 12 7 7 10 14 17 21 23 20 21 22 24 23 21 20 24 26 26 27 27 27 26 26 30 30 30 32 32 32 31 30 31 33 34 32
4 7 4 5 2 2 3 9 14 14 14 25 23 19 13 8 7 7 8 10 11 15 21 25 27 28 29 30 28 28 29 32 29 25 26 28 27 26 29 34 33 33 34 34 32 33 35 38 38
4 6 10 11 5 4 5 4 9 15 9 8 13 12 11 11 9 8 6 8 9 10 11 13 19 25 26 27 28 28 27 28 28 21 20 20 21 22 19 19 22 28 34 35 35 34 35 36 40
6 6 7 3 6 3 2 1 6 8 9 8 11 12 12 10 9 7 6 6 3 3 2 3 4 5 8 14 23 30 31 29 27 24 19 13 16 19 22 25 23 22 22 31 34 35 34 36 38
8 3 8 4 3 1 6 6 5 6 19 6 8 17 17 13 12 6 6 4 2 2 3 4 4 5 5 6 7 10 12 16 19 25 29 26 18 18 19 19 22 24 21 22 24 29 33 36 36
4 6 2 1 0 5 3 7 11 5 4 8 14 20 17 16 13 11 10 7 5 6 7 6 6 8 9 9 10 10 10 12 13 15 18 22 20 21 23 23 22 22 20 19 20 23 27 30 33
9 3 5 6 4 4 2 7 6 7 15 24 27 22 19 17 14 10 7 7 8 9 9 9 9 10 12 12 12 12 12 13 13 13 14 17 23 24 22 22 21 20 21 18 20 18 19 22 26
5 5 4 3 2 3 4 4 6 5 8 16 23 24 19 16 12 9 7 8 9 10 9 8 8 9 11 11 12 13 13 14 15 15 15 16 17 19 22 26 26 26 25 22 23 21 20 20 23
3 4 2 2 2 4 4 4 4 7 10 10 11 19 17 14 11 9 8 7 8 7 7 7 8 8 8 9 10 11 12 12 12 13 13 14 15 17 19 20 22 24 25 26 27 29 28 25 22
4 3 3 0 4 4 2 5 5 14 14 12 12 20 20 17 14 10 8 7 6 6 6 5 5 4 5 5 6 7 9 10 11 12 13 14 15 16 17 17 18 18 19 20 21 20 18 17 18
4 4 3 3 4 1 3 5 4 8 9 15 15 19 18 16 12 9 7 7 6 7 6 5 5 5 5 5 6 7 9 10 11 11 12 12 14 15 16 16 16 17 18 19 19 19 16 14 15

GFSSGP_850_spd_072.txt.gz
Wind_Speed
10 6 5 4 3 4 3 6 3 1 3 4 4 12 9 4 2 4 18 15 17 22 24 24 22 20 18 17 14 12 10 9 6 7 6 6 4 5 11 14 11 9 11 14 13 9 8 8 8
14 5 2 2 3 1 5 5 5 5 8 10 13 13 6 2 4 13 24 12 10 22 25 24 23 21 19 17 15 15 13 10 10 11 7 6 7 11 15 15 12 8 8 11 11 10 11 11 12
18 4 1 3 3 5 4 3 6 4 6 8 5 11 6 3 9 21 12 15 16 23 25 25 24 22 20 17 16 16 14 12 11 8 8 9 10 13 15 15 12 8 6 8 10 11 13 14 15
14 4 1 3 6 7 5 4 8 5 4 7 12 7 6 3 15 9 17 16 16 22 23 25 24 23 20 17 16 16 15 12 11 10 10 10 11 14 14 14 11 8 4 5 8 11 13 14 15
18 7 1 2 7 4 5 13 22 7 2 6 8 3 5 8 10 12 20 16 18 25 24 24 23 22 20 18 16 15 13 8 8 12 12 12 14 14 13 12 8 9 5 4 7 10 11 13 14
7 9 2 6 11 3 7 15 16 9 3 10 12 7 3 13 15 18 19 14 11 21 21 22 22 21 19 19 17 14 9 5 7 14 13 13 12 13 11 9 8 8 4 4 6 8 10 12 12
9 6 7 5 9 7 4 15 6 7 6 3 18 5 11 20 19 20 18 16 11 15 16 19 22 20 19 18 16 14 9 6 9 11 14 12 12 11 9 8 8 6 5 4 6 8 10 11 11
8 4 8 7 4 8 11 20 15 9 4 11 15 7 7 28 22 21 19 15 12 12 11 15 21 18 17 17 15 12 9 7 10 8 9 9 7 9 9 9 8 8 7 6 6 7 9 10 10
20 5 11 12 8 9 12 9 17 12 7 9 4 13 26 29 23 23 22 19 18 14 9 15 23 21 19 16 14 13 11 9 10 10 7 6 6 5 7 8 8 7 7 7 7 7 9 10 11
6 3 10 7 9 5 12 18 21 10 6 8 16 20 27 28 25 23 28 24 20 15 12 15 20 21 19 18 16 14 13 11 9 8 6 6 7 7 7 7 7 7 6 6 7 9 10 11 11
11 16 10 11 13 5 9 25 22 17 6 15 23 23 27 26 23 25 24 21 17 12 13 13 11 16 17 18 15 14 12 11 10 9 8 9 9 8 8 8 8 8 8 8 8 8 10 11 12
7 6 24 9 5 9 3 17 22 19 5 13 14 19 22 27 24 25 23 20 19 17 14 13 11 11 11 14 13 9 8 12 12 10 10 10 10 11 9 6 7 8 9 10 10 10 11 12 12
1 13 11 9 14 21 17 22 23 25 3 12 19 18 17 19 24 23 21 22 22 18 17 16 15 14 11 12 11 10 8 10 10 9 10 11 9 9 11 9 7 8 11 12 12 13 14 14 14
12 7 7 2 13 13 22 21 26 17 4 20 17 13 12 13 15 17 22 23 23 23 19 17 18 17 16 14 12 11 12 11 11 9 10 11 11 10 11 11 9 10 12 11 11 12 13 13 15
5 8 4 11 13 8 14 9 14 19 4 11 14 13 10 10 12 9 12 18 19 23 23 20 18 19 18 17 15 15 14 14 13 11 10 12 13 13 13 13 13 13 14 13 13 13 15 16 17
5 5 6 7 10 10 10 8 15 23 13 6 8 11 11 9 7 9 9 9 13 14 19 19 24 24 23 23 21 19 20 18 17 16 15 15 16 16 17 18 18 18 18 18 17 17 17 19 20
2 4 6 5 15 5 7 4 8 11 10 14 8 9 9 12 11 12 11 12 10 14 15 14 17 18 22 28 26 25 23 22 21 20 21 19 17 17 20 20 20 22 23 22 22 22 22 22 23
6 3 2 3 7 6 6 5 5 6 8 18 18 14 12 11 12 12 16 15 15 14 14 14 14 15 14 16 21 24 26 27 26 25 24 22 21 21 21 22 22 23 26 26 26 26 27 27 26
7 1 5 5 5 5 7 4 10 17 11 12 18 19 17 14 18 17 18 19 19 19 18 17 17 18 19 20 20 21 21 23 27 31 28 26 25 25 25 26 26 27 27 27 28 29 30 30 30
7 6 4 2 4 4 6 14 9 14 9 13 16 20 20 13 11 15 19 19 19 20 21 22 21 19 20 22 22 23 22 23 23 23 25 27 27 28 28 29 30 31 32 33 31 32 33 32 32
1 5 3 4 2 2 4 6 9 9 10 18 20 21 21 17 16 16 15 16 18 20 21 23 23 24 25 22 22 22 22 24 25 28 29 27 24 24 25 25 26 32 34 33 33 36 36 35 32
5 4 6 2 3 4 4 5 6 9 15 10 23 25 22 18 17 16 14 13 14 15 17 21 24 27 30 30 29 29 29 28 28 25 27 29 30 28 22 19 19 18 20 26 30 33 35 35 34
5 3 5 2 5 3 1 1 6 3 9 16 16 24 21 20 18 15 12 10 10 9 11 13 13 14 18 25 29 30 30 29 28 27 25 22 20 22 23 20 19 20 21 22 21 24 28 30 32
3 2 6 4 4 2 5 5 5 6 8 8 8 22 21 21 18 14 10 10 10 9 8 8 9 9 9 10 11 13 15 19 24 28 30 30 29 26 21 22 22 21 21 19 18 20 22 23 26
2 4 2 2 4 5 3 5 15 6 7 7 10 22 23 24 21 16 14 13 10 8 8 8 9 10 11 11 11 11 12 12 13 14 16 17 21 21 20 21 22 22 22 24 21 20 24 22 25
3 3 4 5 4 4 2 8 7 5 13 16 26 31 26 25 20 17 14 11 10 10 9 10 11 13 14 14 14 14 15 15 15 15 14 14 15 18 21 21 20 20 22 22 21 22 24 22 20
4 6 2 2 3 3 5 7 9 2 2 13 23 27 26 24 20 17 14 11 10 10 11 10 11 12 13 14 14 14 14 15 16 17 17 17 17 18 18 19 21 22 24 25 24 25 26 25 21
3 2 2 3 3 3 4 5 6 3 8 11 14 19 25 22 19 15 12 10 9 10 9 9 9 9 10 11 11 11 12 12 13 13 14 14 15 16 17 18 19 20 20 21 22 23 25 27 27
5 4 6 3 4 4 3 5 5 10 12 15 15 25 27 22 18 15 12 10 9 8 8 8 8 8 8 8 8 9 9 10 11 11 12 13 14 15 16 15 15 16 16 17 18 19 19 19 19
7 5 4 4 4 2 3 5 5 7 7 14 17 25 23 21 18 15 12 10 9 8 8 8 8 8 8 8 9 9 10 11 12 12 12 12 13 14 14 14 15 15 16 17 17 16 15 14 12

GFSSGP_850_spd_075.txt.gz
Wind_Speed
6 2 4 1 3 4 3 6 3 5 2 2 3 3 6 5 2 4 18 19 23 27 25 25 22 20 18 16 15 13 9 6 4 4 4 3 5 10 14 11 9 12 13 12 8 8 7 6 5
4 2 0 4 4 2 5 4 4 5 2 12 13 6 5 3 2 13 27 17 20 25 26 25 23 20 18 17 14 12 10 8 8 8 6 6 8 13 14 11 7 8 10 10 9 8 8 7 7
7 7 2 3 3 5 4 3 4 10 5 7 4 7 3 3 4 25 13 19 23 24 26 25 22 20 18 16 14 14 12 12 7 6 6 9 11 14 14 11 7 5 8 9 9 10 10 9 9
12 6 5 3 5 5 4 3 4 13 7 6 12 6 6 3 14 12 15 18 19 24 25 24 23 21 19 16 16 14 13 10 8 7 8 10 12 13 13 10 6 4 6 9 9 10 10 10 9
8 6 4 3 5 3 4 12 13 7 8 2 7 5 3 12 10 10 17 18 20 25 25 24 23 22 19 17 16 14 11 6 8 10 11 12 13 12 11 9 6 6 6 7 8 9 10 10 8
7 6 3 5 6 2 4 10 13 6 9 5 7 7 3 10 12 18 16 16 19 25 23 24 23 22 19 17 15 14 9 5 5 10 10 12 13 12 11 9 7 6 4 6 7 7 8 8 7
5 4 7 5 7 2 1 12 5 11 8 6 15 5 7 13 19 20 17 16 20 21 21 23 23 21 19 18 14 13 10 6 6 8 11 11 13 11 10 8 7 5 3 4 5 7 8 7 6
5 3 7 4 9 3 6 10 12 13 6 3 9 6 7 21 23 22 18 17 17 19 18 20 21 21 19 18 15 13 9 6 9 9 8 5 6 6 6 6 5 4 4 5 6 8 9 8 7
6 3 9 8 6 5 5 8 12 22 12 11 4 12 20 22 24 25 22 19 19 17 17 18 21 21 19 18 15 12 10 7 9 10 9 6 5 5 6 5 4 4 4 4 5 8 11 10 10
7 5 5 2 1 4 3 10 13 12 26 8 8 18 27 22 24 27 26 22 21 17 15 18 21 21 20 18 15 13 12 9 9 9 6 6 7 7 8 8 8 7 7 7 7 7 8 9 11
3 13 7 3 4 4 8 11 17 13 8 7 4 30 27 24 23 25 27 22 19 14 13 18 22 20 18 17 16 14 13 11 10 11 8 8 8 9 9 8 7 7 7 8 8 8 9 10 11
5 9 15 5 4 3 6 9 19 13 14 27 24 25 27 26 26 24 25 23 20 16 13 14 17 19 17 15 15 13 13 11 11 10 10 11 10 10 8 6 6 6 7 9 9 10 10 11 12
1 7 15 10 4 9 9 13 9 31 22 29 16 22 24 24 21 20 21 20 20 17 17 16 15 15 13 13 14 13 10 9 10 10 11 11 9 8 9 9 7 6 8 9 11 12 13 13 14
8 4 16 20 16 11 6 2 0 25 15 24 12 17 21 24 23 22 22 22 23 19 18 16 16 14 14 13 13 11 9 8 9 9 9 10 10 9 8 9 10 9 7 8 10 12 13 13 14
2 5 6 15 17 6 18 6 11 42 32 30 10 13 14 16 19 21 21 20 19 19 17 18 18 17 17 14 13 12 10 10 12 11 10 11 12 11 11 10 10 10 9 10 12 13 13 15 16
4 3 5 9 14 6 17 11 14 23 30 27 9 8 14 14 15 13 13 17 19 20 19 16 16 17 18 17 15 14 14 14 14 15 14 13 13 13 15 15 14 12 14 14 15 16 17 17 18
4 5 6 7 16 7 15 4 19 34 29 26 17 12 14 15 14 13 13 14 17 17 18 20 20 20 19 19 19 20 19 19 17 18 17 16 16 16 17 18 17 16 18 20 20 21 21 21 22
4 2 4 5 9 9 10 5 6 22 25 29 24 17 14 15 14 15 16 15 14 16 20 21 20 19 18 20 22 24 24 23 22 23 22 20 21 20 20 21 20 20 21 23 23 25 24 25 26
6 2 4 2 4 5 5 3 7 17 15 14 20 23 21 16 14 14 15 18 19 19 19 19 20 21 22 23 22 24 28 26 25 24 26 25 25 25 26 26 25 26 27 26 27 28 29 29 29
6 6 2 2 2 3 4 9 8 14 14 20 18 22 26 21 18 18 18 21 21 20 20 20 20 21 22 23 24 24 24 24 24 24 26 27 31 31 30 28 27 28 29 30 31 33 34 33 32
3 4 3 2 2 2 3 6 11 11 16 25 27 21 18 24 20 17 20 22 20 19 18 18 19 20 21 22 24 26 28 30 29 27 26 27 27 29 29 29 29 27 28 28 31 32 31 33 35
3 2 2 2 2 3 5 5 7 9 14 9 26 28 25 20 20 19 20 20 19 19 18 19 20 22 23 24 24 24 24 24 25 26 27 28 29 28 27 26 26 25 23 21 19 19 24 28 30
5 1 6 4 1 2 2 2 5 3 7 17 19 27 27 19 21 21 19 17 16 15 16 17 19 21 22 24 23 25 26 26 26 25 25 23 25 27 28 28 28 27 24 22 20 20 20 19 19
2 5 6 4 3 2 6 5 5 7 8 6 12 24 30 26 23 21 19 17 14 15 15 15 15 14 13 12 11 12 14 17 20 23 24 25 26 27 27 25 23 25 24 23 23 23 22 20 18
3 6 2 1 1 5 3 5 13 5 5 6 9 18 26 29 29 25 20 16 14 13 12 11 11 11 11 10 10 10 10 11 12 13 15 15 16 17 19 19 21 22 22 22 22 23 22 20 21
3 6 4 5 4 4 4 8 6 6 12 17 18 19 24 30 28 24 19 16 14 12 10 10 11 12 13 13 14 14 14 14 14 15 16 16 16 15 15 18 19 19 20 20 20 20 20 21 24
4 3 4 5 3 3 4 8 8 7 8 7 13 20 28 30 28 24 19 15 13 10 10 11 11 12 12 13 14 15 16 16 16 16 16 17 18 18 19 19 18 19 20 20 19 19 21 23 23
1 4 2 2 1 4 5 6 8 5 8 5 9 22 29 31 27 22 19 15 12 10 9 9 9 10 10 11 12 12 13 13 14 14 15 15 16 16 17 18 18 18 18 19 20 20 21 22 23
4 4 2 1 4 5 2 6 7 6 8 8 10 19 29 30 27 22 17 14 11 10 9 8 8 9 10 10 10 10 10 10 11 12 12 13 14 15 15 16 16 16 16 17 17 17 17 17 17
6 7 7 4 5 2 2 6 2 5 6 12 14 23 29 27 24 20 16 14 11 10 9 8 9 10 10 10 10 10 10 10 11 11 12 12 13 14 14 13 14 14 14 14 15 14 13 11 10

GFSSGP_850_spd_078.txt.gz
Wind_Speed
5 6 3 2 3 4 2 4 2 5 1 3 3 4 5 4 5 4 13 24 27 29 28 25 21 19 17 15 13 11 8 5 3 3 5 6 9 13 12 12 14 14 12 9 8 6 5 3 2
6 7 4 3 4 3 4 3 2 3 8 0 5 7 3 2 3 8 27 16 26 28 28 25 22 19 17 15 13 11 7 5 7 7 7 8 12 13 11 9 11 13 11 9 7 6 5 4 4
8 4 3 4 3 5 4 3 2 9 14 6 2 3 3 2 5 25 14 23 27 26 27 25 22 20 18 15 12 10 9 10 8 7 9 10 13 13 11 7 8 10 10 10 9 8 7 7 7
11 5 5 4 4 5 4 3 4 10 8 2 3 3 5 7 17 13 18 25 28 25 26 24 22 20 17 14 12 11 11 8 6 6 10 11 12 12 10 7 6 9 10 10 10 9 9 9 8
13 1 4 3 4 4 3 3 6 5 6 6 1 3 3 13 11 11 15 23 23 24 25 22 21 19 17 15 14 13 8 3 3 7 11 12 12 12 10 7 6 8 9 9 9 9 8 8 8
6 5 4 9 5 2 3 6 4 6 8 6 2 3 4 10 7 14 16 20 22 23 25 22 21 19 17 16 15 11 7 3 2 6 10 13 12 12 10 7 7 6 7 8 8 7 7 6 6
8 3 4 8 6 1 1 8 5 6 10 4 4 2 3 12 13 18 17 18 21 23 24 23 21 19 17 16 14 11 7 4 4 5 9 9 11 11 10 8 6 5 4 6 7 7 6 4 3
4 4 4 4 11 4 3 4 6 13 3 12 1 4 6 18 21 19 18 18 21 21 21 23 21 20 18 16 13 10 8 5 7 6 5 6 6 5 5 4 2 2 2 2 2 4 6 6 6
6 3 5 8 7 5 5 4 7 9 10 9 3 6 5 24 24 22 22 22 22 22 21 21 21 20 18 16 14 12 8 5 8 8 8 7 6 5 4 4 3 2 2 2 3 4 4 5 6
5 5 3 4 3 5 6 4 9 8 21 11 20 4 16 27 27 25 26 24 24 23 22 22 21 20 18 16 15 12 9 7 7 7 6 6 7 6 6 6 5 4 4 3 4 4 6 7 8
4 6 4 6 10 7 6 3 5 7 4 9 23 20 7 24 28 26 23 21 19 19 19 20 21 21 19 17 15 13 10 9 8 9 7 6 6 6 6 6 6 6 5 5 5 5 6 7 9
2 3 7 5 4 3 3 3 8 5 7 17 24 20 15 24 24 25 24 22 19 16 13 16 20 20 18 14 14 12 11 10 10 9 10 8 7 7 6 5 5 5 6 6 6 6 7 8 10
1 4 11 7 3 7 8 4 4 24 22 22 23 11 15 19 19 20 20 19 18 15 12 13 17 19 17 15 14 13 11 8 7 10 10 10 8 5 7 7 7 5 5 6 6 7 9 10 11
8 8 17 13 7 8 6 7 4 27 21 20 24 17 13 19 20 18 21 20 19 15 14 13 13 14 14 13 12 11 9 7 7 9 8 8 7 7 6 7 8 7 6 6 6 7 9 10 12
10 7 6 6 9 3 5 6 10 35 28 32 29 21 12 21 20 22 21 20 19 16 14 14 14 13 14 12 11 11 9 9 8 8 8 8 8 9 9 9 8 7 8 8 8 9 10 12 13
5 5 6 6 17 11 15 7 14 26 19 28 28 25 16 13 20 19 18 19 19 19 18 15 15 15 14 14 12 12 11 11 10 10 11 11 11 10 11 11 11 9 10 11 12 12 13 15 16
3 4 5 7 19 8 9 4 12 10 24 28 31 27 20 11 14 14 15 16 18 17 17 18 16 16 15 14 15 15 16 16 14 13 14 15 15 14 15 14 13 12 14 15 16 17 18 19 19
6 4 2 5 11 10 13 3 13 24 25 29 33 24 22 15 14 14 14 15 15 15 16 17 19 18 16 17 19 20 20 21 20 19 18 17 18 18 18 18 17 17 18 19 19 21 21 23 23
6 5 6 3 4 9 12 8 14 20 17 26 35 28 27 20 16 16 19 19 18 17 19 20 18 17 17 18 19 20 22 22 22 21 21 21 22 22 22 22 22 22 23 23 24 26 27 28 28
6 5 2 1 2 6 8 10 9 20 22 31 37 36 32 28 23 19 19 20 21 20 20 20 21 21 22 23 24 25 24 23 23 23 24 25 26 27 28 28 26 26 27 26 26 27 29 30 30
2 6 3 2 2 1 4 6 8 8 17 26 34 34 27 20 28 23 21 22 20 21 21 21 20 21 22 23 24 24 25 27 27 26 27 27 26 26 27 27 27 28 29 28 27 26 27 30 30
2 3 5 2 3 3 1 4 6 12 13 11 30 37 38 28 19 24 23 25 26 24 21 19 19 20 21 22 23 24 25 27 27 27 27 28 27 26 25 25 26 26 26 26 25 23 21 20 22
2 2 4 3 3 3 2 2 4 3 8 20 21 24 33 28 23 23 24 23 22 20 19 18 18 18 19 21 22 24 26 28 28 27 26 26 27 28 27 27 26 25 26 25 24 23 21 20 21
4 5 6 4 2 2 7 6 4 6 7 5 10 27 32 32 25 23 25 23 21 19 16 15 15 16 17 17 17 16 16 18 21 24 25 25 25 26 26 27 27 26 24 25 24 24 22 21 20
4 3 1 2 1 5 3 5 11 4 7 7 9 14 18 26 29 31 30 26 21 18 16 15 15 14 13 12 11 10 10 10 11 11 12 13 14 15 16 17 18 19 21 23 24 23 22 20 21
4 6 4 5 4 4 1 7 5 5 11 20 21 18 14 17 28 32 31 27 22 19 16 14 13 12 12 12 12 12 12 12 13 14 14 14 15 15 15 15 16 18 18 19 20 21 22 21 21
4 3 4 4 2 3 4 7 8 7 9 13 15 16 19 20 29 33 30 25 21 17 14 12 11 12 13 13 13 13 13 13 14 15 16 17 17 17 18 18 18 18 18 19 19 19 17 19 21
1 5 2 2 2 4 5 5 6 6 7 5 8 16 17 21 28 30 27 22 18 15 13 11 10 10 11 11 11 12 12 13 13 14 14 15 16 16 17 17 17 17 17 17 17 18 19 20 22
3 3 1 3 4 4 3 5 6 5 7 8 10 13 17 25 29 27 22 18 16 13 11 10 9 9 9 10 11 11 11 11 12 12 13 13 14 14 15 16 16 16 16 16 15 16 15 15 15
4 3 5 3 4 1 3 9 3 6 8 11 11 11 17 25 27 24 21 18 16 13 11 9 8 8 9 10 10 10 10 10 10 11 12 12 13 13 14 15 15 15 15 15 15 14 14 12 10

GFSSGP_850_spd_081.txt.gz
Wind_Speed
6 6 7 6 2 2 2 3 1 1 1 3 4 3 4 3 4 2 14 28 27 28 27 24 21 19 16 14 12 9 7 5 3 5 8 11 13 13 15 17 17 14 10 8 8 6 5 6 7
8 6 6 3 3 3 3 2 1 2 4 5 1 4 1 2 3 6 25 25 29 29 28 24 22 19 17 14 13 10 6 4 7 9 10 13 14 12 13 15 15 13 12 10 9 8 7 9 9
10 5 5 4 3 5 3 3 1 6 6 6 1 2 2 2 5 19 21 25 30 29 27 24 21 19 17 15 13 9 7 11 10 10 12 14 14 13 11 12 13 13 13 12 11 11 10 11 10
9 4 4 3 5 3 3 3 3 7 4 5 1 2 2 3 12 16 22 31 32 29 27 24 21 19 16 14 11 9 12 10 8 11 13 15 15 13 9 11 11 13 13 13 13 13 12 12 11
12 4 3 3 4 2 3 1 2 4 4 4 2 1 2 10 9 12 20 30 31 29 27 24 22 19 16 14 12 13 10 4 4 8 13 15 14 12 9 9 10 11 12 12 12 12 12 11 11
5 3 3 6 4 2 2 2 1 5 5 6 2 3 2 7 11 15 20 24 25 27 26 24 21 20 17 14 14 11 7 6 5 6 12 13 12 10 9 8 8 8 8 9 10 10 10 10 9
5 3 5 4 6 2 3 4 4 3 5 7 3 2 1 10 11 18 20 25 25 25 25 23 22 19 17 16 14 10 6 5 6 6 9 9 11 8 8 7 7 7 6 5 4 4 5 6 7
10 3 5 4 10 10 3 4 4 7 3 6 4 4 3 10 15 19 21 21 22 24 25 23 21 21 19 17 13 9 6 4 7 8 7 7 8 7 5 5 4 4 5 5 3 2 1 1 2
8 4 11 10 9 5 4 4 3 4 6 10 10 9 9 10 18 20 22 21 23 23 24 23 22 20 18 16 14 10 7 4 7 7 7 6 7 6 5 4 3 2 2 2 1 2 3 2 2
5 4 6 5 5 6 5 4 4 4 7 5 12 13 3 14 21 21 23 24 25 24 23 24 23 21 19 16 14 11 9 6 6 7 7 6 5 4 4 4 3 2 1 1 2 3 4 5 5
5 5 5 2 10 11 6 4 3 5 3 5 15 24 2 13 20 19 20 21 22 21 20 21 22 21 19 17 14 12 10 7 6 7 7 5 4 4 4 4 4 4 3 3 3 4 5 7 8
6 5 5 7 6 7 4 3 2 3 5 6 13 21 5 14 19 20 19 17 21 20 19 20 21 21 19 16 14 12 10 8 7 7 8 6 5 5 5 5 5 4 3 4 4 5 6 7 8
3 7 8 11 11 10 8 3 3 8 4 7 11 16 18 14 18 18 16 18 18 18 16 16 18 21 19 16 14 13 10 8 8 9 9 8 7 6 5 6 5 4 3 4 5 5 6 7 8
9 7 13 10 8 5 4 1 2 2 5 11 12 16 19 10 16 18 21 20 20 17 14 12 15 19 18 15 13 11 9 8 7 8 8 7 6 6 5 4 5 6 5 4 4 5 6 6 7
15 5 3 1 3 3 5 5 9 5 16 18 18 19 21 15 12 20 22 22 19 16 13 13 12 15 15 14 12 11 9 9 6 6 7 7 6 6 6 6 5 5 7 7 7 6 7 7 9
6 6 4 2 7 2 4 8 7 6 13 18 22 23 23 15 13 17 19 21 21 19 17 16 15 13 13 12 10 10 10 9 7 7 8 8 8 8 8 9 7 8 9 10 10 11 11 12 12
3 5 6 3 5 2 3 5 10 5 9 20 22 26 27 24 11 13 19 22 22 22 19 17 16 15 13 12 11 11 12 12 11 12 11 11 11 12 13 12 10 11 12 13 14 14 15 15 16
5 5 5 7 9 5 9 11 3 3 11 19 24 29 33 31 14 11 15 18 20 22 21 20 19 16 15 15 15 16 17 17 16 16 15 14 15 15 16 17 16 15 16 16 16 17 18 20 21
6 5 5 2 7 8 12 11 7 13 5 16 22 30 35 31 15 12 13 17 17 18 19 19 19 18 18 18 18 19 19 18 17 18 18 18 19 19 20 20 20 20 20 19 20 21 22 24 23
5 7 3 1 2 13 7 14 10 13 13 14 25 32 36 31 21 16 16 16 18 17 18 17 17 16 17 17 17 18 18 19 19 18 19 21 22 23 23 23 24 24 23 24 24 24 25 26 24
2 5 4 4 2 2 4 10 8 9 14 22 16 30 36 31 26 22 21 19 21 20 19 18 19 20 20 20 20 21 22 23 22 22 22 23 24 24 24 24 25 24 25 25 25 26 26 26 24
3 3 5 5 3 3 2 4 6 14 18 19 27 33 38 36 28 22 19 22 23 23 22 22 21 21 20 20 21 21 22 23 23 24 25 26 28 28 27 26 24 24 24 26 25 24 23 23 21
3 3 5 3 3 2 0 2 5 5 18 17 22 29 39 32 36 32 25 25 25 24 23 22 21 21 20 20 20 21 22 24 25 25 25 24 24 24 24 25 27 27 26 25 24 23 22 21 20
7 5 6 3 2 2 5 5 3 5 10 7 20 32 40 44 46 38 26 25 27 25 23 22 20 19 19 19 19 20 21 22 23 23 24 24 24 25 26 26 26 26 25 25 23 23 23 22 21
2 4 2 1 1 4 2 3 10 9 7 6 11 22 31 40 46 39 35 29 28 25 24 21 19 18 17 17 18 17 16 15 14 14 14 15 16 17 19 19 19 19 19 19 20 21 22 22 21
3 4 4 6 4 3 1 5 5 6 11 17 20 14 8 12 25 30 35 33 30 28 24 22 19 17 16 16 15 15 14 14 14 14 14 15 15 16 16 17 17 18 18 18 18 18 18 18 19
4 4 3 4 1 1 3 4 9 6 10 11 14 13 16 18 17 24 33 34 31 28 23 18 16 15 15 14 14 14 14 14 15 15 16 16 17 17 17 18 19 19 19 19 18 18 17 19 19
1 5 2 1 2 4 2 3 5 5 1 6 9 15 17 14 16 23 31 31 27 22 18 15 14 14 13 13 12 12 12 12 12 13 13 14 15 15 16 16 16 16 16 16 17 17 18 19 21
3 3 1 2 3 3 1 4 5 5 2 6 13 18 13 12 15 21 27 25 21 18 17 15 14 12 12 12 12 12 11 12 12 12 12 12 13 14 14 14 15 15 15 15 15 15 16 17 17
2 5 5 3 4 0 1 7 3 5 4 6 14 14 6 9 16 23 25 23 20 18 15 13 12 11 11 11 11 12 12 12 12 12 12 12 12 13 14 14 15 15 15 14 14 14 15 14 14

GFSSGP_850_spd_084.txt.gz
Wind_Speed
9 8 9 7 5 5 11 6 1 5 5 2 3 4 2 5 4 2 14 20 23 26 24 23 20 17 14 11 10 7 5 5 5 7 11 14 14 16 16 15 12 9 7 9 8 7 7 8 10
10 8 9 4 6 10 10 5 8 3 1 3 4 4 4 4 3 6 19 23 26 25 23 22 20 17 15 12 10 8 6 5 8 10 14 15 12 13 15 15 14 13 12 11 10 9 9 10 12
11 10 8 5 8 12 9 8 5 1 3 6 5 2 1 2 3 14 12 25 26 24 23 22 21 19 16 13 10 8 6 11 11 13 15 16 13 10 13 14 14 14 14 13 13 12 12 12 13
8 5 4 8 14 6 2 8 2 3 5 4 2 6 4 1 4 8 19 25 25 24 21 24 22 20 17 14 11 7 10 12 10 15 16 17 15 8 10 12 14 15 15 15 14 13 13 13 12
9 7 10 12 11 7 6 4 2 2 4 3 2 5 4 3 5 10 19 26 24 23 21 25 21 20 16 14 11 11 10 5 7 14 16 17 15 8 10 10 11 12 13 14 14 13 12 11 11
11 7 12 16 16 7 7 3 1 3 2 4 4 5 5 5 9 16 20 25 27 23 21 22 21 19 17 14 13 12 7 6 8 10 13 15 13 11 10 8 9 10 9 9 9 10 10 9 9
13 9 16 17 13 10 7 5 3 3 3 6 1 3 4 6 10 15 20 20 24 21 20 20 21 19 16 15 14 11 8 7 9 10 12 12 10 7 7 7 6 7 7 7 7 6 5 5 6
11 7 16 12 14 14 9 7 3 3 6 2 3 3 6 2 11 15 21 21 22 21 19 19 18 18 17 17 14 11 8 8 8 10 10 11 9 8 7 6 4 4 4 4 3 4 4 3 3
9 5 15 17 16 14 10 7 2 3 5 7 7 4 5 4 14 17 19 21 21 21 19 19 18 17 15 15 15 11 9 7 9 10 8 8 7 6 6 5 3 3 2 1 1 1 1 1 1
8 8 18 15 9 6 10 9 8 5 8 7 7 11 2 9 17 18 21 21 22 22 24 20 19 18 16 16 13 10 9 7 10 9 8 8 7 6 5 4 4 3 3 2 3 3 3 3 3
14 8 7 12 13 9 11 9 5 12 6 7 9 13 1 13 16 17 20 21 22 21 22 24 23 18 18 15 13 11 10 9 9 9 9 8 7 6 5 5 5 4 4 4 4 5 4 5 5
13 13 11 10 8 9 13 9 6 3 7 7 7 12 6 11 17 18 17 19 22 21 21 23 22 21 18 15 14 11 10 10 9 8 9 8 6 5 5 6 6 5 5 5 5 5 6 6 7
13 16 9 9 9 8 9 8 7 7 6 5 4 7 11 1 13 13 14 14 17 20 21 22 22 22 19 18 14 13 11 10 9 10 10 10 8 7 7 7 6 5 4 4 5 5 6 7 7
15 17 14 11 8 4 5 5 5 8 9 6 2 4 7 9 3 15 14 15 19 19 19 18 20 22 22 19 16 14 12 10 10 10 10 10 9 8 7 6 6 7 7 6 4 5 5 6 6
17 11 10 8 9 4 3 11 11 9 9 10 9 2 2 7 7 7 13 18 17 17 15 15 16 21 22 19 17 14 13 12 10 8 8 9 8 7 7 7 6 6 7 8 8 7 7 7 7
12 13 11 9 9 5 6 21 12 11 15 18 16 12 5 8 9 7 11 17 18 20 19 16 15 18 20 19 17 15 13 12 11 9 9 8 8 7 7 8 7 9 10 10 10 11 11 11 11
11 12 17 7 9 5 11 13 7 9 13 16 21 20 10 12 11 8 8 15 17 21 20 19 18 17 18 17 16 15 14 14 12 12 10 9 9 10 11 11 10 11 13 14 14 14 14 14 14
10 11 15 12 11 9 12 14 8 5 7 13 16 24 13 11 14 12 10 14 18 22 23 23 21 19 18 17 17 17 17 16 15 14 13 12 12 13 14 15 15 16 17 17 17 17 18 18 18
11 10 12 8 7 8 15 15 14 12 10 12 14 21 24 18 16 16 11 14 19 21 24 25 22 20 21 21 21 20 19 17 17 16 15 16 17 18 18 18 19 19 20 20 20 21 21 21 22
10 11 9 5 6 8 9 15 15 14 13 15 17 22 31 25 19 18 11 12 16 21 25 25 23 23 22 21 21 20 18 18 17 17 16 18 19 20 21 22 23 23 23 23 24 24 24 24 24
9 14 9 3 5 11 7 14 16 15 18 17 21 16 25 31 23 18 16 13 15 17 18 20 21 22 23 23 23 21 19 19 18 18 19 20 21 22 23 24 24 24 25 24 24 25 26 26 24
11 5 7 8 11 6 8 4 6 14 17 18 22 23 18 21 22 21 18 10 15 18 20 20 21 23 23 23 23 22 21 19 19 20 21 22 24 26 27 27 27 26 25 25 24 25 26 25 25
3 5 9 4 7 3 8 5 9 7 15 16 22 26 27 20 21 23 23 16 12 19 21 22 22 22 22 23 22 20 19 20 20 21 23 24 25 25 25 25 25 25 25 25 26 25 24 25 23
10 8 7 4 5 8 13 11 8 7 10 14 21 25 29 26 23 24 22 26 23 22 24 23 22 22 21 21 19 19 20 20 22 23 24 25 25 25 25 24 24 25 26 26 26 25 24 24 23
9 12 4 5 6 7 1 10 14 8 9 8 8 14 21 22 26 30 20 24 26 25 24 24 23 22 21 20 19 18 19 19 20 20 20 18 18 19 20 21 21 21 21 21 21 21 22 22 21
14 13 4 6 5 3 3 7 3 7 8 12 15 11 5 14 25 29 36 29 29 27 28 28 26 24 22 20 18 17 17 17 17 17 16 16 17 17 17 18 18 19 20 20 20 19 18 17 20
8 6 1 1 1 3 4 4 11 12 10 7 7 9 13 15 15 21 34 29 26 31 30 29 27 23 20 17 16 16 16 16 17 18 18 19 20 20 21 21 21 22 22 22 21 20 19 18 19
4 8 4 2 4 5 4 4 5 6 5 2 4 5 7 11 16 19 21 22 27 28 28 25 22 19 17 16 15 15 16 16 17 17 18 19 19 19 20 20 20 21 21 20 20 20 21 21 22
4 5 4 3 4 3 2 3 1 1 4 7 9 6 6 5 10 16 17 21 25 26 23 21 18 16 15 15 15 15 15 15 16 16 17 17 17 17 17 18 18 18 18 18 18 18 19 20 20
11 12 14 6 6 4 5 6 3 2 5 7 8 5 2 3 6 11 16 23 26 23 21 18 16 16 16 14 13 13 13 14 15 16 16 16 16 16 16 16 16 17 17 17 17 18 18 18 18

GFSSGP_850_spd_087.txt.gz
Wind_Speed
10 4 5 5 5 7 15 12 1 7 6 4 1 5 10 14 3 4 19 14 23 23 24 22 19 16 11 9 7 6 5 5 6 10 13 14 16 16 12 8 6 5 10 10 8 10 11 12 14
6 7 6 9 7 12 13 13 10 8 5 4 5 2 2 10 13 13 17 20 24 23 23 21 20 16 13 10 8 6 5 4 7 12 15 11 14 15 15 14 13 12 12 11 11 12 12 13 14
10 10 10 5 10 14 15 14 11 6 4 6 6 2 2 6 7 16 12 23 24 22 22 21 20 17 14 10 7 5 4 9 11 14 17 10 11 14 15 15 15 15 14 14 13 13 13 14 14
10 10 11 11 17 19 10 13 7 8 5 6 5 6 6 6 7 7 19 24 23 21 20 21 20 17 14 11 8 5 10 11 12 15 16 13 9 13 14 15 15 15 15 14 14 14 13 13 13
15 15 11 14 18 15 3 10 6 7 8 10 7 9 7 6 6 12 20 23 22 21 20 23 20 18 15 12 9 9 9 10 13 15 16 14 8 9 11 13 14 13 12 13 12 12 13 12 12
14 16 13 17 20 10 8 9 7 2 7 6 6 10 8 5 13 16 21 21 20 20 19 21 20 18 15 12 11 13 7 9 12 14 14 14 8 8 10 11 12 11 11 10 10 10 10 10 10
15 13 18 22 18 11 10 9 9 2 9 5 3 6 7 7 13 17 24 22 20 18 20 18 19 18 15 13 14 10 8 9 12 13 13 11 8 6 7 8 9 8 8 8 8 7 7 7 7
15 10 23 21 13 15 12 7 6 2 6 2 1 4 11 5 12 19 18 25 18 15 20 17 17 17 16 17 14 10 7 10 12 13 13 10 8 6 5 5 5 5 5 4 4 3 3 3 3
12 8 16 23 19 16 16 9 3 3 8 9 5 4 2 4 14 21 22 25 20 18 17 18 16 16 15 15 16 12 8 10 9 12 11 10 6 5 4 3 2 2 1 1 1 1 1 0 0
9 11 19 19 13 8 15 12 9 8 10 8 7 6 3 10 16 19 21 23 26 20 21 16 19 16 17 16 14 9 8 8 9 9 10 8 7 7 7 3 3 2 2 2 3 2 2 2 2
20 16 16 2 14 14 9 10 6 8 5 5 6 6 6 12 16 16 19 19 21 19 18 22 18 17 15 15 13 9 7 9 10 9 8 8 9 9 6 4 5 4 4 4 4 4 3 2 5
11 18 5 8 14 6 10 9 9 11 11 9 8 7 7 14 16 17 14 17 16 23 18 22 19 19 16 14 16 11 9 9 10 11 10 9 7 7 6 5 6 5 4 4 5 4 6 6 6
16 8 13 5 6 14 8 8 8 9 9 8 6 7 6 10 17 18 15 12 16 19 18 21 19 17 18 15 14 12 11 11 9 10 11 10 9 7 6 6 6 5 6 5 5 5 5 5 6
14 23 17 8 8 9 13 8 4 13 10 8 5 5 5 5 8 15 17 13 16 19 20 20 22 24 17 18 16 15 13 12 11 10 11 12 9 8 8 6 7 7 7 5 4 4 5 5 6
10 13 11 16 20 7 9 12 11 12 12 13 9 6 4 6 5 9 14 12 14 18 16 19 20 23 23 18 18 16 15 14 12 11 10 12 12 10 9 8 7 6 7 7 7 7 7 7 7
14 12 9 17 14 7 6 16 17 18 15 17 18 15 10 6 7 4 9 13 14 14 17 17 17 19 23 20 20 16 16 12 12 11 10 11 11 10 9 8 8 8 8 9 8 8 8 9 9
11 14 19 14 16 9 12 11 16 13 13 19 22 23 18 12 8 5 3 9 14 15 17 17 16 14 17 21 21 17 16 15 13 12 10 10 10 10 10 8 8 8 9 10 11 11 11 10 11
13 17 20 15 11 13 13 16 16 7 12 18 21 25 25 21 15 9 8 9 10 13 16 18 17 15 17 20 19 19 17 15 14 13 11 11 10 11 11 10 11 11 13 13 13 13 14 15 14
14 16 15 14 8 11 16 16 18 18 14 16 19 21 26 28 18 12 12 12 9 13 15 16 18 19 18 18 18 18 19 17 16 15 13 13 13 14 14 13 12 13 14 15 15 15 16 17 16
9 12 8 5 7 8 12 17 18 19 21 20 20 20 21 26 27 14 16 11 13 15 19 20 22 19 20 19 18 17 16 15 15 15 16 16 16 17 18 18 17 17 19 20 19 19 20 20 19
9 12 12 7 11 11 11 15 17 19 23 22 22 20 17 24 31 24 16 13 12 14 19 22 22 23 24 24 21 18 16 15 16 16 15 16 18 19 20 21 21 22 22 22 21 20 20 21 19
10 8 5 6 5 9 16 6 18 18 19 20 23 22 20 17 23 28 18 16 12 14 16 19 22 24 24 22 21 19 19 17 13 13 17 18 18 21 23 23 24 25 25 26 25 23 22 21 22
2 9 5 5 9 8 9 6 14 11 14 18 20 23 22 17 20 20 20 17 13 14 15 17 19 20 23 21 20 20 21 22 22 21 21 21 21 22 24 25 25 25 25 25 25 24 24 24 23
6 7 8 6 8 6 15 11 10 12 13 13 17 21 22 21 21 22 20 19 19 16 13 13 19 21 22 23 23 23 22 22 21 21 21 22 23 25 25 25 25 25 24 24 24 24 25 23 21
9 12 5 5 5 8 1 10 16 5 5 7 5 10 17 20 21 25 21 16 18 22 18 15 17 20 20 21 22 22 21 20 20 20 20 21 21 21 21 20 20 21 21 21 21 20 20 20 20
13 14 5 9 9 10 5 8 9 8 13 15 9 8 4 9 14 20 24 16 20 22 19 19 19 18 23 21 21 20 19 18 17 18 18 19 18 19 18 17 18 18 19 19 20 20 20 19 17
13 10 9 4 1 4 6 10 12 14 8 6 7 8 10 12 9 18 23 18 14 22 21 25 24 23 23 23 20 19 18 17 18 18 19 19 19 20 20 20 21 21 21 21 21 21 21 20 17
5 5 5 3 4 8 7 7 8 7 8 4 1 2 4 6 9 10 21 24 27 24 20 21 22 23 22 22 20 17 16 16 17 18 18 19 20 20 20 20 20 20 21 20 19 20 21 20 20
9 5 7 3 10 4 6 3 5 3 9 5 6 5 4 3 5 10 11 18 26 24 23 25 24 25 24 21 19 17 16 16 16 17 17 18 19 19 19 19 19 19 19 19 18 19 19 19 19
15 17 14 8 7 7 8 5 5 4 2 3 5 6 5 3 2 4 7 11 16 19 19 23 23 20 19 17 15 14 14 15 15 16 17 17 18 18 18 18 19 19 19 18 19 19 18 18 18

GFSSGP_850_spd_090.txt.gz
Wind_Speed
13 12 5 4 2 3 8 7 7 4 2 8 9 9 9 20 7 9 23 19 19 26 26 23 19 16 14 11 11 11 11 11 13 15 16 17 14 12 10 9 7 8 10 13 14 15 16 17 18
15 6 7 5 3 5 7 15 3 2 14 8 7 5 9 6 5 25 21 20 19 27 26 24 19 16 14 11 11 10 9 11 15 15 14 16 16 15 13 13 15 13 13 15 15 16 17 18 18
14 14 6 4 4 10 7 12 7 6 9 2 4 2 3 9 13 12 22 24 19 24 25 23 20 17 15 13 9 8 10 13 16 18 11 14 16 16 16 16 16 16 16 16 16 16 17 17 18
13 10 8 6 10 14 10 6 9 7 2 7 8 10 12 10 6 14 24 24 19 22 21 23 20 18 14 11 9 9 13 15 17 17 14 13 15 16 16 16 16 16 17 17 16 15 16 17 17
16 9 6 8 14 12 2 17 8 7 9 5 2 8 10 9 12 24 24 23 17 23 19 21 19 17 14 11 10 13 13 15 17 17 16 12 13 14 15 16 16 16 16 15 15 15 15 15 15
9 13 6 11 14 14 7 14 1 5 8 7 2 9 6 12 16 21 24 22 21 22 19 20 19 17 14 12 12 14 13 15 17 17 16 12 11 13 13 14 14 14 14 13 14 13 13 13 12
8 7 11 14 14 6 11 11 5 2 6 7 8 6 8 14 24 25 23 21 22 19 17 21 19 16 14 12 14 13 13 15 16 16 13 11 13 13 12 12 12 11 10 10 10 10 9 9 9
9 2 12 13 14 7 11 8 9 10 5 4 9 4 7 15 20 26 28 23 21 17 17 19 19 17 15 14 13 11 11 15 16 15 14 11 9 10 9 9 9 8 7 6 5 5 5 6 5
8 4 9 16 8 9 18 6 3 8 12 15 8 10 14 15 19 26 27 23 18 16 18 15 17 14 13 16 14 10 10 14 16 16 14 9 6 6 5 5 5 4 4 4 3 2 2 2 2
7 4 8 12 7 15 15 15 11 8 9 11 15 9 12 16 19 23 28 24 16 18 22 16 15 16 14 12 12 9 8 11 12 13 14 9 3 4 6 1 1 1 1 1 1 0 0 1 2
5 5 10 2 18 11 2 15 14 15 7 13 9 9 13 17 18 21 24 24 22 18 20 20 18 18 16 14 11 7 6 9 9 13 13 12 10 8 5 4 3 3 2 3 1 1 1 3 1
2 14 15 10 9 3 5 8 7 6 12 14 11 8 15 17 19 20 21 25 22 19 21 19 17 18 16 16 15 8 5 7 6 6 9 12 12 7 6 3 4 4 1 4 4 4 5 5 4
9 7 12 8 10 11 11 6 6 17 17 13 12 10 12 17 19 19 21 18 23 22 22 23 21 19 17 17 18 15 10 11 13 14 13 12 10 8 8 8 8 5 4 5 4 3 4 5 4
16 12 16 9 5 7 8 8 0 20 15 11 11 12 11 13 19 21 18 19 20 21 20 25 23 20 19 17 18 15 14 11 11 12 15 13 11 10 10 10 9 8 7 6 4 3 5 5 6
19 12 12 13 21 4 6 8 6 9 18 13 10 10 10 10 14 22 20 19 18 20 25 24 28 21 21 21 19 18 19 14 13 12 11 15 16 14 12 10 6 7 7 6 6 7 8 7 7
13 11 3 6 6 4 4 13 7 16 14 13 15 14 11 10 11 15 18 17 17 19 19 21 25 24 28 22 22 22 21 19 15 14 12 11 13 14 12 10 11 8 8 8 8 8 8 9 9
6 4 9 5 13 4 8 5 11 25 22 18 17 17 17 13 10 9 19 22 17 14 15 17 18 20 23 28 23 20 20 16 16 12 12 12 12 11 11 9 8 8 10 10 9 9 11 11 11
10 14 13 11 11 10 9 10 10 11 11 8 11 16 19 20 18 15 14 20 21 18 16 17 18 15 12 20 23 23 22 19 18 17 15 12 11 11 11 10 10 9 10 13 13 13 12 13 14
7 9 11 14 14 12 17 12 11 16 15 13 16 19 22 24 23 22 18 16 20 23 21 22 22 18 18 20 27 27 27 23 23 20 17 14 14 11 13 12 11 12 13 13 14 12 15 16 15
3 9 11 11 10 12 8 11 12 12 15 22 19 18 21 21 22 28 22 19 22 22 23 20 21 21 20 22 22 23 25 22 22 22 19 20 18 17 18 17 16 14 15 17 18 18 17 19 19
7 11 6 5 7 4 3 7 11 14 22 21 22 19 20 19 16 29 26 23 23 24 23 24 24 23 22 23 21 20 19 17 18 17 16 16 17 17 16 17 18 18 19 19 19 17 17 19 19
6 2 7 5 3 3 8 4 8 17 13 12 20 22 22 22 26 16 29 27 25 24 27 23 25 25 27 26 23 18 18 16 14 14 12 13 17 15 16 18 19 21 22 22 23 22 22 21 21
2 6 7 3 5 6 3 3 7 2 15 15 17 23 24 25 26 24 29 30 26 25 25 25 25 25 27 25 24 22 21 18 18 17 15 19 20 18 18 19 21 22 23 23 23 23 23 22 21
5 1 3 3 1 1 7 6 5 5 6 5 14 27 28 26 25 20 23 24 22 20 21 20 21 21 22 25 25 23 23 23 24 22 20 22 22 19 19 21 23 23 23 23 22 21 22 22 22
6 5 2 1 2 5 4 6 9 7 4 2 4 3 13 26 26 23 21 22 22 20 18 16 17 19 20 21 22 21 21 20 20 19 18 18 18 20 22 20 20 20 19 19 19 18 18 19 19
6 6 3 4 3 4 8 6 5 6 5 8 10 5 6 5 7 26 25 20 23 22 21 17 17 18 19 20 19 19 20 20 20 19 18 18 19 20 19 18 17 17 17 17 18 18 18 18 18
6 5 4 2 6 1 5 6 7 8 5 2 2 3 6 7 7 14 20 23 25 25 22 19 19 18 19 21 22 21 20 20 19 18 17 17 18 17 18 19 19 20 20 20 20 19 21 21 18
2 2 2 1 2 3 4 6 5 1 7 7 4 5 5 6 8 10 18 17 21 24 20 15 16 18 20 18 18 16 16 18 19 20 16 16 18 19 19 20 20 19 19 19 19 19 20 20 19
5 2 4 1 4 2 1 2 5 6 9 8 10 8 4 1 5 8 11 17 21 20 21 22 24 21 23 22 19 19 20 20 17 14 15 16 17 18 19 19 19 19 19 19 18 19 19 18 18
8 9 6 3 4 3 3 5 2 8 8 7 11 8 6 4 3 8 12 13 17 21 22 21 24 25 25 23 25 15 14 15 15 14 14 15 17 17 17 18 19 19 19 18 18 18 18 19 18

GFSSGP_850_spd_093.txt.gz
Wind_Speed
14 12 9 8 3 4 3 6 1 7 4 13 14 12 14 14 1 2 22 26 29 30 28 25 22 18 17 15 15 15 17 17 17 18 20 20 18 17 15 13 9 10 14 16 17 19 21 24 27
17 13 6 4 4 4 5 7 1 4 4 19 17 27 11 5 5 21 26 18 24 31 29 25 22 20 17 15 15 15 16 18 17 18 18 16 14 12 11 11 12 17 18 18 19 20 22 24 24
21 13 7 4 4 6 5 9 8 3 12 11 6 13 11 11 23 16 18 23 26 31 28 26 22 20 16 15 14 13 16 19 16 18 18 18 18 17 18 17 17 19 19 19 19 20 21 22 22
16 12 5 4 9 6 3 6 8 6 6 12 16 10 9 6 11 16 22 19 32 30 27 25 22 20 16 13 13 16 18 19 18 17 19 19 19 19 19 19 18 18 19 19 19 19 19 20 19
20 6 2 4 6 4 4 1 7 4 6 10 15 4 9 13 22 23 20 17 30 29 27 24 22 19 15 14 15 17 18 19 18 18 18 18 19 19 19 19 19 18 18 18 18 18 18 18 16
11 6 3 5 6 4 4 11 3 3 6 11 13 15 7 20 28 23 20 18 23 27 25 24 20 17 16 14 17 17 19 19 18 17 16 17 18 18 18 18 17 16 16 16 16 16 15 14 13
5 3 5 5 7 3 4 25 4 4 7 9 7 5 10 21 28 31 22 16 21 21 23 23 21 17 14 14 16 16 18 19 19 16 15 18 17 17 16 16 15 14 14 13 12 12 11 11 10
9 3 3 3 4 2 7 7 8 9 5 9 9 7 6 30 22 26 24 21 22 19 18 22 21 17 16 16 15 15 16 18 18 16 16 16 16 15 14 13 12 11 10 9 8 7 7 7 7
9 3 3 3 6 6 8 5 8 9 15 11 6 13 24 33 25 22 30 29 24 19 19 21 20 16 15 16 14 13 16 17 17 15 13 12 12 12 11 10 9 8 6 5 5 4 4 4 4
4 3 5 1 2 7 8 12 10 5 12 10 19 19 23 30 33 25 27 27 25 22 22 20 18 15 15 16 13 11 14 16 16 15 13 10 9 8 9 7 6 5 4 4 3 2 2 2 3
6 4 1 10 7 13 6 10 7 15 2 8 19 21 22 24 33 25 24 24 21 19 22 18 17 15 16 15 14 11 11 13 13 14 12 11 9 5 4 2 3 3 3 3 2 3 2 2 2
5 6 7 9 11 3 4 1 7 8 8 13 12 18 23 24 26 33 27 21 26 25 21 20 18 16 15 13 14 11 9 12 13 14 10 8 5 4 5 4 3 3 4 3 3 2 2 1 1
1 4 8 12 10 7 8 4 7 16 19 14 13 17 23 23 22 27 24 24 26 25 23 21 21 18 17 16 13 12 6 9 11 12 12 9 8 10 8 7 5 4 5 3 2 1 3 2 1
11 4 5 8 12 12 3 3 11 12 17 17 14 16 21 24 23 24 26 26 25 25 24 23 22 19 17 16 15 12 11 7 10 11 12 14 15 12 10 8 8 7 5 5 5 4 3 4 4
15 10 4 7 4 7 9 1 8 17 17 16 15 13 14 20 24 25 26 26 26 28 26 24 19 22 22 20 19 17 17 14 13 13 14 18 16 14 13 13 11 10 8 8 7 7 6 6 7
6 3 4 3 9 2 4 6 16 9 16 16 14 14 13 15 21 23 22 21 24 24 27 26 28 25 22 24 22 22 18 18 16 16 15 13 17 19 17 14 13 9 8 8 8 8 9 9 8
2 5 4 6 4 6 5 4 18 25 21 17 18 19 18 14 13 17 25 23 21 22 25 27 30 31 29 25 24 27 24 23 19 18 17 14 12 17 17 13 13 11 10 9 8 9 10 10 10
7 6 6 6 3 6 8 10 8 10 9 22 20 21 21 22 19 16 16 27 22 20 23 21 25 32 31 32 27 27 27 27 23 22 18 17 13 12 12 12 10 9 10 11 10 11 12 12 12
5 9 5 12 12 10 17 13 11 10 4 18 21 18 16 18 21 19 16 19 26 25 24 22 23 22 20 23 33 32 29 28 26 23 20 18 13 12 9 9 10 11 13 13 13 14 12 14 15
2 6 6 1 15 5 2 6 8 14 11 16 18 18 21 23 18 29 24 22 27 29 27 26 24 23 23 22 23 33 28 29 29 27 24 20 18 16 15 15 14 15 14 15 17 17 17 18 17
2 4 4 5 4 3 5 6 8 14 16 24 26 23 26 28 20 33 32 28 25 26 31 29 27 25 25 23 23 26 26 29 26 25 24 20 17 15 15 15 17 18 18 19 19 21 21 20 19
2 2 7 9 6 4 7 4 5 14 10 13 29 35 29 27 23 22 33 30 29 25 25 29 28 28 26 26 25 23 23 25 26 22 23 21 21 18 14 10 15 24 23 22 23 23 23 22 22
1 3 6 4 3 3 3 2 6 3 7 15 17 30 33 28 28 20 24 25 28 28 28 31 32 30 31 31 27 25 24 22 21 22 22 20 17 15 15 15 18 29 24 23 23 24 24 23 24
5 3 4 4 3 1 5 5 4 4 6 5 12 34 34 31 29 30 24 20 30 30 29 30 32 33 32 31 30 28 28 27 26 25 24 23 22 21 20 19 25 25 23 23 22 22 22 21 22
2 4 1 3 1 5 4 5 9 7 7 6 11 20 32 33 31 29 29 23 34 32 29 26 25 28 29 28 30 30 30 28 27 27 26 24 24 22 19 20 20 19 20 20 19 19 19 20 20
5 6 4 5 4 4 4 6 5 10 9 6 10 15 11 10 24 29 29 24 29 27 24 26 26 25 23 23 22 27 27 25 21 27 21 21 19 19 19 17 17 18 19 19 18 19 19 20 20
5 3 3 4 3 3 4 5 8 7 5 6 8 7 7 7 4 18 28 27 26 24 24 23 22 22 21 22 21 20 23 25 27 25 21 20 18 17 17 16 19 20 19 20 21 21 22 22 21
2 1 2 2 3 3 4 3 5 2 7 4 7 9 5 6 7 8 18 23 23 22 22 25 22 20 19 18 18 19 20 21 20 17 15 14 14 15 17 20 20 18 19 20 20 21 22 22 21
3 1 1 3 4 4 2 4 4 5 9 9 7 9 5 4 4 7 10 12 15 22 24 22 21 21 20 16 12 14 20 17 16 15 15 15 15 19 22 19 18 19 19 19 19 20 20 21 20
3 5 4 4 4 4 3 4 4 8 7 13 12 11 10 7 3 5 8 10 14 21 23 23 25 25 22 23 23 17 23 17 11 9 11 16 20 18 17 18 19 19 18 19 19 19 20 20 19

GFSSGP_850_spd_096.txt.gz
Wind_Speed
15 11 13 10 3 3 3 6 3 4 6 1 6 7 12 6 3 2 13 31 32 33 29 25 21 19 18 14 15 17 18 21 27 25 24 24 24 22 17 13 10 12 15 18 21 22 23 23 21
17 16 14 4 3 4 5 5 5 13 3 16 16 20 5 4 6 12 28 24 31 32 30 27 22 20 18 16 17 19 18 19 23 23 21 20 18 15 12 8 15 17 19 21 22 22 23 22 20
17 20 9 5 4 11 5 5 5 16 14 10 5 10 6 8 15 26 21 28 31 31 29 26 23 21 18 18 17 20 17 19 20 19 18 16 14 13 13 18 20 20 21 21 21 21 21 21 19
17 18 5 4 8 5 6 4 10 6 22 4 19 7 8 13 20 16 22 31 32 32 29 26 23 20 18 17 17 21 18 18 20 20 19 19 19 20 21 21 21 21 21 21 21 20 19 18 16
19 8 3 4 6 3 6 1 19 8 19 19 15 4 8 11 13 20 26 30 35 33 29 25 23 19 17 16 19 22 20 19 20 21 20 20 21 22 22 21 21 20 20 20 19 19 17 15 14
12 7 4 6 5 6 5 6 10 4 7 9 14 11 6 10 19 26 22 33 33 33 29 26 23 19 17 19 21 22 21 19 19 20 21 20 21 21 21 20 19 19 18 18 17 17 15 13 11
4 4 9 5 8 4 5 10 6 5 5 4 17 9 15 20 24 26 22 30 32 31 30 26 22 19 18 20 21 22 21 19 17 18 19 19 19 19 19 18 18 17 16 15 15 14 12 10 9
7 2 6 3 8 7 7 6 11 7 3 10 16 6 11 28 19 19 22 25 28 29 29 27 25 21 21 21 20 21 21 20 18 17 17 18 17 17 16 16 15 13 12 12 11 10 10 9 8
8 2 5 5 8 5 6 6 5 6 8 6 7 18 31 31 30 27 31 28 27 28 28 27 25 21 21 20 20 21 21 20 18 17 17 15 15 15 14 13 11 10 9 8 8 7 7 6 6
3 3 5 2 4 3 5 8 10 6 6 6 17 22 38 34 36 37 26 32 34 32 29 26 23 20 19 19 18 19 20 19 17 16 16 14 12 11 10 10 8 7 6 6 6 5 5 5 5
4 2 1 8 14 6 6 7 6 16 2 8 22 34 36 34 36 36 39 32 32 29 29 26 22 18 17 19 16 17 19 19 18 16 15 14 13 10 8 6 6 5 5 5 5 5 5 5 4
8 8 8 9 16 8 4 5 5 4 5 9 22 30 36 32 34 37 35 34 29 27 27 24 21 18 17 17 15 14 17 17 17 17 15 14 11 9 6 5 4 4 5 5 4 4 4 3 3
5 3 11 12 18 15 9 10 2 9 13 15 16 23 30 30 32 34 33 25 25 26 26 24 21 18 18 17 16 14 15 15 16 16 14 12 11 7 4 6 5 4 5 5 4 4 4 3 2
7 10 14 15 14 11 4 5 4 6 12 14 15 18 25 25 26 29 30 35 30 26 24 23 23 18 16 20 18 17 15 14 14 14 12 11 10 7 7 9 7 6 6 6 5 4 3 3 4
15 4 9 11 9 6 13 4 3 4 9 13 12 15 20 21 22 26 30 30 30 28 26 26 23 20 19 17 17 19 17 15 13 12 13 13 12 10 12 11 10 8 7 7 6 6 6 6 6
6 6 4 2 6 4 6 5 2 4 5 11 12 12 17 20 21 22 24 28 27 27 27 27 26 25 24 21 17 18 14 16 13 11 12 13 15 16 16 15 12 11 10 9 9 9 9 9 10
2 3 4 3 3 2 5 3 5 4 9 13 14 14 13 15 21 23 23 25 25 28 28 25 26 26 27 26 25 23 19 18 17 15 14 14 13 16 19 18 15 14 11 10 9 10 11 12 12
6 4 2 4 4 4 2 4 6 7 16 19 21 19 18 17 17 20 25 25 26 26 28 30 28 28 27 27 27 27 26 23 22 21 18 18 17 14 16 18 16 14 11 11 10 10 11 13 13
6 9 8 5 11 8 8 5 8 16 19 21 27 23 22 21 17 17 19 25 28 26 28 29 27 29 29 30 31 30 30 31 27 25 23 22 19 17 12 13 12 11 12 12 13 13 14 15 15
2 6 5 3 8 4 5 7 12 14 17 23 22 31 25 24 25 23 21 23 23 27 28 28 28 27 32 38 36 35 35 34 29 29 29 26 24 21 18 13 12 12 13 14 15 17 19 19 18
3 5 5 3 7 2 3 4 11 13 24 28 25 28 31 30 25 22 25 26 28 28 26 29 30 28 26 27 28 27 33 34 32 32 30 27 26 22 22 19 16 17 14 13 17 22 23 22 22
1 2 7 9 8 4 6 4 4 7 13 13 27 27 28 29 28 30 24 29 31 31 30 28 26 27 27 27 26 28 28 33 35 33 30 29 27 25 24 21 21 21 21 14 19 25 30 27 26
2 2 4 4 4 4 5 1 6 2 8 16 15 30 33 33 30 29 30 27 32 32 34 35 33 30 29 29 29 29 27 25 27 29 31 27 28 28 25 22 20 20 20 20 24 31 31 29 29
3 5 7 6 3 1 6 7 4 5 7 4 12 32 37 38 35 30 28 23 30 31 31 32 32 32 31 30 31 28 28 28 27 26 28 29 27 25 23 21 21 23 24 24 26 29 28 27 26
2 3 3 2 3 3 4 4 8 6 8 7 9 17 34 37 36 35 30 26 25 24 28 32 33 34 32 30 30 31 30 29 29 27 28 28 26 26 23 23 25 27 22 24 25 24 23 23 22
5 8 3 5 3 4 5 6 6 10 14 20 18 8 16 30 33 35 34 28 27 25 27 31 32 30 31 32 32 33 34 34 32 31 28 26 25 23 21 26 24 22 20 20 20 20 21 22 22
4 3 4 4 3 3 3 6 8 6 3 3 8 9 7 7 13 27 34 28 27 24 25 27 28 28 28 27 28 28 30 34 31 28 24 21 20 15 21 22 22 19 19 19 21 22 23 23 23
3 5 3 2 5 4 4 4 5 3 7 4 4 9 8 8 6 9 16 29 26 23 24 27 25 25 23 23 23 21 19 18 19 20 21 22 23 21 22 18 20 21 21 22 23 23 24 24 24
3 2 2 3 4 4 1 5 5 7 7 10 9 13 11 9 7 6 9 17 23 25 25 25 25 24 22 20 20 19 18 17 15 14 15 16 15 16 17 16 18 21 22 22 24 23 24 24 24
4 6 7 4 5 2 3 5 3 1 6 10 10 9 7 4 4 6 6 9 12 19 24 24 24 23 23 22 19 17 18 17 16 15 12 13 14 16 19 21 20 23 25 25 24 24 25 24 23

GFSSGP_850_spd_099.txt.gz
Wind_Speed
21 15 10 9 3 3 4 7 2 6 5 10 3 5 8 4 5 4 11 31 34 34 29 24 20 18 14 11 16 21 26 25 24 23 24 25 23 20 17 12 11 13 15 17 19 20 19 18 16
23 21 12 6 3 4 5 5 8 7 4 11 7 13 1 2 5 13 27 27 34 33 29 25 21 19 14 13 19 21 26 25 23 24 24 23 20 17 11 9 15 17 18 19 20 20 18 17 18
24 21 9 5 4 11 5 5 6 16 13 4 3 1 2 7 11 27 21 31 34 32 29 25 22 19 15 17 20 20 26 24 22 21 20 17 13 10 10 17 19 19 19 20 20 18 17 15 17
23 16 6 4 7 7 6 5 7 12 9 11 5 1 5 4 24 23 28 35 34 32 29 26 23 19 18 17 20 20 22 24 21 18 16 14 11 15 19 21 21 21 20 20 19 17 14 14 15
27 8 10 5 8 3 4 4 18 15 25 27 5 5 5 17 18 21 27 34 34 31 29 26 23 20 19 19 21 16 20 22 21 19 18 19 21 22 22 22 21 20 19 18 17 16 13 11 11
9 4 8 12 7 4 5 9 9 17 27 34 8 8 5 10 22 22 23 34 31 31 28 25 21 21 19 20 24 18 18 21 22 22 22 23 23 22 22 21 20 19 18 17 16 14 12 10 8
10 5 9 8 10 7 4 12 5 10 22 16 13 4 12 20 23 25 26 32 32 30 28 26 22 20 19 22 26 22 20 21 21 21 22 22 22 21 20 19 18 17 16 15 14 12 10 8 6
9 1 16 6 8 7 7 3 12 10 4 11 14 6 10 24 25 24 27 31 31 29 27 26 23 20 21 23 25 23 21 20 21 21 21 20 20 19 18 17 16 15 14 13 12 10 8 7 5
13 5 13 7 15 7 9 5 7 5 15 6 13 14 29 36 27 22 28 30 29 29 28 26 22 21 23 23 25 24 22 21 20 21 20 20 18 17 16 15 13 11 10 9 9 8 7 6 5
8 3 3 5 2 5 7 9 19 5 6 4 10 16 37 36 35 27 22 28 30 29 28 26 24 22 23 22 24 25 23 22 21 20 19 18 16 15 13 12 10 9 7 7 6 6 6 6 5
7 7 2 5 7 4 6 6 4 17 1 11 22 31 36 38 39 42 40 27 30 30 27 26 23 21 22 21 23 24 23 21 20 20 18 17 16 14 11 9 8 7 6 5 5 5 5 5 5
8 12 3 3 10 7 4 6 7 2 7 20 25 31 33 37 39 43 40 24 32 28 28 27 25 22 21 20 21 22 23 22 21 20 18 16 15 13 10 7 7 6 5 5 4 4 4 4 4
11 15 6 8 16 25 12 8 7 6 12 16 29 33 35 35 36 36 36 40 29 29 30 29 25 23 21 21 20 21 22 21 20 19 17 16 14 11 8 7 6 5 5 5 5 4 4 3 3
9 12 16 10 17 19 8 5 3 5 11 16 23 30 34 31 35 38 35 38 35 27 30 29 28 24 22 23 21 19 21 20 20 19 17 15 13 11 7 6 6 5 4 5 5 5 4 4 4
6 5 8 18 13 8 15 6 6 7 9 12 15 20 25 28 31 35 36 40 35 22 27 30 30 27 24 23 22 20 19 20 19 17 15 14 12 11 8 7 7 6 6 6 6 6 5 5 5
4 5 4 12 12 8 10 3 4 9 8 5 4 11 20 23 24 28 33 34 35 39 37 33 30 29 26 21 20 22 20 18 16 14 12 12 12 11 10 9 8 8 9 8 7 7 7 7 8
1 4 6 7 10 6 9 3 7 8 6 7 4 5 14 20 21 20 29 30 35 35 34 35 36 33 28 26 21 19 21 20 18 15 12 11 11 9 11 12 12 12 11 9 7 8 9 9 10
4 5 5 6 2 5 8 8 10 11 7 6 8 6 9 14 21 21 21 25 29 29 29 29 31 30 27 24 21 21 22 19 18 17 14 12 11 12 12 13 16 15 13 11 9 7 8 11 13
5 6 10 8 8 3 4 5 16 13 16 14 14 15 13 14 13 16 22 22 26 28 29 28 27 26 26 27 27 26 25 23 20 21 17 18 17 18 18 15 16 16 13 8 9 10 11 13 14
5 6 3 6 14 5 10 8 10 12 13 17 17 21 17 22 18 17 18 23 24 25 26 26 27 29 29 28 28 30 28 28 26 23 24 24 23 22 22 17 13 17 15 12 11 14 14 13 15
2 2 1 4 10 2 8 4 7 9 20 25 26 28 27 26 27 23 22 21 20 24 26 25 27 30 29 26 28 30 30 30 33 30 32 31 29 26 27 25 22 20 17 17 16 17 19 17 20
1 3 5 8 7 3 3 3 4 10 12 14 25 31 30 25 31 26 25 24 23 22 21 23 25 25 29 28 29 31 30 32 31 35 35 32 31 31 29 29 26 24 21 19 22 19 19 22 26
3 4 5 6 4 5 2 1 6 1 11 17 19 28 33 29 25 30 30 26 23 24 26 28 27 28 26 26 27 26 29 28 23 26 30 33 32 31 30 27 24 22 21 19 19 21 21 23 28
1 5 7 5 3 2 6 5 4 5 8 6 12 29 35 33 32 31 29 25 24 24 29 31 31 30 26 28 26 27 27 26 25 25 25 30 34 32 32 29 26 21 17 18 18 27 28 23 29
3 5 2 1 3 4 3 4 7 4 6 7 9 23 20 32 41 37 33 29 24 24 26 30 30 30 29 29 29 27 25 27 27 27 27 25 28 30 29 22 16 18 18 18 22 26 25 25 25
4 6 4 6 3 2 2 6 6 6 7 15 17 18 22 21 32 39 35 32 27 23 22 24 27 28 29 29 28 26 26 28 30 30 27 25 26 24 20 19 15 19 18 18 23 23 24 23 23
4 3 6 3 1 3 4 6 8 9 7 3 9 10 7 7 16 25 26 28 30 27 24 24 25 27 29 27 28 28 28 29 31 32 30 28 25 22 20 22 16 22 18 19 20 23 24 25 24
4 6 4 0 4 4 3 4 5 3 6 2 4 8 6 6 5 8 15 24 26 27 25 24 23 22 23 22 23 22 23 23 23 27 27 25 22 20 20 20 22 23 21 18 19 21 22 24 23
3 2 2 4 2 4 2 5 6 7 5 8 8 9 6 3 2 1 5 12 23 29 25 23 20 19 19 19 19 19 19 20 18 16 17 18 17 17 15 14 13 15 16 17 18 21 23 25 24
2 2 4 3 4 1 3 5 4 5 7 9 7 6 6 5 3 2 1 2 10 16 20 20 20 20 19 18 17 16 16 15 14 14 15 15 15 14 12 13 14 17 22 25 30 30 28 27 25

GFSSGP_850_spd_102.txt.gz
Wind_Speed
21 21 20 12 4 1 4 7 2 6 5 9 4 4 8 3 6 5 9 31 38 35 30 25 20 16 14 14 20 22 21 21 21 22 22 21 20 18 15 11 11 14 17 17 18 19 18 19 19
22 22 22 6 4 5 5 5 15 10 8 14 12 6 4 3 4 9 25 30 37 34 30 25 21 17 15 16 23 24 22 22 23 22 24 23 20 16 11 12 15 17 19 19 19 19 18 18 17
21 24 16 5 8 14 6 7 7 8 22 10 7 3 4 4 8 20 21 34 37 34 30 25 22 17 15 19 24 26 25 24 25 26 24 20 17 11 12 17 18 19 20 20 19 19 18 19 18
14 16 8 5 19 19 9 7 7 10 11 6 5 5 4 3 18 19 29 37 36 33 29 25 21 17 16 20 24 26 24 23 23 22 18 15 13 15 19 20 20 20 20 19 18 17 19 18 16
22 10 3 6 19 22 5 5 20 9 15 12 3 2 4 11 12 22 33 38 36 33 28 24 20 17 20 21 20 26 25 22 21 18 15 13 15 21 22 22 21 21 20 18 16 14 16 15 14
9 5 4 11 20 11 7 12 11 12 25 24 9 5 4 7 19 31 33 36 33 32 28 25 20 18 20 21 19 21 24 22 19 18 17 19 22 23 23 21 21 20 19 17 14 12 11 11 11
7 5 5 5 23 2 9 16 10 10 18 18 21 3 6 16 23 28 34 34 32 30 27 25 21 19 20 23 17 20 22 22 22 22 24 24 24 23 22 21 19 18 17 15 13 10 9 8 7
5 3 15 6 4 4 6 9 25 27 22 18 28 5 5 24 30 30 34 32 30 29 26 25 21 20 21 25 19 20 22 24 24 24 25 24 23 22 21 20 18 16 14 13 11 9 6 4 3
4 1 4 11 6 7 5 6 11 15 25 15 30 25 17 27 32 34 35 33 30 28 25 23 21 19 21 27 24 21 21 23 24 25 24 23 22 21 19 18 16 14 12 11 9 7 5 4 1
3 4 6 6 9 6 5 8 17 10 13 18 25 18 18 28 28 30 32 33 31 29 27 24 21 19 22 27 26 23 23 23 23 24 23 22 20 19 17 16 14 12 11 9 8 6 5 3 2
6 5 3 11 7 18 5 3 6 18 5 17 32 33 35 29 34 18 20 31 30 27 26 24 20 18 21 24 27 25 23 23 22 21 22 20 19 17 16 13 11 10 9 7 6 5 5 5 4
5 6 23 5 9 7 4 5 4 6 1 24 35 37 42 43 29 22 24 32 29 26 25 23 20 19 20 20 25 25 24 23 23 22 21 19 18 16 14 12 10 9 8 6 5 5 5 5 4
4 5 18 19 17 9 10 3 6 7 5 24 33 38 32 34 32 34 37 32 32 26 25 24 21 19 20 19 21 24 24 23 22 21 20 18 16 15 12 10 9 8 7 7 6 5 5 4 3
7 15 22 19 11 17 5 5 3 6 4 25 39 39 35 31 38 37 41 36 25 25 25 25 24 21 20 21 20 22 24 23 22 21 19 17 16 14 11 9 9 8 6 7 7 6 5 4 3
4 5 14 10 14 7 16 6 6 14 4 16 23 25 30 38 35 40 37 33 36 40 19 22 24 23 23 21 20 19 22 23 23 21 20 18 16 14 11 9 9 7 6 7 7 7 6 5 4
5 5 6 12 17 6 7 4 6 15 8 10 10 22 29 34 38 39 34 29 38 36 30 26 27 28 25 24 24 20 20 23 22 20 19 17 14 13 11 9 8 8 7 7 8 8 7 6 4
4 2 3 9 13 6 9 3 5 14 11 11 10 3 22 28 28 32 36 35 32 29 32 25 26 32 30 28 24 22 19 20 19 18 17 14 13 12 11 9 8 9 8 8 9 8 6 5 5
5 2 5 5 7 10 10 8 8 14 15 9 8 7 2 25 27 32 33 32 36 37 30 27 30 33 32 31 25 23 23 23 20 19 17 14 12 11 9 7 8 11 11 11 11 8 6 4 4
2 4 4 4 5 7 7 8 8 12 17 14 9 5 2 8 14 25 26 29 35 38 36 34 36 30 30 32 30 28 26 27 24 21 21 18 16 14 13 13 12 13 15 14 13 10 9 9 8
3 5 4 8 13 7 10 6 9 5 7 13 18 16 8 6 9 13 18 27 35 36 40 39 37 37 37 31 24 26 31 33 25 22 22 23 22 19 17 17 16 16 16 17 16 13 11 12 10
1 4 4 4 8 1 7 3 6 6 9 23 25 24 19 15 12 15 16 21 25 27 30 31 30 29 34 33 32 32 32 30 25 27 27 26 25 25 22 22 21 18 17 19 17 13 11 14 13
1 3 2 7 4 0 3 1 5 10 9 13 25 28 28 22 17 17 21 21 20 20 22 24 27 27 27 29 30 30 26 26 28 27 24 27 27 27 27 28 26 24 21 21 18 14 14 16 14
2 2 5 4 3 2 2 0 4 9 10 21 18 23 33 28 25 19 23 23 21 19 19 21 24 25 25 27 25 26 25 25 26 24 24 25 28 29 29 29 27 26 25 23 19 17 15 16 17
4 5 7 5 2 2 6 4 3 5 13 12 20 25 29 26 27 22 20 25 24 22 21 22 24 25 24 21 23 23 23 21 19 21 21 19 20 28 30 29 29 25 23 21 14 12 15 21 21
3 4 1 0 2 3 3 4 7 4 5 6 9 22 27 26 28 26 26 26 25 24 20 23 25 25 24 23 23 22 22 21 21 20 22 21 19 21 26 28 26 24 19 17 17 13 16 19 19
3 6 4 5 3 2 1 6 6 5 7 11 17 11 11 15 19 26 30 30 26 23 20 21 24 24 23 23 23 23 23 23 22 21 22 22 20 19 20 20 16 15 13 13 14 12 14 18 19
2 2 3 6 2 2 4 6 8 8 9 7 10 10 10 10 13 15 20 30 29 26 22 19 20 22 22 23 22 22 22 22 21 21 22 24 22 21 19 14 13 14 15 17 15 17 17 18 18
3 5 3 2 3 4 3 4 5 4 5 3 5 4 4 0 3 1 7 16 20 23 24 22 20 21 21 21 19 18 18 18 18 19 19 20 21 20 18 17 15 16 16 16 17 17 17 16 18
2 2 1 3 3 4 1 5 5 5 5 5 7 4 3 3 4 6 4 5 18 21 21 22 21 19 16 15 15 15 14 14 14 13 13 14 14 17 18 15 14 13 10 11 13 14 16 19 23
2 3 4 3 3 2 3 5 2 4 7 9 3 7 5 4 6 7 7 4 1 7 18 17 17 16 14 12 12 12 12 11 11 10 10 10 11 14 13 13 12 11 11 14 16 19 21 21 21

GFSSGP_850_spd_105.txt.gz
Wind_Speed
23 21 19 17 6 3 14 10 7 12 11 10 11 6 10 6 9 3 7 29 38 36 32 27 23 19 17 18 20 20 20 21 24 23 22 21 19 17 16 13 15 18 18 20 20 21 22 22 21
21 25 19 11 7 10 13 14 17 12 15 22 6 5 3 4 6 4 18 29 39 37 32 27 23 19 18 22 23 23 22 24 24 24 23 21 20 17 14 15 18 20 21 21 20 21 20 19 19
23 24 11 6 8 17 15 12 12 13 12 22 9 5 4 2 6 10 13 33 39 36 31 26 22 20 19 25 24 22 23 24 24 25 24 22 19 14 16 19 21 22 22 21 20 21 20 19 18
13 18 11 7 22 17 20 13 14 13 9 19 11 3 2 4 10 15 25 39 39 35 30 25 22 19 21 27 26 24 25 25 25 25 23 21 16 17 20 22 23 23 22 21 20 20 19 18 17
21 11 12 13 17 17 19 8 20 17 14 16 23 3 4 7 13 19 34 41 39 35 29 26 21 19 22 27 28 26 26 27 27 23 21 18 18 22 23 24 23 23 21 20 20 19 18 16 15
10 5 9 10 11 23 16 24 17 16 21 19 16 5 4 7 16 26 36 40 36 34 29 25 21 19 22 25 28 27 26 26 23 18 17 18 23 24 24 24 24 22 20 18 17 16 15 13 13
7 7 3 2 14 13 20 29 10 17 19 23 28 7 5 12 21 32 38 39 36 32 29 24 21 21 22 22 27 26 24 23 21 18 18 23 25 25 24 23 22 21 18 16 14 13 12 11 10
8 3 4 7 7 16 16 17 13 19 21 24 37 10 7 18 28 34 39 37 35 32 29 26 22 22 24 20 22 25 24 22 20 20 24 25 25 25 23 22 20 19 17 14 12 10 9 8 8
8 5 2 13 6 8 11 16 16 7 18 13 26 28 34 19 36 36 38 36 35 31 29 26 24 22 25 21 19 22 23 23 23 25 26 26 25 24 22 20 18 17 15 13 11 8 7 6 5
2 4 2 10 8 5 10 10 14 6 8 6 19 24 32 12 40 41 39 40 37 34 31 27 25 24 27 24 21 21 23 25 25 26 27 26 25 23 21 19 17 15 14 12 10 8 6 5 4
4 4 5 10 15 15 14 12 5 10 11 16 25 22 40 17 29 42 37 37 37 34 30 28 24 22 26 28 24 23 23 24 25 25 25 24 24 22 21 19 17 14 12 11 9 8 7 5 4
3 8 7 17 19 10 22 10 6 16 6 27 38 28 38 45 13 10 24 35 34 32 30 26 22 20 23 28 25 24 24 24 24 24 24 23 22 21 19 16 14 13 11 10 10 9 8 7 6
1 4 9 19 20 18 23 17 7 4 2 24 32 24 34 25 30 34 10 22 31 31 30 27 22 18 21 24 26 25 23 24 23 23 22 21 19 18 16 14 13 12 10 9 9 9 8 8 6
5 9 16 17 24 30 14 16 3 5 6 27 38 33 32 33 30 28 25 25 33 31 30 26 23 19 19 19 22 25 24 22 22 22 20 19 17 16 14 12 11 10 10 9 9 8 8 7 6
9 3 11 10 21 10 3 11 4 15 8 28 36 40 37 35 36 33 33 30 35 33 30 26 21 20 19 18 18 21 23 22 22 21 19 18 18 16 13 11 11 10 9 9 9 8 8 7 5
5 6 5 5 17 16 13 11 4 16 9 11 22 28 30 28 20 27 29 38 37 30 28 24 22 20 19 19 19 19 21 23 23 22 21 19 18 17 14 11 10 11 10 9 9 9 9 8 7
1 3 3 8 11 13 7 4 4 12 15 12 9 15 29 32 29 35 33 36 33 34 28 21 14 20 21 19 19 19 18 20 22 23 22 21 19 16 15 12 11 10 10 9 10 11 10 9 7
7 6 5 4 3 13 11 4 5 8 12 9 9 7 21 27 29 29 34 35 33 36 27 27 17 13 18 21 21 23 21 19 21 21 21 20 20 17 15 13 11 11 11 12 12 12 11 9 6
4 9 4 3 5 8 7 11 7 7 5 6 6 7 6 18 26 25 32 30 29 36 27 30 41 26 20 22 25 24 23 22 21 20 21 22 19 17 17 14 12 11 9 10 13 13 13 10 8
3 7 3 1 8 8 5 14 8 3 3 0 3 2 3 10 21 29 27 28 36 36 27 36 34 38 37 27 21 22 23 23 23 23 25 25 23 21 19 16 15 14 12 12 15 16 14 13 9
1 4 5 5 7 0 2 7 5 1 3 6 6 7 8 7 13 17 30 34 33 36 37 40 33 29 29 27 26 27 26 33 29 29 28 25 27 27 22 20 20 20 18 17 16 18 18 10 4
2 1 4 8 8 1 2 2 4 4 6 3 10 14 14 12 11 12 15 23 31 34 35 37 35 34 30 33 41 36 31 37 35 31 23 30 24 26 20 26 25 23 23 22 18 19 17 11 10
3 2 6 4 2 3 3 1 5 5 5 8 12 19 24 19 17 15 14 17 18 22 26 28 32 33 35 38 37 39 39 33 28 24 26 29 22 27 26 26 25 26 29 25 23 24 19 11 18
4 5 6 4 2 1 5 5 4 6 5 5 5 20 24 27 25 21 18 17 21 21 22 23 25 26 30 31 28 27 29 29 27 24 23 26 24 22 22 25 26 25 24 25 29 25 22 13 20
1 3 1 2 2 3 3 4 6 5 4 6 7 12 21 22 24 23 24 22 22 21 19 20 20 21 24 23 24 23 25 22 22 21 21 20 18 17 15 15 17 20 21 18 23 20 15 14 17
4 3 4 5 4 2 2 6 5 6 8 13 13 16 5 17 21 24 25 25 24 23 22 21 19 20 21 20 22 21 20 18 18 19 17 17 16 15 14 14 13 14 13 13 16 17 14 14 15
1 4 2 5 2 1 3 4 10 5 7 8 8 7 6 6 12 18 22 25 27 26 24 21 18 18 19 20 20 20 19 18 18 18 16 15 15 16 15 15 13 13 15 14 15 14 13 13 13
3 1 2 2 4 3 3 4 5 5 6 5 3 3 7 8 6 8 18 25 32 33 28 24 20 18 17 18 17 17 17 17 17 17 17 17 18 18 18 17 16 17 15 16 16 15 16 15 14
1 2 1 1 2 3 2 4 4 4 4 6 4 3 4 7 7 10 9 11 17 26 27 26 24 20 17 16 16 16 15 15 15 15 16 16 16 17 18 18 19 16 16 15 15 13 12 13 14
3 1 2 3 4 1 2 4 2 4 6 6 4 8 6 7 9 11 13 13 12 17 19 22 22 20 19 16 13 13 12 13 13 12 13 12 11 12 16 20 18 16 15 14 12 12 13 15 17

GFSSGP_850_spd_108.txt.gz
Wind_Speed
20 21 20 19 8 10 26 31 21 25 29 27 11 17 20 9 11 2 4 18 31 32 32 29 26 21 19 18 18 19 25 25 23 22 22 20 20 18 18 20 19 17 19 24 21 20 21 21 21
19 21 23 9 9 18 23 32 31 23 28 25 15 8 13 12 4 5 14 20 31 32 32 29 26 22 20 19 19 21 27 26 26 24 22 23 19 19 17 21 19 21 21 21 22 21 19 19 18
19 23 14 6 16 24 26 28 24 26 28 28 14 11 3 4 5 9 8 30 32 31 29 28 26 22 21 22 22 24 28 27 26 24 24 21 20 17 19 22 22 22 21 22 21 19 19 17 16
12 15 14 13 21 22 35 24 24 23 20 27 23 8 3 2 5 9 22 32 30 29 28 29 25 22 24 24 24 25 27 27 27 26 23 21 18 19 22 24 24 23 22 22 22 20 18 16 16
12 9 15 9 36 22 26 30 31 27 22 26 28 13 6 1 6 13 28 37 31 29 27 29 25 24 27 26 24 26 27 27 26 26 23 20 17 22 24 26 25 24 22 22 21 19 17 15 15
9 9 13 18 13 24 21 36 31 33 31 24 25 22 7 3 11 18 31 37 31 28 29 29 25 25 30 28 24 27 28 28 28 25 22 18 21 24 25 26 25 23 22 21 19 17 15 13 13
9 12 15 22 17 21 18 35 16 25 29 26 21 22 16 11 14 21 34 35 31 29 29 29 26 27 32 32 28 27 30 30 26 23 20 20 24 25 26 25 24 22 21 19 17 15 13 12 11
10 7 23 10 10 12 24 28 31 22 26 26 30 13 23 29 15 24 37 34 31 30 29 27 26 28 31 33 30 30 30 28 22 20 21 25 25 25 25 25 23 21 19 17 15 13 12 10 10
12 8 14 10 14 9 16 20 29 17 20 20 30 15 25 50 20 33 41 38 34 31 31 28 27 26 25 30 30 27 26 24 22 21 24 25 24 24 23 23 21 19 17 14 12 11 9 8 7
8 10 10 4 8 11 15 15 29 27 19 17 22 8 25 38 36 43 44 39 35 34 33 28 27 28 26 27 31 28 26 23 20 23 27 23 21 19 17 21 20 18 15 13 11 9 8 7 6
6 9 11 7 12 17 21 23 18 27 20 23 27 22 27 32 33 31 41 38 39 35 32 28 27 28 28 26 25 24 24 21 20 21 22 19 20 24 20 20 19 17 15 12 10 9 8 7 6
7 6 3 4 11 22 11 28 20 30 32 17 26 29 29 34 36 21 10 27 32 33 32 30 25 27 25 27 23 26 22 23 22 23 23 22 21 23 20 19 18 16 15 13 11 10 9 8 7
5 6 3 7 11 19 20 21 16 18 19 14 22 22 24 28 38 47 35 16 20 27 30 29 25 25 26 26 25 26 22 23 24 26 26 24 23 22 21 18 17 15 14 13 11 10 10 8 7
8 8 8 15 20 17 18 17 19 12 13 18 20 24 23 25 37 36 44 37 27 33 32 29 26 24 28 27 25 27 24 24 26 26 26 24 22 21 19 18 16 15 13 12 11 10 9 9 8
8 7 4 10 10 8 27 11 14 19 18 18 22 22 24 29 28 27 20 33 31 37 33 32 27 25 25 26 25 24 25 25 25 24 23 22 21 20 17 15 14 13 13 12 12 11 10 10 9
5 4 4 3 11 7 7 11 16 9 12 15 27 27 26 30 37 26 20 28 35 34 32 31 29 26 25 23 25 24 24 22 22 22 21 20 19 18 16 13 13 13 12 11 11 11 10 9 9
6 4 6 5 5 4 7 13 4 5 3 5 18 22 24 29 27 25 23 29 31 34 31 31 28 25 23 22 21 22 22 21 21 21 20 20 18 18 17 14 13 13 12 11 11 12 10 9 8
6 6 7 9 4 3 5 10 6 2 1 8 11 14 17 25 33 24 26 30 33 28 31 29 26 24 23 23 21 18 17 19 20 21 20 20 21 20 18 17 15 15 14 13 12 12 12 10 8
4 6 8 2 6 1 2 10 15 2 5 5 10 9 19 19 25 22 26 30 33 33 30 29 25 21 23 22 20 19 19 18 17 19 19 20 21 20 20 19 18 17 13 11 11 13 13 13 12
3 5 5 2 0 4 1 12 13 3 5 7 10 10 15 24 24 18 19 26 31 32 35 29 26 21 20 15 13 16 17 15 14 14 17 18 19 20 22 20 20 18 16 15 14 15 15 15 12
1 2 4 1 3 7 6 6 3 4 6 6 7 12 11 18 27 32 30 33 19 24 33 37 31 28 26 23 15 14 16 11 13 17 18 18 21 24 27 25 24 23 22 20 19 16 16 15 12
2 2 4 6 7 2 1 1 10 9 9 9 15 15 16 17 20 31 33 33 29 31 26 27 30 22 26 35 27 22 20 17 22 21 23 22 19 22 23 25 28 28 25 24 24 22 20 21 16
3 3 3 6 2 3 4 5 8 10 7 11 13 15 16 16 19 22 26 30 34 31 39 42 35 36 30 25 32 35 33 30 33 32 29 32 28 23 23 18 30 32 28 30 27 24 24 25 20
2 4 5 4 3 4 4 5 5 8 14 15 12 12 17 18 17 16 15 17 23 31 39 40 39 39 36 34 33 33 34 41 35 29 29 36 29 25 28 31 33 35 30 23 22 24 27 27 24
6 6 3 4 3 3 2 5 7 3 4 4 6 15 13 15 17 17 20 20 19 23 31 35 34 35 36 35 36 38 32 35 27 32 27 34 29 30 28 29 28 22 21 19 19 19 28 28 31
8 4 3 5 4 2 2 4 1 6 2 6 6 9 9 13 17 19 16 17 19 19 22 23 23 25 28 29 30 30 28 29 27 29 31 31 31 28 24 23 21 17 16 15 12 18 22 19 24
1 6 3 1 1 3 2 4 9 5 2 2 4 6 7 8 19 20 15 19 22 23 24 24 24 23 24 26 27 27 24 24 24 23 25 25 24 23 22 20 19 17 15 15 19 20 22 20 18
3 2 2 3 5 5 3 4 5 10 10 7 6 2 4 2 4 18 24 26 26 27 26 27 26 22 20 21 23 24 24 26 26 24 22 21 22 22 22 20 19 17 17 20 20 20 20 17 17
1 3 3 2 4 2 3 3 5 7 8 8 5 5 4 3 4 5 14 20 23 28 29 28 26 22 19 18 19 19 19 20 20 20 20 21 22 22 21 20 19 19 21 19 19 18 17 17 17
1 3 5 4 3 0 6 4 8 9 8 7 4 6 5 4 5 6 4 6 10 17 23 27 24 20 19 18 18 18 17 17 18 18 18 18 19 19 19 19 19 20 20 19 18 17 16 14 14

GFSSGP_850_spd_111.txt.gz
Wind_Speed
12 13 14 11 6 8 27 40 28 34 33 40 32 24 23 27 20 6 10 16 28 29 31 30 27 25 23 21 20 23 24 24 22 20 19 19 19 19 18 17 16 18 23 17 19 22 21 20 21
11 10 16 6 9 16 25 36 37 28 36 33 36 19 21 21 5 10 15 16 27 32 31 30 28 25 22 20 20 23 24 25 23 21 21 21 20 21 20 19 17 25 24 20 20 20 20 20 19
10 10 6 5 12 22 35 29 27 30 31 33 30 20 18 22 13 12 8 23 28 31 30 29 29 25 22 20 21 25 26 25 25 23 22 22 19 21 22 20 19 26 24 22 20 19 18 17 17
6 9 10 10 23 30 38 25 24 29 35 27 31 18 10 3 14 13 19 29 33 29 30 29 28 24 22 21 22 29 28 26 27 25 25 20 20 20 20 21 21 22 23 23 21 19 17 17 17
10 8 13 18 21 32 23 35 40 23 28 29 29 21 22 8 9 16 25 31 32 30 29 31 27 24 23 24 24 29 29 28 28 26 24 22 19 22 23 23 23 22 23 22 20 18 16 16 15
13 11 13 22 32 21 28 29 42 25 28 36 24 24 19 14 14 20 28 31 33 29 28 30 27 24 25 26 27 29 30 29 27 27 24 21 21 24 25 24 23 23 22 21 19 17 15 14 13
17 13 19 23 25 29 21 27 27 18 31 28 33 22 18 16 19 24 26 29 32 28 26 26 27 26 25 26 29 29 29 28 28 26 23 20 25 26 26 25 22 22 21 19 17 15 13 13 11
18 13 24 23 22 29 15 26 35 33 32 37 32 20 17 21 21 24 28 30 31 28 27 26 25 28 27 25 28 30 29 28 27 25 22 23 26 27 27 24 20 22 19 18 16 13 12 11 10
15 9 15 25 23 23 6 13 27 34 24 42 25 37 22 31 28 29 29 30 32 29 27 25 24 27 27 25 25 29 29 30 25 24 22 25 26 27 26 23 19 18 18 16 14 12 10 9 8
11 12 21 15 6 9 8 13 20 23 31 33 21 26 16 35 32 33 36 37 34 32 29 27 24 27 26 28 29 31 32 27 24 22 24 21 22 21 19 23 20 17 17 14 12 10 8 7 4
13 14 18 10 4 8 14 17 27 19 25 27 20 20 25 26 32 32 33 35 35 34 33 30 26 26 29 25 32 31 29 24 19 20 23 18 19 22 19 22 21 17 16 13 10 9 8 5 6
8 22 11 6 2 3 6 22 18 29 36 23 18 48 24 31 32 34 36 17 10 28 33 33 27 29 25 25 26 23 24 20 19 21 21 21 19 19 16 19 17 15 14 9 9 7 6 8 6
16 7 4 4 6 3 10 19 21 26 22 27 32 48 29 28 29 36 37 14 19 21 27 32 29 29 26 25 23 23 22 23 21 24 22 21 18 19 16 15 14 13 12 11 9 8 8 6 6
6 7 7 5 7 4 5 20 13 22 23 17 25 38 27 30 28 34 28 30 32 39 17 29 31 27 30 26 24 23 21 21 22 23 23 20 18 18 17 16 14 13 12 10 8 6 7 6 6
5 8 8 5 2 5 10 12 17 25 21 16 21 16 18 22 27 34 27 17 39 30 23 32 30 28 26 27 24 22 22 21 21 22 21 21 19 20 19 15 14 13 12 10 9 8 8 7 7
8 12 10 12 6 4 5 12 12 17 19 18 18 18 22 20 23 29 26 23 27 25 21 34 34 29 28 24 26 26 23 20 20 18 21 20 20 19 18 15 13 11 12 11 10 10 8 6 6
11 8 12 8 9 6 5 9 6 14 19 16 14 20 24 21 22 31 18 24 19 32 31 35 34 29 27 26 23 18 22 22 21 21 19 21 19 18 16 13 11 12 11 11 10 9 8 8 8
9 16 12 17 7 3 6 11 7 18 13 14 13 26 25 24 24 30 22 20 28 34 37 38 34 30 27 26 26 23 21 16 19 21 21 19 17 18 17 11 9 10 10 9 10 9 9 8 7
11 12 13 2 5 5 9 7 7 12 8 11 14 15 22 23 25 22 21 24 26 30 22 34 35 31 29 27 27 24 24 24 20 19 15 15 15 14 16 13 11 12 10 10 10 9 9 10 11
9 9 6 3 1 4 7 10 11 8 9 11 13 17 20 19 24 24 20 21 33 29 28 32 33 33 29 26 25 25 22 19 16 15 18 19 19 19 14 15 14 13 13 13 12 12 9 11 12
5 10 3 9 3 8 9 15 10 8 10 9 10 14 24 27 28 17 14 18 25 24 21 13 16 24 24 23 23 22 21 18 17 14 13 15 16 17 20 18 17 16 15 15 18 16 13 14 14
14 4 7 5 7 3 2 4 13 12 14 13 14 16 18 20 26 24 21 26 25 20 11 21 18 16 18 20 23 21 24 21 13 11 9 11 11 12 13 17 18 19 20 20 19 20 22 18 18
6 9 9 9 9 8 4 5 9 12 13 15 14 15 15 15 21 33 34 32 36 27 20 34 38 25 21 22 21 18 18 17 16 13 13 13 16 13 16 17 20 21 22 26 25 28 28 26 25
11 10 7 6 4 4 3 2 9 8 12 13 15 20 18 19 24 24 33 28 28 28 24 27 38 32 29 24 23 22 24 27 23 27 28 21 24 26 25 26 23 22 24 21 29 35 30 30 27
9 9 3 3 3 2 5 4 6 6 4 5 10 14 16 19 20 22 24 26 34 36 26 34 37 36 34 30 26 31 24 25 25 22 38 26 36 44 35 32 28 29 24 28 30 32 33 25 23
10 9 5 4 2 1 3 1 4 3 6 5 2 1 8 12 16 19 20 22 22 34 36 43 41 40 38 37 32 26 32 34 28 17 27 39 38 29 43 32 29 28 29 28 24 25 22 19 22
4 4 8 6 3 3 4 4 9 13 7 1 2 2 2 4 9 14 17 17 17 19 27 43 47 36 32 34 37 38 36 35 41 34 35 31 34 33 35 33 32 29 28 20 18 17 15 20 25
4 1 2 1 3 4 5 1 8 12 10 7 5 3 6 2 4 13 12 16 17 15 16 22 22 24 26 27 29 29 28 28 26 28 29 32 39 35 32 29 27 26 22 20 17 20 22 22 22
4 3 4 1 4 3 2 6 8 10 9 8 5 8 9 8 6 5 9 12 16 18 20 20 23 24 23 22 24 26 26 26 27 27 26 28 28 28 29 29 27 25 22 20 21 21 21 21 21
6 5 4 3 4 2 3 4 9 13 11 7 8 9 8 10 9 8 6 4 8 13 20 18 21 23 22 21 22 23 25 27 28 28 27 26 26 27 27 26 24 23 22 22 24 21 20 20 19

GFSSGP_850_spd_114.txt.gz
Wind_Speed
8 3 10 10 4 6 24 34 14 18 26 24 34 20 22 23 8 6 21 18 30 21 32 34 31 27 26 25 25 24 22 22 20 19 18 19 18 17 18 17 18 20 18 21 23 19 19 21 22
4 5 7 1 5 12 29 21 26 14 20 33 30 38 29 16 5 14 24 22 31 23 33 35 32 28 26 25 24 24 23 22 21 19 19 20 19 19 17 15 22 20 18 23 21 20 21 21 20
2 6 6 3 10 25 34 9 15 17 26 28 32 35 36 1 9 26 23 28 26 25 34 36 33 29 26 25 24 24 24 24 22 21 21 21 21 21 18 17 24 20 19 20 21 21 20 19 19
3 8 4 6 22 35 31 12 16 19 28 32 31 17 30 11 10 14 24 32 28 26 34 35 33 29 26 24 24 24 25 26 24 23 23 22 23 23 21 19 25 21 20 20 19 19 19 18 18
7 5 8 10 24 25 24 21 35 24 27 32 33 17 18 11 15 14 28 34 32 27 30 32 32 28 25 24 24 26 27 28 26 25 25 22 24 22 22 21 24 22 21 19 19 18 18 17 17
9 7 7 18 24 26 21 27 26 30 26 36 29 15 22 20 21 13 26 30 31 31 31 31 31 27 24 23 25 29 28 28 28 27 25 22 22 22 23 24 23 22 21 20 18 17 16 16 15
12 9 14 16 19 21 25 30 14 18 21 34 25 16 12 20 19 24 27 28 30 29 32 32 31 27 24 24 27 31 29 28 28 27 23 22 23 25 25 24 24 23 19 19 17 16 15 14 13
18 6 18 16 19 24 26 25 36 26 22 37 33 7 13 15 26 29 31 29 33 31 30 33 31 28 26 27 29 31 29 28 28 27 24 23 26 26 26 23 24 22 19 19 16 14 13 12 12
15 4 8 20 20 22 24 4 21 22 19 33 32 24 36 22 31 34 38 35 35 35 32 32 31 29 29 30 31 30 29 29 28 26 24 25 28 27 26 24 21 23 19 17 15 13 12 10 10
8 5 14 15 17 18 11 11 22 12 15 28 33 35 32 30 35 39 44 41 38 37 33 29 31 31 31 32 32 32 31 31 30 26 24 27 29 27 27 23 19 21 18 16 13 12 10 9 8
12 14 14 16 20 12 3 11 9 7 17 28 31 37 24 31 44 41 49 44 42 39 37 30 35 32 33 33 35 34 34 33 30 27 25 23 25 26 25 24 21 19 18 15 12 10 8 7 5
15 19 23 21 16 7 9 7 6 12 21 31 38 32 29 28 27 45 44 39 39 41 32 29 32 30 32 34 34 35 35 31 27 25 27 20 24 26 25 25 22 19 18 14 11 8 8 7 11
14 17 13 11 12 10 7 9 9 23 32 26 31 39 36 23 50 39 41 43 42 33 17 26 29 32 30 33 34 37 33 26 23 30 26 22 23 23 20 23 20 16 14 11 9 7 3 5 6
7 16 17 10 14 14 13 10 9 24 26 28 30 29 26 25 36 39 42 37 31 40 32 8 30 39 30 33 34 33 29 25 23 32 26 28 24 24 19 20 17 14 14 13 9 10 9 5 6
10 9 10 12 18 9 17 8 14 34 17 15 25 17 24 20 31 30 40 34 35 33 39 25 12 38 34 33 31 33 33 28 27 32 31 30 27 27 23 21 19 17 15 13 11 7 6 8 7
5 7 7 10 14 6 6 11 6 8 17 19 17 26 24 12 38 45 28 22 19 25 39 43 19 36 35 36 33 31 33 33 33 36 33 29 27 27 25 21 18 15 13 12 12 13 13 12 9
7 5 12 11 14 3 6 8 3 5 6 8 17 26 19 21 26 28 28 15 16 25 24 42 13 33 40 38 31 28 31 32 33 32 33 28 26 24 22 18 15 12 11 13 11 10 8 7 8
6 7 13 9 11 10 11 15 11 8 7 12 24 25 27 26 20 20 24 11 15 26 35 32 20 29 34 37 37 33 30 28 27 27 29 27 24 21 20 15 13 12 11 9 10 9 9 8 6
14 14 15 11 9 5 13 14 5 8 8 17 23 25 26 24 16 19 19 13 12 20 20 22 18 29 33 34 35 38 34 30 29 28 25 25 22 21 21 17 13 10 9 8 7 8 8 11 11
14 17 12 4 9 3 10 12 2 9 11 16 16 14 22 32 25 22 14 12 14 17 19 19 26 35 40 37 30 32 31 27 24 26 22 20 19 18 19 19 16 13 12 11 11 12 11 10 12
13 12 10 9 1 7 9 9 6 9 14 17 10 9 21 26 29 23 15 9 13 17 18 6 11 35 36 38 39 33 31 29 26 26 25 25 24 21 18 17 19 18 17 17 18 17 14 13 13
10 4 14 11 9 3 7 5 3 7 9 6 8 12 23 27 29 23 20 10 10 9 15 5 7 29 31 32 35 33 33 31 25 25 24 23 22 19 19 17 15 14 14 15 14 18 15 15 16
6 12 13 10 8 7 4 2 10 5 8 7 7 11 12 26 30 29 17 15 10 5 8 13 5 27 14 32 31 31 28 26 26 23 22 23 21 19 18 13 12 11 12 15 20 22 13 16 17
12 12 12 8 2 1 5 3 6 4 4 6 8 16 15 19 27 22 16 13 16 14 14 17 16 27 14 13 22 24 25 22 20 15 14 16 16 14 15 14 9 10 13 17 19 18 21 17 18
5 6 3 2 1 3 3 2 4 8 3 4 14 8 19 17 19 26 24 21 25 27 25 22 23 38 27 14 19 20 19 23 21 22 22 24 23 25 19 21 20 17 20 22 24 24 23 22 26
9 3 2 2 3 2 4 5 6 8 11 13 12 14 12 12 12 16 21 29 25 25 32 26 27 38 43 26 19 19 24 23 24 25 18 19 25 26 20 23 27 21 25 23 26 26 27 31 29
6 4 3 4 3 1 5 6 9 14 15 10 13 3 12 11 10 10 12 15 16 23 32 32 30 34 37 37 33 25 23 29 29 21 17 17 17 26 32 37 34 27 31 30 31 32 30 25 20
5 5 4 3 5 3 8 7 6 12 10 11 13 17 13 12 11 10 13 8 8 11 18 28 28 41 36 32 34 34 32 31 28 24 28 26 27 24 26 22 26 30 31 34 34 28 28 21 19
5 4 3 2 1 3 2 2 7 8 8 8 10 19 17 14 9 6 4 11 13 12 11 13 19 26 34 29 30 30 26 26 28 33 28 37 37 37 36 30 31 33 37 29 26 25 22 20 22
9 6 3 2 4 2 2 1 10 8 8 12 13 18 15 15 16 14 7 3 10 14 14 14 17 16 16 19 22 25 23 23 23 19 21 23 22 22 27 30 31 24 24 21 20 18 20 21 21

GFSSGP_850_spd_117.txt.gz
Wind_Speed
5 4 13 10 2 6 20 8 8 2 5 13 27 15 13 25 5 5 9 25 22 31 38 37 34 32 31 30 28 26 24 23 21 22 21 20 19 20 19 21 20 18 23 21 19 21 24 23 24
11 8 8 2 5 8 7 18 18 3 10 15 21 29 26 22 15 5 26 21 24 31 39 39 35 33 32 31 28 27 25 24 21 21 21 20 20 21 19 19 19 18 23 20 19 21 23 24 23
10 9 7 3 5 18 8 4 7 4 19 23 11 20 27 9 21 15 16 22 27 33 40 39 37 34 32 31 30 28 26 24 22 21 22 21 22 21 20 23 21 19 21 19 21 22 22 22 22
5 4 3 5 20 27 13 12 21 17 29 13 22 10 23 21 23 21 22 24 28 30 40 39 37 34 33 31 30 29 28 26 24 22 23 23 23 22 22 25 22 20 20 21 21 21 20 20 20
3 2 3 7 25 16 12 14 25 15 18 21 17 11 22 22 18 24 27 29 34 31 40 39 36 34 33 31 29 29 29 28 25 23 25 25 25 23 23 25 23 22 22 20 20 20 20 20 19
3 2 4 13 24 17 12 20 22 22 31 19 13 14 14 9 17 29 31 30 32 30 39 39 37 34 32 31 30 30 31 30 27 25 27 27 26 23 23 27 24 23 22 20 20 20 19 18 17
4 2 6 14 16 17 15 18 17 24 28 22 6 5 16 20 10 22 31 36 34 28 39 40 38 34 31 31 31 31 32 31 29 27 28 28 24 24 24 27 24 24 23 21 19 19 18 17 16
8 3 7 11 16 22 21 20 26 24 31 36 17 7 8 12 18 4 27 37 36 34 35 40 39 35 31 31 32 34 33 33 31 30 28 26 26 26 26 28 26 23 23 21 19 18 17 16 15
9 5 11 17 15 23 23 15 25 25 12 29 18 24 33 36 32 31 16 37 37 37 35 38 38 34 31 32 34 35 33 33 32 32 28 27 28 28 27 27 26 22 22 20 18 16 15 14 14
8 5 13 7 10 13 19 16 13 4 15 25 15 27 34 39 32 32 37 39 41 41 37 37 37 34 33 35 38 37 36 35 35 34 29 29 31 29 27 27 26 24 22 19 17 15 14 14 13
8 8 13 18 19 22 16 14 5 4 8 26 22 32 32 32 29 27 33 34 45 44 39 39 38 33 36 38 41 39 39 38 37 34 31 32 33 32 29 27 27 24 21 19 16 14 13 13 14
11 16 20 23 26 23 12 21 7 15 22 27 25 31 37 32 32 30 37 24 42 46 43 37 36 36 37 38 41 40 40 40 39 34 30 37 36 34 31 27 28 25 22 18 15 13 12 12 12
11 15 22 27 26 29 27 22 25 29 44 34 37 33 24 33 39 36 40 35 43 45 44 41 37 35 36 40 40 41 40 39 38 33 32 35 35 35 33 28 27 26 21 17 15 13 11 9 8
9 13 20 26 25 16 16 22 13 31 39 37 35 29 28 31 31 34 36 23 21 47 44 44 38 35 33 38 39 40 39 40 37 33 35 31 33 33 32 30 24 23 20 17 14 12 10 7 11
17 12 11 11 16 10 12 20 23 47 33 28 28 24 24 20 25 27 28 21 28 42 44 43 42 37 34 36 38 39 39 39 30 37 34 28 30 31 28 26 24 21 20 16 12 9 9 10 8
4 3 2 3 12 8 11 23 16 14 10 17 16 22 25 21 27 19 19 22 13 43 39 42 40 28 31 33 37 40 39 34 38 35 33 29 28 29 25 27 25 21 18 16 15 14 12 12 11
3 4 5 11 9 8 12 11 12 19 11 11 18 18 17 15 11 15 23 21 33 27 36 35 30 44 40 31 36 38 36 34 39 32 36 35 31 29 27 26 23 20 18 17 16 15 14 13 12
5 7 8 11 6 16 10 20 20 24 14 12 17 19 14 10 9 13 14 30 25 22 31 34 32 30 42 36 38 34 34 38 40 38 38 37 34 32 28 25 23 20 19 17 15 15 14 13 11
14 12 15 16 9 5 17 19 19 15 12 5 17 19 15 19 16 14 25 18 12 21 25 38 26 29 44 41 43 43 40 37 38 40 39 36 34 32 29 25 23 20 17 16 15 14 13 13 12
8 11 12 7 6 5 9 16 16 7 5 10 13 16 11 22 18 13 20 16 12 18 21 20 35 27 38 46 45 43 41 39 39 38 38 35 31 31 29 25 21 18 16 15 15 14 14 13 15
6 5 7 14 10 9 6 8 8 1 4 9 16 11 21 28 26 21 22 15 15 19 15 13 28 34 51 48 43 42 39 35 34 32 36 33 31 30 29 26 22 19 15 14 14 14 13 14 12
5 3 12 14 10 4 4 4 8 15 4 6 10 9 22 24 23 23 21 17 17 17 20 11 25 25 40 36 40 38 40 38 38 34 32 32 28 26 28 26 24 21 19 17 15 15 16 15 13
7 7 11 8 9 4 4 3 9 7 12 13 5 4 22 28 24 25 19 15 12 11 11 17 19 43 44 42 33 30 35 37 36 36 34 33 30 27 27 25 24 22 20 17 14 13 13 13 14
12 9 10 3 1 2 4 3 9 14 9 13 12 13 7 27 31 28 23 20 18 16 10 15 13 37 44 43 38 35 35 32 31 35 36 35 33 30 28 26 24 22 20 17 16 15 12 8 14
14 5 3 3 3 4 4 10 8 17 9 9 13 23 2 5 31 21 21 23 19 11 13 16 17 30 23 33 36 34 33 32 32 33 33 32 31 30 28 24 21 22 20 14 16 16 14 11 20
5 3 3 4 1 3 8 5 6 13 14 11 19 28 16 3 7 21 23 17 17 10 14 16 17 22 20 18 38 34 31 31 31 29 25 24 23 21 18 18 19 21 21 20 21 21 24 27 25
7 3 1 3 1 3 4 8 6 18 17 16 18 22 21 26 3 4 7 14 14 13 21 23 15 16 30 33 24 31 31 23 25 24 23 22 20 23 24 23 25 26 24 28 27 23 22 18 20
4 4 4 4 4 4 3 4 7 13 11 12 13 16 18 15 18 12 2 1 7 14 19 21 20 21 32 34 32 20 19 35 30 25 25 23 19 21 21 22 26 25 23 24 27 23 21 20 24
6 5 4 4 3 4 1 4 12 11 9 8 9 18 19 22 17 11 5 2 1 7 7 11 19 18 19 37 33 28 31 26 26 28 35 32 29 25 22 17 18 15 21 22 26 29 25 23 26
4 5 3 3 4 3 2 3 8 13 8 13 19 24 24 19 19 18 13 1 5 3 4 4 9 18 20 27 31 34 32 30 31 33 33 37 29 32 26 28 28 31 32 31 36 33 21 25 27